<?xml version="1.0" encoding="UTF-8"?>
<gpx version="1.1" creator="2bulu-scraper" xmlns="http://www.topografix.com/GPX/1/1">
  <metadata><name>木城到庞坡洞</name><desc>source: 2bulu.com trackId=83910093; exported 2026-09-01T16:26:04.245Z</desc>
    <bounds minlat="29.779361" minlon="103.430972" maxlat="29.810724" maxlon="103.466786"/>
    <link href="https://www.2bulu.com/track/t-6RUNJTss%252Bfjp%252FR2KBg5Tzw%253D%253D.htm"><text>2bulu 源页面</text></link>
  </metadata>
  <wpt lat="29.784994" lon="103.464827"><ele>511</ele><name></name></wpt>
  <wpt lat="29.781186" lon="103.454216"><ele>820</ele><name></name></wpt>
  <wpt lat="29.781101" lon="103.454175"><ele>824</ele><name></name></wpt>
  <wpt lat="29.781304" lon="103.451311"><ele>890</ele><name></name></wpt>
  <wpt lat="29.781881" lon="103.44658"><ele>833</ele><name></name></wpt>
  <wpt lat="29.781639" lon="103.446143"><ele>820</ele><name></name></wpt>
  <wpt lat="29.781444" lon="103.44614"><ele>817</ele><name></name></wpt>
  <wpt lat="29.781236" lon="103.44602"><ele>809</ele><name></name></wpt>
  <wpt lat="29.779361" lon="103.444882"><ele>792</ele><name></name></wpt>
  <wpt lat="29.779471" lon="103.444773"><ele>790</ele><name></name></wpt>
  <wpt lat="29.781726" lon="103.441724"><ele>759</ele><name></name></wpt>
  <wpt lat="29.782178" lon="103.441203"><ele>754</ele><name></name></wpt>
  <wpt lat="29.782581" lon="103.441193"><ele>749</ele><name></name></wpt>
  <wpt lat="29.782803" lon="103.441163"><ele>744</ele><name></name></wpt>
  <wpt lat="29.783148" lon="103.441317"><ele>738</ele><name></name></wpt>
  <wpt lat="29.7839" lon="103.441794"><ele>731</ele><name></name></wpt>
  <wpt lat="29.784337" lon="103.442002"><ele>722</ele><name></name></wpt>
  <wpt lat="29.784859" lon="103.442436"><ele>702</ele><name></name></wpt>
  <wpt lat="29.785043" lon="103.442432"><ele>696</ele><name></name></wpt>
  <wpt lat="29.785508" lon="103.442501"><ele>683</ele><name></name></wpt>
  <wpt lat="29.786943" lon="103.443433"><ele>656</ele><name></name></wpt>
  <wpt lat="29.789151" lon="103.443209"><ele>632</ele><name></name></wpt>
  <wpt lat="29.789714" lon="103.442835"><ele>595</ele><name></name></wpt>
  <wpt lat="29.790699" lon="103.442122"><ele>607</ele><name></name></wpt>
  <wpt lat="29.790709" lon="103.442114"><ele>610</ele><name></name></wpt>
  <wpt lat="29.791022" lon="103.441992"><ele>608</ele><name></name></wpt>
  <wpt lat="29.791405" lon="103.441836"><ele>594</ele><name></name></wpt>
  <wpt lat="29.791489" lon="103.441842"><ele>587</ele><name></name></wpt>
  <wpt lat="29.793253" lon="103.439701"><ele>546</ele><name></name></wpt>
  <wpt lat="29.795191" lon="103.438838"><ele>538</ele><name></name></wpt>
  <wpt lat="29.797398" lon="103.438396"><ele>555</ele><name></name></wpt>
  <wpt lat="29.797817" lon="103.437402"><ele>546</ele><name></name></wpt>
  <wpt lat="29.798857" lon="103.432262"><ele>514</ele><name></name></wpt>
  <wpt lat="29.7989" lon="103.432298"><ele>517</ele><name></name></wpt>
  <wpt lat="29.799416" lon="103.432173"><ele>522</ele><name></name></wpt>
  <wpt lat="29.80002" lon="103.432171"><ele>531</ele><name></name></wpt>
  <wpt lat="29.806426" lon="103.433231"><ele>467</ele><name></name></wpt>
  <wpt lat="29.806489" lon="103.433305"><ele>465</ele><name></name></wpt>
  <wpt lat="29.807297" lon="103.432633"><ele>454</ele><name></name></wpt>
  <wpt lat="29.808632" lon="103.431575"><ele>459</ele><name></name></wpt>
  <trk><name>木城到庞坡洞</name>
      <trkseg>
        <trkpt lat="29.784352" lon="103.465481"><ele>521.68054</ele><time>2026-05-08T17:11:46.000Z</time></trkpt>
        <trkpt lat="29.784413" lon="103.465575"><ele>520.1779</ele><time>2026-05-08T17:15:43.000Z</time></trkpt>
        <trkpt lat="29.784445" lon="103.465619"><ele>520.3485</ele><time>2026-05-08T17:15:48.000Z</time></trkpt>
        <trkpt lat="29.784469" lon="103.465674"><ele>520.9454</ele><time>2026-05-08T17:15:52.000Z</time></trkpt>
        <trkpt lat="29.784483" lon="103.465731"><ele>520.14874</ele><time>2026-05-08T17:15:57.000Z</time></trkpt>
        <trkpt lat="29.784486" lon="103.46579"><ele>519.32025</ele><time>2026-05-08T17:16:02.000Z</time></trkpt>
        <trkpt lat="29.784505" lon="103.465842"><ele>517.94916</ele><time>2026-05-08T17:16:10.000Z</time></trkpt>
        <trkpt lat="29.784479" lon="103.465798"><ele>517.0566</ele><time>2026-05-08T17:19:04.000Z</time></trkpt>
        <trkpt lat="29.784474" lon="103.46574"><ele>517.53186</ele><time>2026-05-08T17:19:08.000Z</time></trkpt>
        <trkpt lat="29.784461" lon="103.465677"><ele>517.6679</ele><time>2026-05-08T17:19:12.000Z</time></trkpt>
        <trkpt lat="29.784431" lon="103.465621"><ele>518.45557</ele><time>2026-05-08T17:19:15.000Z</time></trkpt>
        <trkpt lat="29.784395" lon="103.465571"><ele>519.8716</ele><time>2026-05-08T17:19:19.000Z</time></trkpt>
        <trkpt lat="29.784356" lon="103.465539"><ele>519.8191</ele><time>2026-05-08T17:19:23.000Z</time></trkpt>
        <trkpt lat="29.784323" lon="103.465493"><ele>519.6771</ele><time>2026-05-08T17:19:27.000Z</time></trkpt>
        <trkpt lat="29.784337" lon="103.465434"><ele>520.0076</ele><time>2026-05-08T17:19:32.000Z</time></trkpt>
        <trkpt lat="29.784359" lon="103.465381"><ele>519.8528</ele><time>2026-05-08T17:19:37.000Z</time></trkpt>
        <trkpt lat="29.784374" lon="103.465331"><ele>520.2795</ele><time>2026-05-08T17:19:40.000Z</time></trkpt>
        <trkpt lat="29.784391" lon="103.465272"><ele>521.0131</ele><time>2026-05-08T17:19:44.000Z</time></trkpt>
        <trkpt lat="29.7844" lon="103.46521"><ele>521.9818</ele><time>2026-05-08T17:19:55.000Z</time></trkpt>
        <trkpt lat="29.784418" lon="103.465145"><ele>522.04553</ele><time>2026-05-08T17:19:59.000Z</time></trkpt>
        <trkpt lat="29.784433" lon="103.465088"><ele>522.2361</ele><time>2026-05-08T17:20:03.000Z</time></trkpt>
        <trkpt lat="29.784422" lon="103.465146"><ele>522.34985</ele><time>2026-05-08T17:20:07.000Z</time></trkpt>
        <trkpt lat="29.784407" lon="103.465206"><ele>522.1204</ele><time>2026-05-08T17:20:11.000Z</time></trkpt>
        <trkpt lat="29.784411" lon="103.465273"><ele>521.54004</ele><time>2026-05-08T17:20:15.000Z</time></trkpt>
        <trkpt lat="29.784393" lon="103.465322"><ele>521.7001</ele><time>2026-05-08T17:20:20.000Z</time></trkpt>
        <trkpt lat="29.78438" lon="103.465372"><ele>521.2348</ele><time>2026-05-08T17:20:26.000Z</time></trkpt>
        <trkpt lat="29.784359" lon="103.465418"><ele>520.6334</ele><time>2026-05-08T17:20:32.000Z</time></trkpt>
        <trkpt lat="29.784356" lon="103.465482"><ele>520.89984</ele><time>2026-05-08T17:20:43.000Z</time></trkpt>
        <trkpt lat="29.784387" lon="103.465532"><ele>520.0926</ele><time>2026-05-08T17:20:48.000Z</time></trkpt>
        <trkpt lat="29.78442" lon="103.465573"><ele>520.18054</ele><time>2026-05-08T17:20:51.000Z</time></trkpt>
        <trkpt lat="29.784449" lon="103.465617"><ele>520.0277</ele><time>2026-05-08T17:20:54.000Z</time></trkpt>
        <trkpt lat="29.784472" lon="103.465667"><ele>519.39355</ele><time>2026-05-08T17:20:57.000Z</time></trkpt>
        <trkpt lat="29.784481" lon="103.465721"><ele>518.9175</ele><time>2026-05-08T17:21:00.000Z</time></trkpt>
        <trkpt lat="29.784488" lon="103.465779"><ele>518.2502</ele><time>2026-05-08T17:21:03.000Z</time></trkpt>
        <trkpt lat="29.7845" lon="103.46584"><ele>518.0674</ele><time>2026-05-08T17:21:07.000Z</time></trkpt>
        <trkpt lat="29.784494" lon="103.465894"><ele>515.6863</ele><time>2026-05-08T17:21:24.000Z</time></trkpt>
        <trkpt lat="29.784491" lon="103.465965"><ele>516.0148</ele><time>2026-05-08T17:21:28.000Z</time></trkpt>
        <trkpt lat="29.78449" lon="103.466024"><ele>514.7368</ele><time>2026-05-08T17:21:32.000Z</time></trkpt>
        <trkpt lat="29.784501" lon="103.466094"><ele>514.4785</ele><time>2026-05-08T17:21:36.000Z</time></trkpt>
        <trkpt lat="29.784498" lon="103.466158"><ele>513.8147</ele><time>2026-05-08T17:21:40.000Z</time></trkpt>
        <trkpt lat="29.784494" lon="103.466223"><ele>512.8878</ele><time>2026-05-08T17:21:44.000Z</time></trkpt>
        <trkpt lat="29.784496" lon="103.466275"><ele>512.3424</ele><time>2026-05-08T17:21:47.000Z</time></trkpt>
        <trkpt lat="29.784496" lon="103.466343"><ele>511.44717</ele><time>2026-05-08T17:21:51.000Z</time></trkpt>
        <trkpt lat="29.784496" lon="103.4664"><ele>511.45337</ele><time>2026-05-08T17:21:54.000Z</time></trkpt>
        <trkpt lat="29.784493" lon="103.466453"><ele>510.38107</ele><time>2026-05-08T17:21:57.000Z</time></trkpt>
        <trkpt lat="29.784498" lon="103.466507"><ele>509.55957</ele><time>2026-05-08T17:22:00.000Z</time></trkpt>
        <trkpt lat="29.784507" lon="103.46656"><ele>509.08057</ele><time>2026-05-08T17:22:03.000Z</time></trkpt>
        <trkpt lat="29.784522" lon="103.466614"><ele>508.95303</ele><time>2026-05-08T17:22:06.000Z</time></trkpt>
        <trkpt lat="29.784544" lon="103.466677"><ele>508.47427</ele><time>2026-05-08T17:22:10.000Z</time></trkpt>
        <trkpt lat="29.784583" lon="103.466728"><ele>507.54648</ele><time>2026-05-08T17:22:14.000Z</time></trkpt>
        <trkpt lat="29.784628" lon="103.466769"><ele>507.44104</ele><time>2026-05-08T17:22:18.000Z</time></trkpt>
        <trkpt lat="29.784673" lon="103.466782"><ele>507.98734</ele><time>2026-05-08T17:22:21.000Z</time></trkpt>
        <trkpt lat="29.784725" lon="103.466786"><ele>507.26944</ele><time>2026-05-08T17:22:26.000Z</time></trkpt>
        <trkpt lat="29.784774" lon="103.466784"><ele>506.57974</ele><time>2026-05-08T17:22:30.000Z</time></trkpt>
        <trkpt lat="29.784814" lon="103.466758"><ele>506.8826</ele><time>2026-05-08T17:22:34.000Z</time></trkpt>
        <trkpt lat="29.78486" lon="103.466729"><ele>507.1035</ele><time>2026-05-08T17:22:39.000Z</time></trkpt>
        <trkpt lat="29.784891" lon="103.466681"><ele>506.71478</ele><time>2026-05-08T17:22:46.000Z</time></trkpt>
        <trkpt lat="29.78491" lon="103.466619"><ele>507.2681</ele><time>2026-05-08T17:22:50.000Z</time></trkpt>
        <trkpt lat="29.784917" lon="103.466556"><ele>506.45663</ele><time>2026-05-08T17:22:54.000Z</time></trkpt>
        <trkpt lat="29.784902" lon="103.466493"><ele>506.44733</ele><time>2026-05-08T17:22:58.000Z</time></trkpt>
        <trkpt lat="29.784892" lon="103.466441"><ele>505.8451</ele><time>2026-05-08T17:23:01.000Z</time></trkpt>
        <trkpt lat="29.784884" lon="103.466388"><ele>505.17828</ele><time>2026-05-08T17:23:04.000Z</time></trkpt>
        <trkpt lat="29.784873" lon="103.466336"><ele>505.44717</ele><time>2026-05-08T17:23:07.000Z</time></trkpt>
        <trkpt lat="29.784863" lon="103.46627"><ele>505.61264</ele><time>2026-05-08T17:23:11.000Z</time></trkpt>
        <trkpt lat="29.784848" lon="103.466206"><ele>505.21762</ele><time>2026-05-08T17:23:15.000Z</time></trkpt>
        <trkpt lat="29.78484" lon="103.466142"><ele>504.95712</ele><time>2026-05-08T17:23:18.000Z</time></trkpt>
        <trkpt lat="29.784832" lon="103.466074"><ele>505.42807</ele><time>2026-05-08T17:23:22.000Z</time></trkpt>
        <trkpt lat="29.78483" lon="103.46602"><ele>505.25116</ele><time>2026-05-08T17:23:25.000Z</time></trkpt>
        <trkpt lat="29.784824" lon="103.465951"><ele>505.21866</ele><time>2026-05-08T17:23:29.000Z</time></trkpt>
        <trkpt lat="29.784824" lon="103.465885"><ele>505.20288</ele><time>2026-05-08T17:23:33.000Z</time></trkpt>
        <trkpt lat="29.78482" lon="103.465817"><ele>505.69296</ele><time>2026-05-08T17:23:37.000Z</time></trkpt>
        <trkpt lat="29.784829" lon="103.465756"><ele>505.25424</ele><time>2026-05-08T17:23:41.000Z</time></trkpt>
        <trkpt lat="29.78482" lon="103.465692"><ele>504.73026</ele><time>2026-05-08T17:23:45.000Z</time></trkpt>
        <trkpt lat="29.784825" lon="103.465626"><ele>505.57935</ele><time>2026-05-08T17:23:49.000Z</time></trkpt>
        <trkpt lat="29.784832" lon="103.465563"><ele>505.01886</ele><time>2026-05-08T17:23:53.000Z</time></trkpt>
        <trkpt lat="29.784854" lon="103.465499"><ele>505.00745</ele><time>2026-05-08T17:23:57.000Z</time></trkpt>
        <trkpt lat="29.784877" lon="103.465438"><ele>505.18777</ele><time>2026-05-08T17:24:01.000Z</time></trkpt>
        <trkpt lat="29.784849" lon="103.465391"><ele>504.34622</ele><time>2026-05-08T17:24:15.000Z</time></trkpt>
        <trkpt lat="29.784818" lon="103.465338"><ele>505.3307</ele><time>2026-05-08T17:24:19.000Z</time></trkpt>
        <trkpt lat="29.784815" lon="103.46528"><ele>507.49707</ele><time>2026-05-08T17:24:45.000Z</time></trkpt>
        <trkpt lat="29.784826" lon="103.465225"><ele>507.7168</ele><time>2026-05-08T17:24:54.000Z</time></trkpt>
        <trkpt lat="29.784834" lon="103.465173"><ele>506.8002</ele><time>2026-05-08T17:24:57.000Z</time></trkpt>
        <trkpt lat="29.784842" lon="103.465109"><ele>507.60077</ele><time>2026-05-08T17:25:01.000Z</time></trkpt>
        <trkpt lat="29.784863" lon="103.46506"><ele>508.12668</ele><time>2026-05-08T17:25:05.000Z</time></trkpt>
        <trkpt lat="29.784893" lon="103.46502"><ele>508.7868</ele><time>2026-05-08T17:25:08.000Z</time></trkpt>
        <trkpt lat="29.784895" lon="103.464965"><ele>509.17892</ele><time>2026-05-08T17:25:12.000Z</time></trkpt>
        <trkpt lat="29.784921" lon="103.464911"><ele>509.16156</ele><time>2026-05-08T17:25:16.000Z</time></trkpt>
        <trkpt lat="29.784955" lon="103.464858"><ele>510.15646</ele><time>2026-05-08T17:25:20.000Z</time></trkpt>
        <trkpt lat="29.784994" lon="103.464827"><ele>510.99918</ele><time>2026-05-08T17:25:24.000Z</time></trkpt>
        <trkpt lat="29.785048" lon="103.464828"><ele>513.3062</ele><time>2026-05-08T17:25:30.000Z</time></trkpt>
        <trkpt lat="29.785094" lon="103.464814"><ele>514.2074</ele><time>2026-05-08T17:25:36.000Z</time></trkpt>
        <trkpt lat="29.785146" lon="103.464802"><ele>515.8647</ele><time>2026-05-08T17:25:42.000Z</time></trkpt>
        <trkpt lat="29.785198" lon="103.464791"><ele>514.82434</ele><time>2026-05-08T17:25:47.000Z</time></trkpt>
        <trkpt lat="29.785236" lon="103.464756"><ele>516.6256</ele><time>2026-05-08T17:25:53.000Z</time></trkpt>
        <trkpt lat="29.785231" lon="103.464703"><ele>516.5213</ele><time>2026-05-08T17:26:00.000Z</time></trkpt>
        <trkpt lat="29.785207" lon="103.464656"><ele>516.67896</ele><time>2026-05-08T17:26:06.000Z</time></trkpt>
        <trkpt lat="29.785183" lon="103.464606"><ele>516.83374</ele><time>2026-05-08T17:26:12.000Z</time></trkpt>
        <trkpt lat="29.785159" lon="103.464559"><ele>517.4781</ele><time>2026-05-08T17:26:18.000Z</time></trkpt>
        <trkpt lat="29.785122" lon="103.464517"><ele>518.7658</ele><time>2026-05-08T17:26:24.000Z</time></trkpt>
        <trkpt lat="29.785086" lon="103.464481"><ele>519.67737</ele><time>2026-05-08T17:26:30.000Z</time></trkpt>
        <trkpt lat="29.785048" lon="103.464439"><ele>520.2561</ele><time>2026-05-08T17:26:36.000Z</time></trkpt>
        <trkpt lat="29.785022" lon="103.464387"><ele>520.47516</ele><time>2026-05-08T17:26:44.000Z</time></trkpt>
        <trkpt lat="29.784991" lon="103.464339"><ele>521.5398</ele><time>2026-05-08T17:27:01.000Z</time></trkpt>
        <trkpt lat="29.784962" lon="103.464299"><ele>523.06384</ele><time>2026-05-08T17:27:07.000Z</time></trkpt>
        <trkpt lat="29.784931" lon="103.464257"><ele>524.2247</ele><time>2026-05-08T17:27:13.000Z</time></trkpt>
        <trkpt lat="29.784897" lon="103.464218"><ele>526.0909</ele><time>2026-05-08T17:27:20.000Z</time></trkpt>
        <trkpt lat="29.784864" lon="103.464177"><ele>526.8396</ele><time>2026-05-08T17:27:26.000Z</time></trkpt>
        <trkpt lat="29.784832" lon="103.464135"><ele>529.06006</ele><time>2026-05-08T17:27:32.000Z</time></trkpt>
        <trkpt lat="29.784801" lon="103.46409"><ele>530.2824</ele><time>2026-05-08T17:27:37.000Z</time></trkpt>
        <trkpt lat="29.784774" lon="103.464046"><ele>530.575</ele><time>2026-05-08T17:27:42.000Z</time></trkpt>
        <trkpt lat="29.784742" lon="103.463997"><ele>531.1782</ele><time>2026-05-08T17:27:47.000Z</time></trkpt>
        <trkpt lat="29.784719" lon="103.46395"><ele>531.3528</ele><time>2026-05-08T17:27:52.000Z</time></trkpt>
        <trkpt lat="29.784691" lon="103.463901"><ele>532.4154</ele><time>2026-05-08T17:27:57.000Z</time></trkpt>
        <trkpt lat="29.784661" lon="103.463849"><ele>533.3719</ele><time>2026-05-08T17:28:04.000Z</time></trkpt>
        <trkpt lat="29.784635" lon="103.463806"><ele>534.3376</ele><time>2026-05-08T17:28:10.000Z</time></trkpt>
        <trkpt lat="29.784619" lon="103.463757"><ele>535.844</ele><time>2026-05-08T17:28:16.000Z</time></trkpt>
        <trkpt lat="29.784587" lon="103.463716"><ele>537.3563</ele><time>2026-05-08T17:28:22.000Z</time></trkpt>
        <trkpt lat="29.784562" lon="103.463665"><ele>538.12756</ele><time>2026-05-08T17:28:29.000Z</time></trkpt>
        <trkpt lat="29.784539" lon="103.463619"><ele>539.23346</ele><time>2026-05-08T17:28:45.000Z</time></trkpt>
        <trkpt lat="29.784506" lon="103.463583"><ele>540.597</ele><time>2026-05-08T17:28:51.000Z</time></trkpt>
        <trkpt lat="29.784466" lon="103.463554"><ele>542.9004</ele><time>2026-05-08T17:29:00.000Z</time></trkpt>
        <trkpt lat="29.784411" lon="103.463553"><ele>543.2239</ele><time>2026-05-08T17:29:07.000Z</time></trkpt>
        <trkpt lat="29.784366" lon="103.463537"><ele>544.5254</ele><time>2026-05-08T17:29:12.000Z</time></trkpt>
        <trkpt lat="29.784329" lon="103.463489"><ele>547.09045</ele><time>2026-05-08T17:29:20.000Z</time></trkpt>
        <trkpt lat="29.784282" lon="103.463457"><ele>547.62305</ele><time>2026-05-08T17:29:27.000Z</time></trkpt>
        <trkpt lat="29.784248" lon="103.46342"><ele>549.3412</ele><time>2026-05-08T17:29:34.000Z</time></trkpt>
        <trkpt lat="29.784198" lon="103.463404"><ele>550.1216</ele><time>2026-05-08T17:29:41.000Z</time></trkpt>
        <trkpt lat="29.784166" lon="103.46336"><ele>550.9685</ele><time>2026-05-08T17:29:46.000Z</time></trkpt>
        <trkpt lat="29.784164" lon="103.463297"><ele>552.541</ele><time>2026-05-08T17:29:52.000Z</time></trkpt>
        <trkpt lat="29.784178" lon="103.463237"><ele>553.9232</ele><time>2026-05-08T17:29:58.000Z</time></trkpt>
        <trkpt lat="29.784187" lon="103.463173"><ele>554.025</ele><time>2026-05-08T17:30:21.000Z</time></trkpt>
        <trkpt lat="29.784225" lon="103.46312"><ele>553.5766</ele><time>2026-05-08T17:30:24.000Z</time></trkpt>
        <trkpt lat="29.784227" lon="103.463065"><ele>553.32654</ele><time>2026-05-08T17:30:30.000Z</time></trkpt>
        <trkpt lat="29.784183" lon="103.463044"><ele>554.1958</ele><time>2026-05-08T17:30:37.000Z</time></trkpt>
        <trkpt lat="29.784163" lon="103.46299"><ele>554.8241</ele><time>2026-05-08T17:30:44.000Z</time></trkpt>
        <trkpt lat="29.784165" lon="103.46293"><ele>556.38684</ele><time>2026-05-08T17:31:00.000Z</time></trkpt>
        <trkpt lat="29.7842" lon="103.462877"><ele>557.12885</ele><time>2026-05-08T17:31:08.000Z</time></trkpt>
        <trkpt lat="29.784202" lon="103.462821"><ele>557.1161</ele><time>2026-05-08T17:31:13.000Z</time></trkpt>
        <trkpt lat="29.784243" lon="103.462787"><ele>558.3623</ele><time>2026-05-08T17:31:19.000Z</time></trkpt>
        <trkpt lat="29.784238" lon="103.462731"><ele>558.4484</ele><time>2026-05-08T17:31:25.000Z</time></trkpt>
        <trkpt lat="29.784242" lon="103.462672"><ele>558.1462</ele><time>2026-05-08T17:31:30.000Z</time></trkpt>
        <trkpt lat="29.784208" lon="103.462632"><ele>559.19916</ele><time>2026-05-08T17:31:40.000Z</time></trkpt>
        <trkpt lat="29.784153" lon="103.462628"><ele>559.6585</ele><time>2026-05-08T17:31:45.000Z</time></trkpt>
        <trkpt lat="29.784105" lon="103.462595"><ele>561.2947</ele><time>2026-05-08T17:31:51.000Z</time></trkpt>
        <trkpt lat="29.784067" lon="103.462558"><ele>560.6398</ele><time>2026-05-08T17:31:55.000Z</time></trkpt>
        <trkpt lat="29.784073" lon="103.4625"><ele>562.48785</ele><time>2026-05-08T17:32:01.000Z</time></trkpt>
        <trkpt lat="29.784084" lon="103.462442"><ele>561.75745</ele><time>2026-05-08T17:32:06.000Z</time></trkpt>
        <trkpt lat="29.784103" lon="103.462393"><ele>563.5074</ele><time>2026-05-08T17:32:13.000Z</time></trkpt>
        <trkpt lat="29.784104" lon="103.462337"><ele>564.5972</ele><time>2026-05-08T17:32:20.000Z</time></trkpt>
        <trkpt lat="29.784076" lon="103.462287"><ele>566.19324</ele><time>2026-05-08T17:32:25.000Z</time></trkpt>
        <trkpt lat="29.784029" lon="103.462272"><ele>566.3199</ele><time>2026-05-08T17:32:29.000Z</time></trkpt>
        <trkpt lat="29.783974" lon="103.462262"><ele>566.5298</ele><time>2026-05-08T17:32:34.000Z</time></trkpt>
        <trkpt lat="29.783929" lon="103.462263"><ele>567.02106</ele><time>2026-05-08T17:32:38.000Z</time></trkpt>
        <trkpt lat="29.783879" lon="103.462266"><ele>567.307</ele><time>2026-05-08T17:32:43.000Z</time></trkpt>
        <trkpt lat="29.783837" lon="103.462294"><ele>567.48553</ele><time>2026-05-08T17:32:47.000Z</time></trkpt>
        <trkpt lat="29.783804" lon="103.462345"><ele>567.43744</ele><time>2026-05-08T17:32:52.000Z</time></trkpt>
        <trkpt lat="29.783785" lon="103.462405"><ele>567.8887</ele><time>2026-05-08T17:32:58.000Z</time></trkpt>
        <trkpt lat="29.783739" lon="103.462387"><ele>568.03</ele><time>2026-05-08T17:33:04.000Z</time></trkpt>
        <trkpt lat="29.783714" lon="103.462339"><ele>568.4477</ele><time>2026-05-08T17:33:10.000Z</time></trkpt>
        <trkpt lat="29.783689" lon="103.462289"><ele>568.28876</ele><time>2026-05-08T17:33:16.000Z</time></trkpt>
        <trkpt lat="29.783695" lon="103.462238"><ele>569.7889</ele><time>2026-05-08T17:33:22.000Z</time></trkpt>
        <trkpt lat="29.783695" lon="103.462175"><ele>571.5515</ele><time>2026-05-08T17:33:32.000Z</time></trkpt>
        <trkpt lat="29.783683" lon="103.462125"><ele>571.7322</ele><time>2026-05-08T17:33:36.000Z</time></trkpt>
        <trkpt lat="29.783696" lon="103.462069"><ele>572.3415</ele><time>2026-05-08T17:33:41.000Z</time></trkpt>
        <trkpt lat="29.783714" lon="103.462011"><ele>572.0452</ele><time>2026-05-08T17:33:47.000Z</time></trkpt>
        <trkpt lat="29.783734" lon="103.461963"><ele>572.38477</ele><time>2026-05-08T17:33:52.000Z</time></trkpt>
        <trkpt lat="29.783757" lon="103.461917"><ele>572.7707</ele><time>2026-05-08T17:33:59.000Z</time></trkpt>
        <trkpt lat="29.783776" lon="103.461866"><ele>573.324</ele><time>2026-05-08T17:34:10.000Z</time></trkpt>
        <trkpt lat="29.783769" lon="103.461808"><ele>574.5818</ele><time>2026-05-08T17:34:17.000Z</time></trkpt>
        <trkpt lat="29.783735" lon="103.46177"><ele>574.7603</ele><time>2026-05-08T17:34:23.000Z</time></trkpt>
        <trkpt lat="29.783691" lon="103.461748"><ele>575.675</ele><time>2026-05-08T17:34:28.000Z</time></trkpt>
        <trkpt lat="29.783737" lon="103.461735"><ele>576.917</ele><time>2026-05-08T17:34:40.000Z</time></trkpt>
        <trkpt lat="29.783788" lon="103.46174"><ele>579.0894</ele><time>2026-05-08T17:35:02.000Z</time></trkpt>
        <trkpt lat="29.78384" lon="103.461733"><ele>578.3732</ele><time>2026-05-08T17:35:08.000Z</time></trkpt>
        <trkpt lat="29.783887" lon="103.461726"><ele>577.5335</ele><time>2026-05-08T17:35:13.000Z</time></trkpt>
        <trkpt lat="29.783932" lon="103.461705"><ele>578.3778</ele><time>2026-05-08T17:35:19.000Z</time></trkpt>
        <trkpt lat="29.783977" lon="103.461669"><ele>577.9053</ele><time>2026-05-08T17:35:24.000Z</time></trkpt>
        <trkpt lat="29.784009" lon="103.461625"><ele>577.21783</ele><time>2026-05-08T17:35:29.000Z</time></trkpt>
        <trkpt lat="29.784024" lon="103.461568"><ele>576.74286</ele><time>2026-05-08T17:35:34.000Z</time></trkpt>
        <trkpt lat="29.784036" lon="103.46151"><ele>576.2819</ele><time>2026-05-08T17:35:40.000Z</time></trkpt>
        <trkpt lat="29.784033" lon="103.461447"><ele>576.7435</ele><time>2026-05-08T17:35:46.000Z</time></trkpt>
        <trkpt lat="29.784033" lon="103.461393"><ele>577.5142</ele><time>2026-05-08T17:35:51.000Z</time></trkpt>
        <trkpt lat="29.784047" lon="103.461332"><ele>578.2773</ele><time>2026-05-08T17:35:57.000Z</time></trkpt>
        <trkpt lat="29.78404" lon="103.461277"><ele>578.878</ele><time>2026-05-08T17:36:02.000Z</time></trkpt>
        <trkpt lat="29.784053" lon="103.461222"><ele>580.4798</ele><time>2026-05-08T17:36:18.000Z</time></trkpt>
        <trkpt lat="29.784056" lon="103.46117"><ele>581.9042</ele><time>2026-05-08T17:36:23.000Z</time></trkpt>
        <trkpt lat="29.784051" lon="103.461106"><ele>581.7557</ele><time>2026-05-08T17:36:27.000Z</time></trkpt>
        <trkpt lat="29.784046" lon="103.461045"><ele>580.40643</ele><time>2026-05-08T17:36:34.000Z</time></trkpt>
        <trkpt lat="29.784037" lon="103.460984"><ele>579.8122</ele><time>2026-05-08T17:36:40.000Z</time></trkpt>
        <trkpt lat="29.784038" lon="103.460926"><ele>579.7087</ele><time>2026-05-08T17:36:46.000Z</time></trkpt>
        <trkpt lat="29.784032" lon="103.460868"><ele>580.0646</ele><time>2026-05-08T17:36:50.000Z</time></trkpt>
        <trkpt lat="29.784034" lon="103.460807"><ele>580.39716</ele><time>2026-05-08T17:37:00.000Z</time></trkpt>
        <trkpt lat="29.78402" lon="103.460753"><ele>581.52423</ele><time>2026-05-08T17:37:05.000Z</time></trkpt>
        <trkpt lat="29.784012" lon="103.460694"><ele>583.6056</ele><time>2026-05-08T17:37:11.000Z</time></trkpt>
        <trkpt lat="29.783986" lon="103.460651"><ele>584.90564</ele><time>2026-05-08T17:37:18.000Z</time></trkpt>
        <trkpt lat="29.783967" lon="103.460598"><ele>586.42175</ele><time>2026-05-08T17:37:37.000Z</time></trkpt>
        <trkpt lat="29.783959" lon="103.460536"><ele>586.9654</ele><time>2026-05-08T17:37:42.000Z</time></trkpt>
        <trkpt lat="29.783956" lon="103.460484"><ele>586.78467</ele><time>2026-05-08T17:37:48.000Z</time></trkpt>
        <trkpt lat="29.783949" lon="103.460428"><ele>588.267</ele><time>2026-05-08T17:37:53.000Z</time></trkpt>
        <trkpt lat="29.783928" lon="103.460379"><ele>589.29266</ele><time>2026-05-08T17:37:59.000Z</time></trkpt>
        <trkpt lat="29.783899" lon="103.460323"><ele>590.58514</ele><time>2026-05-08T17:38:06.000Z</time></trkpt>
        <trkpt lat="29.7839" lon="103.460268"><ele>592.7485</ele><time>2026-05-08T17:38:14.000Z</time></trkpt>
        <trkpt lat="29.783903" lon="103.460213"><ele>592.7778</ele><time>2026-05-08T17:38:19.000Z</time></trkpt>
        <trkpt lat="29.7839" lon="103.46016"><ele>593.47125</ele><time>2026-05-08T17:38:25.000Z</time></trkpt>
        <trkpt lat="29.783895" lon="103.460109"><ele>594.1224</ele><time>2026-05-08T17:38:29.000Z</time></trkpt>
        <trkpt lat="29.783896" lon="103.460056"><ele>594.0058</ele><time>2026-05-08T17:38:34.000Z</time></trkpt>
        <trkpt lat="29.783899" lon="103.459994"><ele>594.8242</ele><time>2026-05-08T17:38:39.000Z</time></trkpt>
        <trkpt lat="29.783917" lon="103.459942"><ele>596.13947</ele><time>2026-05-08T17:38:44.000Z</time></trkpt>
        <trkpt lat="29.783937" lon="103.459885"><ele>596.1456</ele><time>2026-05-08T17:38:48.000Z</time></trkpt>
        <trkpt lat="29.783969" lon="103.459841"><ele>595.9939</ele><time>2026-05-08T17:38:53.000Z</time></trkpt>
        <trkpt lat="29.783985" lon="103.45978"><ele>595.6152</ele><time>2026-05-08T17:38:58.000Z</time></trkpt>
        <trkpt lat="29.784006" lon="103.459726"><ele>594.3903</ele><time>2026-05-08T17:39:02.000Z</time></trkpt>
        <trkpt lat="29.784034" lon="103.459676"><ele>593.72473</ele><time>2026-05-08T17:39:06.000Z</time></trkpt>
        <trkpt lat="29.784072" lon="103.459636"><ele>592.9895</ele><time>2026-05-08T17:39:11.000Z</time></trkpt>
        <trkpt lat="29.784083" lon="103.459583"><ele>593.3298</ele><time>2026-05-08T17:39:17.000Z</time></trkpt>
        <trkpt lat="29.78411" lon="103.45954"><ele>592.78577</ele><time>2026-05-08T17:39:21.000Z</time></trkpt>
        <trkpt lat="29.784167" lon="103.459516"><ele>594.1893</ele><time>2026-05-08T17:39:27.000Z</time></trkpt>
        <trkpt lat="29.784185" lon="103.459464"><ele>594.2616</ele><time>2026-05-08T17:39:32.000Z</time></trkpt>
        <trkpt lat="29.784175" lon="103.459391"><ele>595.1033</ele><time>2026-05-08T17:39:40.000Z</time></trkpt>
        <trkpt lat="29.784183" lon="103.459334"><ele>596.6292</ele><time>2026-05-08T17:39:46.000Z</time></trkpt>
        <trkpt lat="29.784182" lon="103.45928"><ele>597.84265</ele><time>2026-05-08T17:39:50.000Z</time></trkpt>
        <trkpt lat="29.784244" lon="103.459247"><ele>597.4327</ele><time>2026-05-08T17:39:53.000Z</time></trkpt>
        <trkpt lat="29.784289" lon="103.459264"><ele>597.5873</ele><time>2026-05-08T17:39:57.000Z</time></trkpt>
        <trkpt lat="29.784323" lon="103.459306"><ele>599.361</ele><time>2026-05-08T17:40:07.000Z</time></trkpt>
        <trkpt lat="29.784349" lon="103.459359"><ele>601.3832</ele><time>2026-05-08T17:40:20.000Z</time></trkpt>
        <trkpt lat="29.784387" lon="103.459392"><ele>601.086</ele><time>2026-05-08T17:40:26.000Z</time></trkpt>
        <trkpt lat="29.784412" lon="103.45944"><ele>601.9192</ele><time>2026-05-08T17:40:35.000Z</time></trkpt>
        <trkpt lat="29.784459" lon="103.459458"><ele>600.1092</ele><time>2026-05-08T17:40:41.000Z</time></trkpt>
        <trkpt lat="29.784502" lon="103.459484"><ele>600.17993</ele><time>2026-05-08T17:40:46.000Z</time></trkpt>
        <trkpt lat="29.784532" lon="103.459533"><ele>601.6592</ele><time>2026-05-08T17:40:52.000Z</time></trkpt>
        <trkpt lat="29.784581" lon="103.45955"><ele>601.4714</ele><time>2026-05-08T17:40:57.000Z</time></trkpt>
        <trkpt lat="29.784628" lon="103.459537"><ele>604.79877</ele><time>2026-05-08T17:41:06.000Z</time></trkpt>
        <trkpt lat="29.78468" lon="103.459534"><ele>605.8563</ele><time>2026-05-08T17:41:12.000Z</time></trkpt>
        <trkpt lat="29.784723" lon="103.459514"><ele>607.14014</ele><time>2026-05-08T17:41:16.000Z</time></trkpt>
        <trkpt lat="29.784761" lon="103.459484"><ele>607.96893</ele><time>2026-05-08T17:41:21.000Z</time></trkpt>
        <trkpt lat="29.784809" lon="103.459472"><ele>610.0352</ele><time>2026-05-08T17:41:29.000Z</time></trkpt>
        <trkpt lat="29.784814" lon="103.459411"><ele>611.3632</ele><time>2026-05-08T17:41:37.000Z</time></trkpt>
        <trkpt lat="29.784766" lon="103.459395"><ele>612.1743</ele><time>2026-05-08T17:41:44.000Z</time></trkpt>
        <trkpt lat="29.784713" lon="103.459399"><ele>612.5263</ele><time>2026-05-08T17:41:50.000Z</time></trkpt>
        <trkpt lat="29.784665" lon="103.459393"><ele>613.5185</ele><time>2026-05-08T17:41:55.000Z</time></trkpt>
        <trkpt lat="29.78462" lon="103.459382"><ele>613.0861</ele><time>2026-05-08T17:42:01.000Z</time></trkpt>
        <trkpt lat="29.784568" lon="103.459379"><ele>614.2198</ele><time>2026-05-08T17:42:07.000Z</time></trkpt>
        <trkpt lat="29.784539" lon="103.459339"><ele>614.51373</ele><time>2026-05-08T17:42:14.000Z</time></trkpt>
        <trkpt lat="29.784511" lon="103.459297"><ele>615.2138</ele><time>2026-05-08T17:42:21.000Z</time></trkpt>
        <trkpt lat="29.784495" lon="103.459245"><ele>615.67194</ele><time>2026-05-08T17:42:28.000Z</time></trkpt>
        <trkpt lat="29.784467" lon="103.4592"><ele>617.0758</ele><time>2026-05-08T17:42:39.000Z</time></trkpt>
        <trkpt lat="29.784456" lon="103.459146"><ele>617.423</ele><time>2026-05-08T17:42:45.000Z</time></trkpt>
        <trkpt lat="29.784454" lon="103.459086"><ele>618.01794</ele><time>2026-05-08T17:42:51.000Z</time></trkpt>
        <trkpt lat="29.784452" lon="103.459028"><ele>617.73926</ele><time>2026-05-08T17:42:56.000Z</time></trkpt>
        <trkpt lat="29.784434" lon="103.458975"><ele>619.3111</ele><time>2026-05-08T17:43:01.000Z</time></trkpt>
        <trkpt lat="29.784417" lon="103.458926"><ele>619.1773</ele><time>2026-05-08T17:43:05.000Z</time></trkpt>
        <trkpt lat="29.784412" lon="103.458868"><ele>620.0028</ele><time>2026-05-08T17:43:12.000Z</time></trkpt>
        <trkpt lat="29.784398" lon="103.458808"><ele>621.3257</ele><time>2026-05-08T17:43:18.000Z</time></trkpt>
        <trkpt lat="29.784413" lon="103.458759"><ele>624.2654</ele><time>2026-05-08T17:43:26.000Z</time></trkpt>
        <trkpt lat="29.784457" lon="103.458778"><ele>626.91187</ele><time>2026-05-08T17:43:38.000Z</time></trkpt>
        <trkpt lat="29.784492" lon="103.458814"><ele>626.08734</ele><time>2026-05-08T17:43:43.000Z</time></trkpt>
        <trkpt lat="29.784521" lon="103.458857"><ele>627.47144</ele><time>2026-05-08T17:43:50.000Z</time></trkpt>
        <trkpt lat="29.784544" lon="103.45891"><ele>627.938</ele><time>2026-05-08T17:43:57.000Z</time></trkpt>
        <trkpt lat="29.784569" lon="103.458955"><ele>629.3965</ele><time>2026-05-08T17:44:02.000Z</time></trkpt>
        <trkpt lat="29.784603" lon="103.458994"><ele>629.3229</ele><time>2026-05-08T17:44:08.000Z</time></trkpt>
        <trkpt lat="29.78463" lon="103.459035"><ele>629.9389</ele><time>2026-05-08T17:44:13.000Z</time></trkpt>
        <trkpt lat="29.784676" lon="103.459057"><ele>630.47064</ele><time>2026-05-08T17:44:18.000Z</time></trkpt>
        <trkpt lat="29.784722" lon="103.459047"><ele>631.10394</ele><time>2026-05-08T17:44:23.000Z</time></trkpt>
        <trkpt lat="29.784746" lon="103.458999"><ele>632.007</ele><time>2026-05-08T17:44:28.000Z</time></trkpt>
        <trkpt lat="29.784743" lon="103.458947"><ele>633.4243</ele><time>2026-05-08T17:44:34.000Z</time></trkpt>
        <trkpt lat="29.784719" lon="103.458897"><ele>633.8214</ele><time>2026-05-08T17:44:40.000Z</time></trkpt>
        <trkpt lat="29.78469" lon="103.458846"><ele>633.83496</ele><time>2026-05-08T17:44:46.000Z</time></trkpt>
        <trkpt lat="29.784672" lon="103.458791"><ele>633.4537</ele><time>2026-05-08T17:44:52.000Z</time></trkpt>
        <trkpt lat="29.784651" lon="103.458743"><ele>634.2066</ele><time>2026-05-08T17:44:59.000Z</time></trkpt>
        <trkpt lat="29.784642" lon="103.45869"><ele>635.40674</ele><time>2026-05-08T17:45:06.000Z</time></trkpt>
        <trkpt lat="29.784638" lon="103.458638"><ele>635.8232</ele><time>2026-05-08T17:45:12.000Z</time></trkpt>
        <trkpt lat="29.78462" lon="103.458588"><ele>636.7905</ele><time>2026-05-08T17:45:18.000Z</time></trkpt>
        <trkpt lat="29.784619" lon="103.458527"><ele>638.1265</ele><time>2026-05-08T17:45:24.000Z</time></trkpt>
        <trkpt lat="29.784604" lon="103.458478"><ele>638.93036</ele><time>2026-05-08T17:45:29.000Z</time></trkpt>
        <trkpt lat="29.784585" lon="103.458424"><ele>638.0603</ele><time>2026-05-08T17:45:35.000Z</time></trkpt>
        <trkpt lat="29.784552" lon="103.458375"><ele>639.3303</ele><time>2026-05-08T17:45:41.000Z</time></trkpt>
        <trkpt lat="29.784536" lon="103.458325"><ele>640.4638</ele><time>2026-05-08T17:45:46.000Z</time></trkpt>
        <trkpt lat="29.784509" lon="103.458269"><ele>640.9594</ele><time>2026-05-08T17:45:52.000Z</time></trkpt>
        <trkpt lat="29.784491" lon="103.45822"><ele>640.79974</ele><time>2026-05-08T17:45:56.000Z</time></trkpt>
        <trkpt lat="29.784462" lon="103.458177"><ele>641.56287</ele><time>2026-05-08T17:46:01.000Z</time></trkpt>
        <trkpt lat="29.784433" lon="103.458133"><ele>642.50116</ele><time>2026-05-08T17:46:06.000Z</time></trkpt>
        <trkpt lat="29.784402" lon="103.458096"><ele>644.4146</ele><time>2026-05-08T17:46:12.000Z</time></trkpt>
        <trkpt lat="29.78439" lon="103.458043"><ele>646.37024</ele><time>2026-05-08T17:46:19.000Z</time></trkpt>
        <trkpt lat="29.784362" lon="103.458"><ele>646.8816</ele><time>2026-05-08T17:46:24.000Z</time></trkpt>
        <trkpt lat="29.784319" lon="103.45797"><ele>648.47754</ele><time>2026-05-08T17:46:30.000Z</time></trkpt>
        <trkpt lat="29.784287" lon="103.45793"><ele>650.14813</ele><time>2026-05-08T17:46:37.000Z</time></trkpt>
        <trkpt lat="29.784279" lon="103.45787"><ele>650.4148</ele><time>2026-05-08T17:46:43.000Z</time></trkpt>
        <trkpt lat="29.784276" lon="103.457817"><ele>651.6776</ele><time>2026-05-08T17:46:49.000Z</time></trkpt>
        <trkpt lat="29.784297" lon="103.457763"><ele>652.8067</ele><time>2026-05-08T17:47:06.000Z</time></trkpt>
        <trkpt lat="29.784291" lon="103.457703"><ele>652.6132</ele><time>2026-05-08T17:47:11.000Z</time></trkpt>
        <trkpt lat="29.784273" lon="103.457652"><ele>652.7952</ele><time>2026-05-08T17:47:16.000Z</time></trkpt>
        <trkpt lat="29.784242" lon="103.457607"><ele>652.8732</ele><time>2026-05-08T17:47:23.000Z</time></trkpt>
        <trkpt lat="29.784196" lon="103.457601"><ele>655.3762</ele><time>2026-05-08T17:47:33.000Z</time></trkpt>
        <trkpt lat="29.784161" lon="103.457567"><ele>656.0634</ele><time>2026-05-08T17:47:41.000Z</time></trkpt>
        <trkpt lat="29.784121" lon="103.45754"><ele>657.16046</ele><time>2026-05-08T17:47:57.000Z</time></trkpt>
        <trkpt lat="29.784072" lon="103.457557"><ele>657.3444</ele><time>2026-05-08T17:48:03.000Z</time></trkpt>
        <trkpt lat="29.784033" lon="103.457599"><ele>657.49725</ele><time>2026-05-08T17:48:13.000Z</time></trkpt>
        <trkpt lat="29.78399" lon="103.457625"><ele>657.816</ele><time>2026-05-08T17:48:20.000Z</time></trkpt>
        <trkpt lat="29.783942" lon="103.457642"><ele>659.475</ele><time>2026-05-08T17:48:26.000Z</time></trkpt>
        <trkpt lat="29.783906" lon="103.457683"><ele>659.09283</ele><time>2026-05-08T17:48:31.000Z</time></trkpt>
        <trkpt lat="29.783858" lon="103.457694"><ele>659.8204</ele><time>2026-05-08T17:48:36.000Z</time></trkpt>
        <trkpt lat="29.783813" lon="103.457705"><ele>660.25</ele><time>2026-05-08T17:48:41.000Z</time></trkpt>
        <trkpt lat="29.783766" lon="103.457713"><ele>661.2001</ele><time>2026-05-08T17:48:47.000Z</time></trkpt>
        <trkpt lat="29.783716" lon="103.457725"><ele>663.8409</ele><time>2026-05-08T17:48:55.000Z</time></trkpt>
        <trkpt lat="29.783668" lon="103.457745"><ele>664.10156</ele><time>2026-05-08T17:49:03.000Z</time></trkpt>
        <trkpt lat="29.783621" lon="103.457757"><ele>664.4943</ele><time>2026-05-08T17:49:08.000Z</time></trkpt>
        <trkpt lat="29.78357" lon="103.457774"><ele>666.4171</ele><time>2026-05-08T17:49:13.000Z</time></trkpt>
        <trkpt lat="29.78352" lon="103.457778"><ele>666.56494</ele><time>2026-05-08T17:49:18.000Z</time></trkpt>
        <trkpt lat="29.783468" lon="103.457778"><ele>666.69293</ele><time>2026-05-08T17:49:23.000Z</time></trkpt>
        <trkpt lat="29.783418" lon="103.457789"><ele>666.0406</ele><time>2026-05-08T17:49:28.000Z</time></trkpt>
        <trkpt lat="29.783365" lon="103.457799"><ele>666.7595</ele><time>2026-05-08T17:49:33.000Z</time></trkpt>
        <trkpt lat="29.783313" lon="103.457817"><ele>666.6518</ele><time>2026-05-08T17:49:38.000Z</time></trkpt>
        <trkpt lat="29.783267" lon="103.457843"><ele>666.3091</ele><time>2026-05-08T17:49:44.000Z</time></trkpt>
        <trkpt lat="29.783226" lon="103.457872"><ele>667.7581</ele><time>2026-05-08T17:49:49.000Z</time></trkpt>
        <trkpt lat="29.783183" lon="103.457901"><ele>668.8821</ele><time>2026-05-08T17:49:54.000Z</time></trkpt>
        <trkpt lat="29.783138" lon="103.457931"><ele>670.0174</ele><time>2026-05-08T17:50:00.000Z</time></trkpt>
        <trkpt lat="29.783096" lon="103.457963"><ele>671.4068</ele><time>2026-05-08T17:50:05.000Z</time></trkpt>
        <trkpt lat="29.783065" lon="103.458007"><ele>671.06104</ele><time>2026-05-08T17:50:10.000Z</time></trkpt>
        <trkpt lat="29.783023" lon="103.458037"><ele>671.5963</ele><time>2026-05-08T17:50:15.000Z</time></trkpt>
        <trkpt lat="29.78298" lon="103.458054"><ele>671.65753</ele><time>2026-05-08T17:50:19.000Z</time></trkpt>
        <trkpt lat="29.782938" lon="103.458084"><ele>672.24023</ele><time>2026-05-08T17:50:24.000Z</time></trkpt>
        <trkpt lat="29.782901" lon="103.458115"><ele>674.70496</ele><time>2026-05-08T17:50:30.000Z</time></trkpt>
        <trkpt lat="29.782854" lon="103.45813"><ele>675.9008</ele><time>2026-05-08T17:50:35.000Z</time></trkpt>
        <trkpt lat="29.782808" lon="103.458153"><ele>678.755</ele><time>2026-05-08T17:50:42.000Z</time></trkpt>
        <trkpt lat="29.782767" lon="103.458177"><ele>679.609</ele><time>2026-05-08T17:50:49.000Z</time></trkpt>
        <trkpt lat="29.782722" lon="103.458188"><ele>679.45886</ele><time>2026-05-08T17:50:54.000Z</time></trkpt>
        <trkpt lat="29.782701" lon="103.458243"><ele>676.08167</ele><time>2026-05-08T17:51:28.000Z</time></trkpt>
        <trkpt lat="29.782697" lon="103.458191"><ele>680.3891</ele><time>2026-05-08T17:53:02.000Z</time></trkpt>
        <trkpt lat="29.78274" lon="103.45821"><ele>677.4184</ele><time>2026-05-08T17:54:47.000Z</time></trkpt>
        <trkpt lat="29.782698" lon="103.458184"><ele>677.6866</ele><time>2026-05-08T17:55:38.000Z</time></trkpt>
        <trkpt lat="29.782669" lon="103.458137"><ele>678.69775</ele><time>2026-05-08T17:55:45.000Z</time></trkpt>
        <trkpt lat="29.782644" lon="103.458093"><ele>680.12177</ele><time>2026-05-08T17:55:52.000Z</time></trkpt>
        <trkpt lat="29.782624" lon="103.458042"><ele>681.67865</ele><time>2026-05-08T17:56:07.000Z</time></trkpt>
        <trkpt lat="29.782618" lon="103.457984"><ele>684.37305</ele><time>2026-05-08T17:56:30.000Z</time></trkpt>
        <trkpt lat="29.782601" lon="103.457931"><ele>684.52826</ele><time>2026-05-08T17:56:36.000Z</time></trkpt>
        <trkpt lat="29.78257" lon="103.457887"><ele>684.45886</ele><time>2026-05-08T17:56:42.000Z</time></trkpt>
        <trkpt lat="29.782533" lon="103.45785"><ele>684.82965</ele><time>2026-05-08T17:56:48.000Z</time></trkpt>
        <trkpt lat="29.782493" lon="103.457823"><ele>685.9265</ele><time>2026-05-08T17:56:52.000Z</time></trkpt>
        <trkpt lat="29.782452" lon="103.457798"><ele>686.2244</ele><time>2026-05-08T17:56:58.000Z</time></trkpt>
        <trkpt lat="29.782415" lon="103.457764"><ele>687.1802</ele><time>2026-05-08T17:57:05.000Z</time></trkpt>
        <trkpt lat="29.782378" lon="103.457728"><ele>688.636</ele><time>2026-05-08T17:57:12.000Z</time></trkpt>
        <trkpt lat="29.782366" lon="103.457672"><ele>689.69727</ele><time>2026-05-08T17:57:19.000Z</time></trkpt>
        <trkpt lat="29.782341" lon="103.457624"><ele>691.0781</ele><time>2026-05-08T17:57:25.000Z</time></trkpt>
        <trkpt lat="29.782314" lon="103.457568"><ele>692.42163</ele><time>2026-05-08T17:57:33.000Z</time></trkpt>
        <trkpt lat="29.782284" lon="103.457514"><ele>692.59216</ele><time>2026-05-08T17:57:39.000Z</time></trkpt>
        <trkpt lat="29.78225" lon="103.457478"><ele>693.008</ele><time>2026-05-08T17:57:43.000Z</time></trkpt>
        <trkpt lat="29.782218" lon="103.457441"><ele>697.1356</ele><time>2026-05-08T17:57:48.000Z</time></trkpt>
        <trkpt lat="29.782173" lon="103.457408"><ele>698.1042</ele><time>2026-05-08T17:57:56.000Z</time></trkpt>
        <trkpt lat="29.782141" lon="103.457365"><ele>699.1859</ele><time>2026-05-08T17:58:06.000Z</time></trkpt>
        <trkpt lat="29.782151" lon="103.457314"><ele>699.85846</ele><time>2026-05-08T17:58:15.000Z</time></trkpt>
        <trkpt lat="29.782198" lon="103.457302"><ele>700.29285</ele><time>2026-05-08T17:58:22.000Z</time></trkpt>
        <trkpt lat="29.782241" lon="103.457332"><ele>702.2408</ele><time>2026-05-08T17:58:31.000Z</time></trkpt>
        <trkpt lat="29.782289" lon="103.457329"><ele>702.938</ele><time>2026-05-08T17:58:39.000Z</time></trkpt>
        <trkpt lat="29.782334" lon="103.45733"><ele>704.3616</ele><time>2026-05-08T17:58:47.000Z</time></trkpt>
        <trkpt lat="29.782382" lon="103.457303"><ele>705.1684</ele><time>2026-05-08T17:58:54.000Z</time></trkpt>
        <trkpt lat="29.782425" lon="103.457287"><ele>706.9463</ele><time>2026-05-08T17:59:01.000Z</time></trkpt>
        <trkpt lat="29.782452" lon="103.457238"><ele>707.3373</ele><time>2026-05-08T17:59:07.000Z</time></trkpt>
        <trkpt lat="29.782468" lon="103.457181"><ele>708.7166</ele><time>2026-05-08T17:59:13.000Z</time></trkpt>
        <trkpt lat="29.782468" lon="103.457122"><ele>710.96906</ele><time>2026-05-08T17:59:34.000Z</time></trkpt>
        <trkpt lat="29.782434" lon="103.457083"><ele>713.46246</ele><time>2026-05-08T17:59:46.000Z</time></trkpt>
        <trkpt lat="29.782431" lon="103.457028"><ele>713.3449</ele><time>2026-05-08T17:59:55.000Z</time></trkpt>
        <trkpt lat="29.782422" lon="103.456976"><ele>714.0192</ele><time>2026-05-08T18:00:03.000Z</time></trkpt>
        <trkpt lat="29.782432" lon="103.456923"><ele>717.47284</ele><time>2026-05-08T18:00:14.000Z</time></trkpt>
        <trkpt lat="29.782423" lon="103.45686"><ele>718.17114</ele><time>2026-05-08T18:00:21.000Z</time></trkpt>
        <trkpt lat="29.782412" lon="103.456799"><ele>719.6097</ele><time>2026-05-08T18:00:28.000Z</time></trkpt>
        <trkpt lat="29.782419" lon="103.456741"><ele>723.4549</ele><time>2026-05-08T18:00:37.000Z</time></trkpt>
        <trkpt lat="29.782384" lon="103.456696"><ele>723.0157</ele><time>2026-05-08T18:00:43.000Z</time></trkpt>
        <trkpt lat="29.782367" lon="103.45664"><ele>723.2165</ele><time>2026-05-08T18:00:49.000Z</time></trkpt>
        <trkpt lat="29.782339" lon="103.456592"><ele>722.17706</ele><time>2026-05-08T18:00:55.000Z</time></trkpt>
        <trkpt lat="29.78233" lon="103.456534"><ele>725.19995</ele><time>2026-05-08T18:01:02.000Z</time></trkpt>
        <trkpt lat="29.7823" lon="103.456483"><ele>727.08075</ele><time>2026-05-08T18:01:09.000Z</time></trkpt>
        <trkpt lat="29.782269" lon="103.456429"><ele>727.4266</ele><time>2026-05-08T18:01:17.000Z</time></trkpt>
        <trkpt lat="29.782244" lon="103.456385"><ele>728.60944</ele><time>2026-05-08T18:01:22.000Z</time></trkpt>
        <trkpt lat="29.782227" lon="103.456335"><ele>730.18097</ele><time>2026-05-08T18:01:30.000Z</time></trkpt>
        <trkpt lat="29.782208" lon="103.456288"><ele>731.18585</ele><time>2026-05-08T18:01:40.000Z</time></trkpt>
        <trkpt lat="29.78218" lon="103.456243"><ele>731.93555</ele><time>2026-05-08T18:01:50.000Z</time></trkpt>
        <trkpt lat="29.782153" lon="103.4562"><ele>736.42834</ele><time>2026-05-08T18:02:02.000Z</time></trkpt>
        <trkpt lat="29.782115" lon="103.456164"><ele>736.41064</ele><time>2026-05-08T18:02:11.000Z</time></trkpt>
        <trkpt lat="29.782069" lon="103.456141"><ele>737.2874</ele><time>2026-05-08T18:02:17.000Z</time></trkpt>
        <trkpt lat="29.782028" lon="103.456103"><ele>738.4338</ele><time>2026-05-08T18:02:28.000Z</time></trkpt>
        <trkpt lat="29.782018" lon="103.456049"><ele>740.5195</ele><time>2026-05-08T18:02:36.000Z</time></trkpt>
        <trkpt lat="29.781989" lon="103.456006"><ele>740.1662</ele><time>2026-05-08T18:02:42.000Z</time></trkpt>
        <trkpt lat="29.781949" lon="103.45598"><ele>739.93536</ele><time>2026-05-08T18:02:48.000Z</time></trkpt>
        <trkpt lat="29.781938" lon="103.455917"><ele>743.0747</ele><time>2026-05-08T18:02:59.000Z</time></trkpt>
        <trkpt lat="29.781901" lon="103.455886"><ele>742.25586</ele><time>2026-05-08T18:03:05.000Z</time></trkpt>
        <trkpt lat="29.781874" lon="103.455845"><ele>743.41046</ele><time>2026-05-08T18:03:11.000Z</time></trkpt>
        <trkpt lat="29.781881" lon="103.455793"><ele>747.04114</ele><time>2026-05-08T18:03:26.000Z</time></trkpt>
        <trkpt lat="29.781862" lon="103.455743"><ele>747.0112</ele><time>2026-05-08T18:03:35.000Z</time></trkpt>
        <trkpt lat="29.781867" lon="103.455683"><ele>749.06805</ele><time>2026-05-08T18:03:46.000Z</time></trkpt>
        <trkpt lat="29.781827" lon="103.455654"><ele>749.62805</ele><time>2026-05-08T18:03:52.000Z</time></trkpt>
        <trkpt lat="29.78179" lon="103.455619"><ele>750.586</ele><time>2026-05-08T18:04:02.000Z</time></trkpt>
        <trkpt lat="29.781799" lon="103.45556"><ele>751.03064</ele><time>2026-05-08T18:04:11.000Z</time></trkpt>
        <trkpt lat="29.781829" lon="103.455506"><ele>757.161</ele><time>2026-05-08T18:04:28.000Z</time></trkpt>
        <trkpt lat="29.781817" lon="103.455449"><ele>762.17267</ele><time>2026-05-08T18:04:43.000Z</time></trkpt>
        <trkpt lat="29.781813" lon="103.455397"><ele>764.4119</ele><time>2026-05-08T18:04:51.000Z</time></trkpt>
        <trkpt lat="29.781794" lon="103.455347"><ele>763.91644</ele><time>2026-05-08T18:04:58.000Z</time></trkpt>
        <trkpt lat="29.781787" lon="103.455293"><ele>764.417</ele><time>2026-05-08T18:05:03.000Z</time></trkpt>
        <trkpt lat="29.781801" lon="103.455235"><ele>766.04803</ele><time>2026-05-08T18:05:10.000Z</time></trkpt>
        <trkpt lat="29.781825" lon="103.455185"><ele>767.17303</ele><time>2026-05-08T18:05:18.000Z</time></trkpt>
        <trkpt lat="29.781829" lon="103.455122"><ele>768.0471</ele><time>2026-05-08T18:05:26.000Z</time></trkpt>
        <trkpt lat="29.781823" lon="103.455063"><ele>768.69604</ele><time>2026-05-08T18:05:36.000Z</time></trkpt>
        <trkpt lat="29.781834" lon="103.455011"><ele>772.093</ele><time>2026-05-08T18:05:46.000Z</time></trkpt>
        <trkpt lat="29.781846" lon="103.454959"><ele>775.1576</ele><time>2026-05-08T18:05:55.000Z</time></trkpt>
        <trkpt lat="29.781891" lon="103.454935"><ele>776.9241</ele><time>2026-05-08T18:06:10.000Z</time></trkpt>
        <trkpt lat="29.781884" lon="103.454882"><ele>780.5615</ele><time>2026-05-08T18:06:22.000Z</time></trkpt>
        <trkpt lat="29.781862" lon="103.454833"><ele>781.461</ele><time>2026-05-08T18:06:30.000Z</time></trkpt>
        <trkpt lat="29.781779" lon="103.454834"><ele>779.0275</ele><time>2026-05-08T18:06:46.000Z</time></trkpt>
        <trkpt lat="29.781817" lon="103.454771"><ele>776.60443</ele><time>2026-05-08T18:07:45.000Z</time></trkpt>
        <trkpt lat="29.781779" lon="103.454806"><ele>777.4405</ele><time>2026-05-08T18:08:14.000Z</time></trkpt>
        <trkpt lat="29.781817" lon="103.454836"><ele>773.40356</ele><time>2026-05-08T18:10:24.000Z</time></trkpt>
        <trkpt lat="29.78178" lon="103.454798"><ele>775.30383</ele><time>2026-05-08T18:10:48.000Z</time></trkpt>
        <trkpt lat="29.781732" lon="103.454784"><ele>780.2952</ele><time>2026-05-08T18:14:50.000Z</time></trkpt>
        <trkpt lat="29.781686" lon="103.45479"><ele>782.0619</ele><time>2026-05-08T18:15:00.000Z</time></trkpt>
        <trkpt lat="29.781647" lon="103.454747"><ele>784.2867</ele><time>2026-05-08T18:15:12.000Z</time></trkpt>
        <trkpt lat="29.781603" lon="103.454728"><ele>784.5272</ele><time>2026-05-08T18:15:19.000Z</time></trkpt>
        <trkpt lat="29.78156" lon="103.45471"><ele>786.7602</ele><time>2026-05-08T18:15:31.000Z</time></trkpt>
        <trkpt lat="29.781522" lon="103.454677"><ele>788.74677</ele><time>2026-05-08T18:15:44.000Z</time></trkpt>
        <trkpt lat="29.781492" lon="103.454629"><ele>790.1962</ele><time>2026-05-08T18:15:57.000Z</time></trkpt>
        <trkpt lat="29.781456" lon="103.454596"><ele>792.752</ele><time>2026-05-08T18:16:16.000Z</time></trkpt>
        <trkpt lat="29.781451" lon="103.45454"><ele>796.4947</ele><time>2026-05-08T18:16:36.000Z</time></trkpt>
        <trkpt lat="29.781405" lon="103.454534"><ele>797.6769</ele><time>2026-05-08T18:16:48.000Z</time></trkpt>
        <trkpt lat="29.78137" lon="103.454495"><ele>798.37946</ele><time>2026-05-08T18:16:57.000Z</time></trkpt>
        <trkpt lat="29.781356" lon="103.454439"><ele>801.7488</ele><time>2026-05-08T18:17:24.000Z</time></trkpt>
        <trkpt lat="29.781314" lon="103.454411"><ele>802.32513</ele><time>2026-05-08T18:17:34.000Z</time></trkpt>
        <trkpt lat="29.78133" lon="103.454359"><ele>807.63794</ele><time>2026-05-08T18:18:04.000Z</time></trkpt>
        <trkpt lat="29.781291" lon="103.454324"><ele>816.1391</ele><time>2026-05-08T18:18:27.000Z</time></trkpt>
        <trkpt lat="29.781255" lon="103.454286"><ele>816.10114</ele><time>2026-05-08T18:18:42.000Z</time></trkpt>
        <trkpt lat="29.781207" lon="103.454266"><ele>818.0312</ele><time>2026-05-08T18:19:01.000Z</time></trkpt>
        <trkpt lat="29.781186" lon="103.454216"><ele>820.2214</ele><time>2026-05-08T18:19:33.000Z</time></trkpt>
        <trkpt lat="29.781146" lon="103.454186"><ele>823.4578</ele><time>2026-05-08T18:20:14.000Z</time></trkpt>
        <trkpt lat="29.781101" lon="103.454175"><ele>824.2772</ele><time>2026-05-08T18:20:36.000Z</time></trkpt>
        <trkpt lat="29.781095" lon="103.454121"><ele>826.2179</ele><time>2026-05-08T18:21:38.000Z</time></trkpt>
        <trkpt lat="29.781059" lon="103.454081"><ele>827.9055</ele><time>2026-05-08T18:21:51.000Z</time></trkpt>
        <trkpt lat="29.781018" lon="103.454051"><ele>829.51276</ele><time>2026-05-08T18:22:07.000Z</time></trkpt>
        <trkpt lat="29.780975" lon="103.454035"><ele>831.1733</ele><time>2026-05-08T18:22:25.000Z</time></trkpt>
        <trkpt lat="29.780927" lon="103.454"><ele>833.4468</ele><time>2026-05-08T18:22:56.000Z</time></trkpt>
        <trkpt lat="29.780889" lon="103.453965"><ele>833.8486</ele><time>2026-05-08T18:23:02.000Z</time></trkpt>
        <trkpt lat="29.780845" lon="103.453928"><ele>834.89154</ele><time>2026-05-08T18:23:09.000Z</time></trkpt>
        <trkpt lat="29.780809" lon="103.453893"><ele>836.3886</ele><time>2026-05-08T18:23:18.000Z</time></trkpt>
        <trkpt lat="29.780766" lon="103.453874"><ele>837.84503</ele><time>2026-05-08T18:23:27.000Z</time></trkpt>
        <trkpt lat="29.780716" lon="103.453853"><ele>839.9814</ele><time>2026-05-08T18:23:34.000Z</time></trkpt>
        <trkpt lat="29.780673" lon="103.453835"><ele>842.2487</ele><time>2026-05-08T18:23:41.000Z</time></trkpt>
        <trkpt lat="29.780628" lon="103.453805"><ele>844.3737</ele><time>2026-05-08T18:23:48.000Z</time></trkpt>
        <trkpt lat="29.780582" lon="103.453793"><ele>845.3312</ele><time>2026-05-08T18:23:54.000Z</time></trkpt>
        <trkpt lat="29.780534" lon="103.453774"><ele>846.0285</ele><time>2026-05-08T18:24:01.000Z</time></trkpt>
        <trkpt lat="29.780489" lon="103.453752"><ele>845.6899</ele><time>2026-05-08T18:24:10.000Z</time></trkpt>
        <trkpt lat="29.780444" lon="103.45373"><ele>847.0333</ele><time>2026-05-08T18:24:17.000Z</time></trkpt>
        <trkpt lat="29.780399" lon="103.453719"><ele>848.30914</ele><time>2026-05-08T18:24:26.000Z</time></trkpt>
        <trkpt lat="29.780402" lon="103.453656"><ele>852.1024</ele><time>2026-05-08T18:24:55.000Z</time></trkpt>
        <trkpt lat="29.780388" lon="103.453605"><ele>853.2087</ele><time>2026-05-08T18:25:01.000Z</time></trkpt>
        <trkpt lat="29.780393" lon="103.453552"><ele>854.4989</ele><time>2026-05-08T18:25:10.000Z</time></trkpt>
        <trkpt lat="29.78036" lon="103.45351"><ele>854.5306</ele><time>2026-05-08T18:25:22.000Z</time></trkpt>
        <trkpt lat="29.780365" lon="103.453451"><ele>857.0871</ele><time>2026-05-08T18:25:33.000Z</time></trkpt>
        <trkpt lat="29.780386" lon="103.453401"><ele>858.8573</ele><time>2026-05-08T18:25:44.000Z</time></trkpt>
        <trkpt lat="29.780402" lon="103.453345"><ele>859.025</ele><time>2026-05-08T18:25:51.000Z</time></trkpt>
        <trkpt lat="29.780412" lon="103.453293"><ele>860.9933</ele><time>2026-05-08T18:26:03.000Z</time></trkpt>
        <trkpt lat="29.780414" lon="103.45323"><ele>862.22504</ele><time>2026-05-08T18:26:13.000Z</time></trkpt>
        <trkpt lat="29.780446" lon="103.453194"><ele>867.67694</ele><time>2026-05-08T18:26:30.000Z</time></trkpt>
        <trkpt lat="29.780468" lon="103.453145"><ele>866.95386</ele><time>2026-05-08T18:26:42.000Z</time></trkpt>
        <trkpt lat="29.780479" lon="103.453086"><ele>868.62964</ele><time>2026-05-08T18:26:54.000Z</time></trkpt>
        <trkpt lat="29.780515" lon="103.453048"><ele>869.7719</ele><time>2026-05-08T18:27:02.000Z</time></trkpt>
        <trkpt lat="29.780554" lon="103.453019"><ele>871.58466</ele><time>2026-05-08T18:27:09.000Z</time></trkpt>
        <trkpt lat="29.780599" lon="103.453013"><ele>874.3166</ele><time>2026-05-08T18:27:21.000Z</time></trkpt>
        <trkpt lat="29.780629" lon="103.45296"><ele>873.6853</ele><time>2026-05-08T18:27:28.000Z</time></trkpt>
        <trkpt lat="29.780678" lon="103.452938"><ele>876.0984</ele><time>2026-05-08T18:27:44.000Z</time></trkpt>
        <trkpt lat="29.780695" lon="103.452889"><ele>875.8107</ele><time>2026-05-08T18:27:51.000Z</time></trkpt>
        <trkpt lat="29.780736" lon="103.452866"><ele>879.71313</ele><time>2026-05-08T18:28:13.000Z</time></trkpt>
        <trkpt lat="29.78077" lon="103.452829"><ele>880.80646</ele><time>2026-05-08T18:28:28.000Z</time></trkpt>
        <trkpt lat="29.780818" lon="103.452808"><ele>881.56305</ele><time>2026-05-08T18:28:35.000Z</time></trkpt>
        <trkpt lat="29.78086" lon="103.452789"><ele>881.8808</ele><time>2026-05-08T18:28:42.000Z</time></trkpt>
        <trkpt lat="29.780907" lon="103.45278"><ele>884.50433</ele><time>2026-05-08T18:28:59.000Z</time></trkpt>
        <trkpt lat="29.78095" lon="103.452762"><ele>885.44434</ele><time>2026-05-08T18:29:08.000Z</time></trkpt>
        <trkpt lat="29.780977" lon="103.452721"><ele>886.55554</ele><time>2026-05-08T18:29:21.000Z</time></trkpt>
        <trkpt lat="29.781019" lon="103.452688"><ele>890.22504</ele><time>2026-05-08T18:29:39.000Z</time></trkpt>
        <trkpt lat="29.781049" lon="103.452644"><ele>891.43787</ele><time>2026-05-08T18:29:52.000Z</time></trkpt>
        <trkpt lat="29.781087" lon="103.452614"><ele>893.6231</ele><time>2026-05-08T18:30:09.000Z</time></trkpt>
        <trkpt lat="29.781115" lon="103.452568"><ele>893.66986</ele><time>2026-05-08T18:30:25.000Z</time></trkpt>
        <trkpt lat="29.781156" lon="103.452542"><ele>897.6131</ele><time>2026-05-08T18:30:49.000Z</time></trkpt>
        <trkpt lat="29.781205" lon="103.452519"><ele>901.3764</ele><time>2026-05-08T18:31:06.000Z</time></trkpt>
        <trkpt lat="29.781247" lon="103.452492"><ele>901.4544</ele><time>2026-05-08T18:31:15.000Z</time></trkpt>
        <trkpt lat="29.781292" lon="103.452465"><ele>902.0897</ele><time>2026-05-08T18:31:28.000Z</time></trkpt>
        <trkpt lat="29.781327" lon="103.452427"><ele>902.7901</ele><time>2026-05-08T18:31:37.000Z</time></trkpt>
        <trkpt lat="29.781355" lon="103.45238"><ele>902.2622</ele><time>2026-05-08T18:31:46.000Z</time></trkpt>
        <trkpt lat="29.781357" lon="103.452326"><ele>902.8514</ele><time>2026-05-08T18:31:51.000Z</time></trkpt>
        <trkpt lat="29.78135" lon="103.452275"><ele>901.847</ele><time>2026-05-08T18:31:57.000Z</time></trkpt>
        <trkpt lat="29.781309" lon="103.452298"><ele>901.3514</ele><time>2026-05-08T18:32:10.000Z</time></trkpt>
        <trkpt lat="29.78134" lon="103.452343"><ele>900.56506</ele><time>2026-05-08T18:35:44.000Z</time></trkpt>
        <trkpt lat="29.781331" lon="103.452398"><ele>902.0896</ele><time>2026-05-08T18:36:09.000Z</time></trkpt>
        <trkpt lat="29.781366" lon="103.452362"><ele>902.5952</ele><time>2026-05-08T18:36:16.000Z</time></trkpt>
        <trkpt lat="29.781344" lon="103.452315"><ele>902.73114</ele><time>2026-05-08T18:36:22.000Z</time></trkpt>
        <trkpt lat="29.781366" lon="103.452363"><ele>902.4193</ele><time>2026-05-08T18:38:00.000Z</time></trkpt>
        <trkpt lat="29.781411" lon="103.452347"><ele>900.0128</ele><time>2026-05-08T18:40:26.000Z</time></trkpt>
        <trkpt lat="29.781414" lon="103.452291"><ele>899.9299</ele><time>2026-05-08T18:45:25.000Z</time></trkpt>
        <trkpt lat="29.781388" lon="103.452241"><ele>901.87195</ele><time>2026-05-08T18:45:55.000Z</time></trkpt>
        <trkpt lat="29.781363" lon="103.452188"><ele>901.53064</ele><time>2026-05-08T18:46:00.000Z</time></trkpt>
        <trkpt lat="29.781325" lon="103.452157"><ele>901.9818</ele><time>2026-05-08T18:46:05.000Z</time></trkpt>
        <trkpt lat="29.78129" lon="103.452122"><ele>900.4624</ele><time>2026-05-08T18:46:11.000Z</time></trkpt>
        <trkpt lat="29.781248" lon="103.452098"><ele>900.3627</ele><time>2026-05-08T18:46:17.000Z</time></trkpt>
        <trkpt lat="29.781205" lon="103.452066"><ele>900.655</ele><time>2026-05-08T18:46:23.000Z</time></trkpt>
        <trkpt lat="29.781172" lon="103.452025"><ele>899.63727</ele><time>2026-05-08T18:46:35.000Z</time></trkpt>
        <trkpt lat="29.781132" lon="103.451997"><ele>898.64844</ele><time>2026-05-08T18:46:40.000Z</time></trkpt>
        <trkpt lat="29.781091" lon="103.451977"><ele>897.88074</ele><time>2026-05-08T18:46:45.000Z</time></trkpt>
        <trkpt lat="29.781045" lon="103.451964"><ele>897.7069</ele><time>2026-05-08T18:46:49.000Z</time></trkpt>
        <trkpt lat="29.780987" lon="103.451949"><ele>897.6315</ele><time>2026-05-08T18:46:54.000Z</time></trkpt>
        <trkpt lat="29.780945" lon="103.45192"><ele>896.9968</ele><time>2026-05-08T18:46:58.000Z</time></trkpt>
        <trkpt lat="29.780936" lon="103.451866"><ele>897.64606</ele><time>2026-05-08T18:47:02.000Z</time></trkpt>
        <trkpt lat="29.780959" lon="103.45182"><ele>897.79865</ele><time>2026-05-08T18:47:06.000Z</time></trkpt>
        <trkpt lat="29.781001" lon="103.451785"><ele>897.28534</ele><time>2026-05-08T18:47:09.000Z</time></trkpt>
        <trkpt lat="29.781048" lon="103.451773"><ele>896.50116</ele><time>2026-05-08T18:47:13.000Z</time></trkpt>
        <trkpt lat="29.781092" lon="103.451737"><ele>894.74225</ele><time>2026-05-08T18:47:18.000Z</time></trkpt>
        <trkpt lat="29.781133" lon="103.451706"><ele>894.08215</ele><time>2026-05-08T18:47:22.000Z</time></trkpt>
        <trkpt lat="29.781158" lon="103.451661"><ele>893.63446</ele><time>2026-05-08T18:47:26.000Z</time></trkpt>
        <trkpt lat="29.781196" lon="103.451615"><ele>893.2703</ele><time>2026-05-08T18:47:31.000Z</time></trkpt>
        <trkpt lat="29.781217" lon="103.451565"><ele>893.0695</ele><time>2026-05-08T18:47:35.000Z</time></trkpt>
        <trkpt lat="29.781252" lon="103.451521"><ele>892.62506</ele><time>2026-05-08T18:47:40.000Z</time></trkpt>
        <trkpt lat="29.781284" lon="103.451482"><ele>891.0998</ele><time>2026-05-08T18:47:44.000Z</time></trkpt>
        <trkpt lat="29.781297" lon="103.45143"><ele>889.9895</ele><time>2026-05-08T18:47:49.000Z</time></trkpt>
        <trkpt lat="29.781307" lon="103.45137"><ele>890.50793</ele><time>2026-05-08T18:47:54.000Z</time></trkpt>
        <trkpt lat="29.781304" lon="103.451311"><ele>890.43713</ele><time>2026-05-08T18:47:59.000Z</time></trkpt>
        <trkpt lat="29.781301" lon="103.451252"><ele>889.16156</ele><time>2026-05-08T18:48:04.000Z</time></trkpt>
        <trkpt lat="29.781268" lon="103.451217"><ele>888.0117</ele><time>2026-05-08T18:48:11.000Z</time></trkpt>
        <trkpt lat="29.781228" lon="103.451191"><ele>887.45764</ele><time>2026-05-08T18:48:15.000Z</time></trkpt>
        <trkpt lat="29.781184" lon="103.451175"><ele>887.1023</ele><time>2026-05-08T18:48:19.000Z</time></trkpt>
        <trkpt lat="29.781135" lon="103.451174"><ele>887.0181</ele><time>2026-05-08T18:48:23.000Z</time></trkpt>
        <trkpt lat="29.78108" lon="103.451187"><ele>886.34296</ele><time>2026-05-08T18:48:27.000Z</time></trkpt>
        <trkpt lat="29.781033" lon="103.451208"><ele>886.5253</ele><time>2026-05-08T18:48:32.000Z</time></trkpt>
        <trkpt lat="29.78098" lon="103.451216"><ele>886.7245</ele><time>2026-05-08T18:48:37.000Z</time></trkpt>
        <trkpt lat="29.780932" lon="103.451195"><ele>886.4953</ele><time>2026-05-08T18:48:41.000Z</time></trkpt>
        <trkpt lat="29.780903" lon="103.45115"><ele>886.36383</ele><time>2026-05-08T18:48:45.000Z</time></trkpt>
        <trkpt lat="29.780879" lon="103.451096"><ele>887.7557</ele><time>2026-05-08T18:48:48.000Z</time></trkpt>
        <trkpt lat="29.780875" lon="103.451035"><ele>888.805</ele><time>2026-05-08T18:48:51.000Z</time></trkpt>
        <trkpt lat="29.780879" lon="103.450982"><ele>889.51764</ele><time>2026-05-08T18:48:54.000Z</time></trkpt>
        <trkpt lat="29.780917" lon="103.450937"><ele>889.48193</ele><time>2026-05-08T18:48:58.000Z</time></trkpt>
        <trkpt lat="29.780952" lon="103.450904"><ele>888.8649</ele><time>2026-05-08T18:49:02.000Z</time></trkpt>
        <trkpt lat="29.780989" lon="103.45085"><ele>887.3422</ele><time>2026-05-08T18:49:06.000Z</time></trkpt>
        <trkpt lat="29.781013" lon="103.450804"><ele>886.663</ele><time>2026-05-08T18:49:09.000Z</time></trkpt>
        <trkpt lat="29.781031" lon="103.450753"><ele>887.6587</ele><time>2026-05-08T18:49:12.000Z</time></trkpt>
        <trkpt lat="29.781057" lon="103.450691"><ele>888.6819</ele><time>2026-05-08T18:49:16.000Z</time></trkpt>
        <trkpt lat="29.781075" lon="103.450643"><ele>889.9879</ele><time>2026-05-08T18:49:20.000Z</time></trkpt>
        <trkpt lat="29.781109" lon="103.450606"><ele>890.8449</ele><time>2026-05-08T18:49:24.000Z</time></trkpt>
        <trkpt lat="29.781154" lon="103.450564"><ele>891.2673</ele><time>2026-05-08T18:49:29.000Z</time></trkpt>
        <trkpt lat="29.781195" lon="103.450521"><ele>890.69275</ele><time>2026-05-08T18:49:34.000Z</time></trkpt>
        <trkpt lat="29.781228" lon="103.450484"><ele>889.55096</ele><time>2026-05-08T18:49:38.000Z</time></trkpt>
        <trkpt lat="29.781272" lon="103.450469"><ele>888.3601</ele><time>2026-05-08T18:49:41.000Z</time></trkpt>
        <trkpt lat="29.781308" lon="103.450434"><ele>887.3725</ele><time>2026-05-08T18:49:45.000Z</time></trkpt>
        <trkpt lat="29.781358" lon="103.450422"><ele>886.551</ele><time>2026-05-08T18:49:49.000Z</time></trkpt>
        <trkpt lat="29.78141" lon="103.450399"><ele>885.29095</ele><time>2026-05-08T18:49:54.000Z</time></trkpt>
        <trkpt lat="29.781451" lon="103.450377"><ele>884.0721</ele><time>2026-05-08T18:49:58.000Z</time></trkpt>
        <trkpt lat="29.781488" lon="103.450345"><ele>882.9887</ele><time>2026-05-08T18:50:03.000Z</time></trkpt>
        <trkpt lat="29.781533" lon="103.450304"><ele>881.78827</ele><time>2026-05-08T18:50:08.000Z</time></trkpt>
        <trkpt lat="29.781568" lon="103.450267"><ele>881.3758</ele><time>2026-05-08T18:50:13.000Z</time></trkpt>
        <trkpt lat="29.781604" lon="103.450231"><ele>879.9086</ele><time>2026-05-08T18:50:18.000Z</time></trkpt>
        <trkpt lat="29.781639" lon="103.45019"><ele>878.56537</ele><time>2026-05-08T18:50:23.000Z</time></trkpt>
        <trkpt lat="29.781669" lon="103.450138"><ele>878.60223</ele><time>2026-05-08T18:50:28.000Z</time></trkpt>
        <trkpt lat="29.781707" lon="103.450087"><ele>877.8875</ele><time>2026-05-08T18:50:34.000Z</time></trkpt>
        <trkpt lat="29.781753" lon="103.450052"><ele>877.36755</ele><time>2026-05-08T18:50:40.000Z</time></trkpt>
        <trkpt lat="29.781779" lon="103.450006"><ele>876.93585</ele><time>2026-05-08T18:50:44.000Z</time></trkpt>
        <trkpt lat="29.78182" lon="103.449972"><ele>876.63617</ele><time>2026-05-08T18:50:49.000Z</time></trkpt>
        <trkpt lat="29.781864" lon="103.449929"><ele>876.4467</ele><time>2026-05-08T18:50:54.000Z</time></trkpt>
        <trkpt lat="29.781902" lon="103.449901"><ele>876.19525</ele><time>2026-05-08T18:50:59.000Z</time></trkpt>
        <trkpt lat="29.781924" lon="103.449844"><ele>875.9313</ele><time>2026-05-08T18:51:05.000Z</time></trkpt>
        <trkpt lat="29.781907" lon="103.449787"><ele>876.0772</ele><time>2026-05-08T18:51:10.000Z</time></trkpt>
        <trkpt lat="29.781879" lon="103.449735"><ele>875.414</ele><time>2026-05-08T18:51:15.000Z</time></trkpt>
        <trkpt lat="29.781844" lon="103.449691"><ele>874.44403</ele><time>2026-05-08T18:51:21.000Z</time></trkpt>
        <trkpt lat="29.781795" lon="103.449677"><ele>872.68146</ele><time>2026-05-08T18:51:26.000Z</time></trkpt>
        <trkpt lat="29.781748" lon="103.449695"><ele>871.8887</ele><time>2026-05-08T18:51:31.000Z</time></trkpt>
        <trkpt lat="29.781701" lon="103.449701"><ele>870.78217</ele><time>2026-05-08T18:51:36.000Z</time></trkpt>
        <trkpt lat="29.781651" lon="103.449714"><ele>870.9106</ele><time>2026-05-08T18:51:41.000Z</time></trkpt>
        <trkpt lat="29.781598" lon="103.449731"><ele>870.48096</ele><time>2026-05-08T18:51:47.000Z</time></trkpt>
        <trkpt lat="29.781547" lon="103.449745"><ele>870.01825</ele><time>2026-05-08T18:51:52.000Z</time></trkpt>
        <trkpt lat="29.781497" lon="103.449754"><ele>869.74133</ele><time>2026-05-08T18:51:58.000Z</time></trkpt>
        <trkpt lat="29.781446" lon="103.449747"><ele>869.5254</ele><time>2026-05-08T18:52:02.000Z</time></trkpt>
        <trkpt lat="29.781398" lon="103.44976"><ele>868.99194</ele><time>2026-05-08T18:52:06.000Z</time></trkpt>
        <trkpt lat="29.781348" lon="103.449789"><ele>869.7085</ele><time>2026-05-08T18:52:12.000Z</time></trkpt>
        <trkpt lat="29.781297" lon="103.449796"><ele>870.29944</ele><time>2026-05-08T18:52:17.000Z</time></trkpt>
        <trkpt lat="29.781243" lon="103.449793"><ele>869.82294</ele><time>2026-05-08T18:52:22.000Z</time></trkpt>
        <trkpt lat="29.78119" lon="103.449778"><ele>869.26495</ele><time>2026-05-08T18:52:27.000Z</time></trkpt>
        <trkpt lat="29.781143" lon="103.449759"><ele>869.36304</ele><time>2026-05-08T18:52:31.000Z</time></trkpt>
        <trkpt lat="29.78109" lon="103.449739"><ele>869.8288</ele><time>2026-05-08T18:52:36.000Z</time></trkpt>
        <trkpt lat="29.781042" lon="103.449739"><ele>869.1354</ele><time>2026-05-08T18:52:41.000Z</time></trkpt>
        <trkpt lat="29.780991" lon="103.449746"><ele>868.9143</ele><time>2026-05-08T18:52:46.000Z</time></trkpt>
        <trkpt lat="29.780957" lon="103.449706"><ele>869.1607</ele><time>2026-05-08T18:52:51.000Z</time></trkpt>
        <trkpt lat="29.780937" lon="103.449653"><ele>869.8727</ele><time>2026-05-08T18:52:56.000Z</time></trkpt>
        <trkpt lat="29.780949" lon="103.449587"><ele>869.5901</ele><time>2026-05-08T18:53:02.000Z</time></trkpt>
        <trkpt lat="29.780962" lon="103.449532"><ele>870.4915</ele><time>2026-05-08T18:53:06.000Z</time></trkpt>
        <trkpt lat="29.781005" lon="103.449495"><ele>871.03253</ele><time>2026-05-08T18:53:12.000Z</time></trkpt>
        <trkpt lat="29.781051" lon="103.449497"><ele>870.34314</ele><time>2026-05-08T18:53:16.000Z</time></trkpt>
        <trkpt lat="29.781102" lon="103.449489"><ele>869.83466</ele><time>2026-05-08T18:53:21.000Z</time></trkpt>
        <trkpt lat="29.781159" lon="103.449468"><ele>869.2521</ele><time>2026-05-08T18:53:26.000Z</time></trkpt>
        <trkpt lat="29.781197" lon="103.449433"><ele>868.9269</ele><time>2026-05-08T18:53:30.000Z</time></trkpt>
        <trkpt lat="29.781244" lon="103.449396"><ele>869.15173</ele><time>2026-05-08T18:53:35.000Z</time></trkpt>
        <trkpt lat="29.781295" lon="103.449379"><ele>869.3187</ele><time>2026-05-08T18:53:39.000Z</time></trkpt>
        <trkpt lat="29.781349" lon="103.449349"><ele>870.0514</ele><time>2026-05-08T18:53:44.000Z</time></trkpt>
        <trkpt lat="29.781381" lon="103.449311"><ele>868.8953</ele><time>2026-05-08T18:53:48.000Z</time></trkpt>
        <trkpt lat="29.781423" lon="103.449277"><ele>868.8294</ele><time>2026-05-08T18:53:52.000Z</time></trkpt>
        <trkpt lat="29.781476" lon="103.449231"><ele>869.2591</ele><time>2026-05-08T18:53:57.000Z</time></trkpt>
        <trkpt lat="29.781516" lon="103.449197"><ele>870.64886</ele><time>2026-05-08T18:54:02.000Z</time></trkpt>
        <trkpt lat="29.781559" lon="103.449175"><ele>870.1516</ele><time>2026-05-08T18:54:05.000Z</time></trkpt>
        <trkpt lat="29.781607" lon="103.449151"><ele>868.9855</ele><time>2026-05-08T18:54:10.000Z</time></trkpt>
        <trkpt lat="29.781654" lon="103.449134"><ele>868.0017</ele><time>2026-05-08T18:54:13.000Z</time></trkpt>
        <trkpt lat="29.781705" lon="103.449119"><ele>867.3104</ele><time>2026-05-08T18:54:18.000Z</time></trkpt>
        <trkpt lat="29.78176" lon="103.449115"><ele>866.5282</ele><time>2026-05-08T18:54:23.000Z</time></trkpt>
        <trkpt lat="29.781807" lon="103.44909"><ele>865.8992</ele><time>2026-05-08T18:54:27.000Z</time></trkpt>
        <trkpt lat="29.78185" lon="103.449045"><ele>865.2205</ele><time>2026-05-08T18:54:32.000Z</time></trkpt>
        <trkpt lat="29.78186" lon="103.448987"><ele>863.9498</ele><time>2026-05-08T18:54:36.000Z</time></trkpt>
        <trkpt lat="29.781853" lon="103.448929"><ele>864.48334</ele><time>2026-05-08T18:54:40.000Z</time></trkpt>
        <trkpt lat="29.781845" lon="103.448875"><ele>863.9358</ele><time>2026-05-08T18:54:44.000Z</time></trkpt>
        <trkpt lat="29.781815" lon="103.44883"><ele>863.5274</ele><time>2026-05-08T18:54:48.000Z</time></trkpt>
        <trkpt lat="29.781793" lon="103.448773"><ele>862.9895</ele><time>2026-05-08T18:54:54.000Z</time></trkpt>
        <trkpt lat="29.781755" lon="103.448726"><ele>862.3032</ele><time>2026-05-08T18:54:59.000Z</time></trkpt>
        <trkpt lat="29.781726" lon="103.448686"><ele>862.4786</ele><time>2026-05-08T18:55:03.000Z</time></trkpt>
        <trkpt lat="29.781698" lon="103.44864"><ele>861.8867</ele><time>2026-05-08T18:55:08.000Z</time></trkpt>
        <trkpt lat="29.781676" lon="103.448586"><ele>860.61584</ele><time>2026-05-08T18:55:13.000Z</time></trkpt>
        <trkpt lat="29.781671" lon="103.448534"><ele>858.6155</ele><time>2026-05-08T18:55:17.000Z</time></trkpt>
        <trkpt lat="29.781671" lon="103.448476"><ele>858.0983</ele><time>2026-05-08T18:55:21.000Z</time></trkpt>
        <trkpt lat="29.78168" lon="103.448424"><ele>855.88074</ele><time>2026-05-08T18:55:25.000Z</time></trkpt>
        <trkpt lat="29.781694" lon="103.448367"><ele>854.5329</ele><time>2026-05-08T18:55:29.000Z</time></trkpt>
        <trkpt lat="29.781707" lon="103.448316"><ele>854.6049</ele><time>2026-05-08T18:55:33.000Z</time></trkpt>
        <trkpt lat="29.781717" lon="103.448258"><ele>855.1771</ele><time>2026-05-08T18:55:37.000Z</time></trkpt>
        <trkpt lat="29.781732" lon="103.448202"><ele>854.8082</ele><time>2026-05-08T18:55:41.000Z</time></trkpt>
        <trkpt lat="29.781754" lon="103.448154"><ele>854.50323</ele><time>2026-05-08T18:55:45.000Z</time></trkpt>
        <trkpt lat="29.781783" lon="103.448111"><ele>854.77783</ele><time>2026-05-08T18:55:48.000Z</time></trkpt>
        <trkpt lat="29.781809" lon="103.448063"><ele>855.1158</ele><time>2026-05-08T18:55:52.000Z</time></trkpt>
        <trkpt lat="29.781848" lon="103.44802"><ele>854.9993</ele><time>2026-05-08T18:55:57.000Z</time></trkpt>
        <trkpt lat="29.78186" lon="103.447963"><ele>854.1894</ele><time>2026-05-08T18:56:02.000Z</time></trkpt>
        <trkpt lat="29.78185" lon="103.447906"><ele>852.2555</ele><time>2026-05-08T18:56:06.000Z</time></trkpt>
        <trkpt lat="29.781836" lon="103.447853"><ele>852.34735</ele><time>2026-05-08T18:56:10.000Z</time></trkpt>
        <trkpt lat="29.781814" lon="103.447797"><ele>851.7236</ele><time>2026-05-08T18:56:14.000Z</time></trkpt>
        <trkpt lat="29.781799" lon="103.447738"><ele>851.4902</ele><time>2026-05-08T18:56:18.000Z</time></trkpt>
        <trkpt lat="29.781792" lon="103.447682"><ele>851.425</ele><time>2026-05-08T18:56:22.000Z</time></trkpt>
        <trkpt lat="29.781803" lon="103.447626"><ele>850.826</ele><time>2026-05-08T18:56:26.000Z</time></trkpt>
        <trkpt lat="29.781811" lon="103.447573"><ele>850.5097</ele><time>2026-05-08T18:56:30.000Z</time></trkpt>
        <trkpt lat="29.781817" lon="103.447516"><ele>849.502</ele><time>2026-05-08T18:56:34.000Z</time></trkpt>
        <trkpt lat="29.781832" lon="103.447458"><ele>848.8934</ele><time>2026-05-08T18:56:38.000Z</time></trkpt>
        <trkpt lat="29.781835" lon="103.4474"><ele>848.3535</ele><time>2026-05-08T18:56:42.000Z</time></trkpt>
        <trkpt lat="29.78183" lon="103.447345"><ele>847.371</ele><time>2026-05-08T18:56:47.000Z</time></trkpt>
        <trkpt lat="29.781827" lon="103.447285"><ele>847.5436</ele><time>2026-05-08T18:56:52.000Z</time></trkpt>
        <trkpt lat="29.78179" lon="103.447248"><ele>846.9907</ele><time>2026-05-08T18:56:57.000Z</time></trkpt>
        <trkpt lat="29.781758" lon="103.447197"><ele>846.66644</ele><time>2026-05-08T18:57:02.000Z</time></trkpt>
        <trkpt lat="29.781727" lon="103.447149"><ele>846.1869</ele><time>2026-05-08T18:57:07.000Z</time></trkpt>
        <trkpt lat="29.78171" lon="103.447098"><ele>846.022</ele><time>2026-05-08T18:57:11.000Z</time></trkpt>
        <trkpt lat="29.781689" lon="103.447047"><ele>845.7944</ele><time>2026-05-08T18:57:15.000Z</time></trkpt>
        <trkpt lat="29.781676" lon="103.446987"><ele>845.4457</ele><time>2026-05-08T18:57:19.000Z</time></trkpt>
        <trkpt lat="29.781653" lon="103.446934"><ele>845.6127</ele><time>2026-05-08T18:57:23.000Z</time></trkpt>
        <trkpt lat="29.781664" lon="103.446881"><ele>845.2531</ele><time>2026-05-08T18:57:41.000Z</time></trkpt>
        <trkpt lat="29.7817" lon="103.446836"><ele>844.6594</ele><time>2026-05-08T18:57:45.000Z</time></trkpt>
        <trkpt lat="29.781748" lon="103.446823"><ele>843.10077</ele><time>2026-05-08T18:57:49.000Z</time></trkpt>
        <trkpt lat="29.781803" lon="103.44681"><ele>842.2981</ele><time>2026-05-08T18:57:52.000Z</time></trkpt>
        <trkpt lat="29.781854" lon="103.446792"><ele>841.8042</ele><time>2026-05-08T18:57:56.000Z</time></trkpt>
        <trkpt lat="29.78186" lon="103.446731"><ele>839.2624</ele><time>2026-05-08T18:58:22.000Z</time></trkpt>
        <trkpt lat="29.781885" lon="103.446687"><ele>838.52655</ele><time>2026-05-08T18:58:30.000Z</time></trkpt>
        <trkpt lat="29.781886" lon="103.446633"><ele>836.04126</ele><time>2026-05-08T18:58:41.000Z</time></trkpt>
        <trkpt lat="29.781881" lon="103.44658"><ele>832.9423</ele><time>2026-05-08T18:58:54.000Z</time></trkpt>
        <trkpt lat="29.78187" lon="103.446527"><ele>831.2956</ele><time>2026-05-08T18:59:03.000Z</time></trkpt>
        <trkpt lat="29.781851" lon="103.44648"><ele>828.78296</ele><time>2026-05-08T18:59:12.000Z</time></trkpt>
        <trkpt lat="29.781819" lon="103.446443"><ele>827.72546</ele><time>2026-05-08T18:59:23.000Z</time></trkpt>
        <trkpt lat="29.781796" lon="103.446397"><ele>826.1639</ele><time>2026-05-08T18:59:32.000Z</time></trkpt>
        <trkpt lat="29.781784" lon="103.446341"><ele>824.5365</ele><time>2026-05-08T18:59:40.000Z</time></trkpt>
        <trkpt lat="29.781785" lon="103.446289"><ele>823.1231</ele><time>2026-05-08T18:59:52.000Z</time></trkpt>
        <trkpt lat="29.781757" lon="103.44624"><ele>823.0449</ele><time>2026-05-08T18:59:58.000Z</time></trkpt>
        <trkpt lat="29.781723" lon="103.446205"><ele>822.1029</ele><time>2026-05-08T19:00:04.000Z</time></trkpt>
        <trkpt lat="29.78169" lon="103.446161"><ele>821.5994</ele><time>2026-05-08T19:00:12.000Z</time></trkpt>
        <trkpt lat="29.781639" lon="103.446143"><ele>820.397</ele><time>2026-05-08T19:00:19.000Z</time></trkpt>
        <trkpt lat="29.781595" lon="103.446129"><ele>819.7326</ele><time>2026-05-08T19:00:27.000Z</time></trkpt>
        <trkpt lat="29.781546" lon="103.44613"><ele>819.9008</ele><time>2026-05-08T19:00:33.000Z</time></trkpt>
        <trkpt lat="29.781495" lon="103.446137"><ele>819.33997</ele><time>2026-05-08T19:00:41.000Z</time></trkpt>
        <trkpt lat="29.781444" lon="103.44614"><ele>817.1184</ele><time>2026-05-08T19:00:52.000Z</time></trkpt>
        <trkpt lat="29.781397" lon="103.446127"><ele>817.9823</ele><time>2026-05-08T19:01:01.000Z</time></trkpt>
        <trkpt lat="29.781356" lon="103.446099"><ele>815.18353</ele><time>2026-05-08T19:01:14.000Z</time></trkpt>
        <trkpt lat="29.781324" lon="103.446056"><ele>812.31915</ele><time>2026-05-08T19:01:22.000Z</time></trkpt>
        <trkpt lat="29.781286" lon="103.446022"><ele>810.2945</ele><time>2026-05-08T19:01:31.000Z</time></trkpt>
        <trkpt lat="29.781236" lon="103.44602"><ele>809.39075</ele><time>2026-05-08T19:01:44.000Z</time></trkpt>
        <trkpt lat="29.781195" lon="103.44599"><ele>809.2474</ele><time>2026-05-08T19:01:51.000Z</time></trkpt>
        <trkpt lat="29.781148" lon="103.44597"><ele>808.51764</ele><time>2026-05-08T19:02:00.000Z</time></trkpt>
        <trkpt lat="29.78113" lon="103.445912"><ele>806.77106</ele><time>2026-05-08T19:02:08.000Z</time></trkpt>
        <trkpt lat="29.781082" lon="103.445915"><ele>806.77313</ele><time>2026-05-08T19:02:15.000Z</time></trkpt>
        <trkpt lat="29.781032" lon="103.445907"><ele>806.5676</ele><time>2026-05-08T19:02:22.000Z</time></trkpt>
        <trkpt lat="29.780986" lon="103.445899"><ele>804.7414</ele><time>2026-05-08T19:02:28.000Z</time></trkpt>
        <trkpt lat="29.780951" lon="103.445859"><ele>799.70795</ele><time>2026-05-08T19:03:06.000Z</time></trkpt>
        <trkpt lat="29.780916" lon="103.445816"><ele>798.6259</ele><time>2026-05-08T19:03:12.000Z</time></trkpt>
        <trkpt lat="29.780866" lon="103.445798"><ele>797.2405</ele><time>2026-05-08T19:03:19.000Z</time></trkpt>
        <trkpt lat="29.780822" lon="103.445774"><ele>796.28937</ele><time>2026-05-08T19:03:26.000Z</time></trkpt>
        <trkpt lat="29.780775" lon="103.445745"><ele>794.2434</ele><time>2026-05-08T19:03:33.000Z</time></trkpt>
        <trkpt lat="29.780738" lon="103.445713"><ele>790.4838</ele><time>2026-05-08T19:03:42.000Z</time></trkpt>
        <trkpt lat="29.780695" lon="103.445682"><ele>788.8435</ele><time>2026-05-08T19:03:53.000Z</time></trkpt>
        <trkpt lat="29.780647" lon="103.445669"><ele>789.33344</ele><time>2026-05-08T19:04:12.000Z</time></trkpt>
        <trkpt lat="29.780592" lon="103.445664"><ele>789.38495</ele><time>2026-05-08T19:04:18.000Z</time></trkpt>
        <trkpt lat="29.780553" lon="103.445632"><ele>789.2698</ele><time>2026-05-08T19:04:23.000Z</time></trkpt>
        <trkpt lat="29.780507" lon="103.44559"><ele>789.4396</ele><time>2026-05-08T19:04:28.000Z</time></trkpt>
        <trkpt lat="29.780461" lon="103.445572"><ele>789.44434</ele><time>2026-05-08T19:04:32.000Z</time></trkpt>
        <trkpt lat="29.780413" lon="103.445575"><ele>790.05023</ele><time>2026-05-08T19:04:37.000Z</time></trkpt>
        <trkpt lat="29.780363" lon="103.44557"><ele>790.4776</ele><time>2026-05-08T19:04:42.000Z</time></trkpt>
        <trkpt lat="29.780321" lon="103.445551"><ele>790.4788</ele><time>2026-05-08T19:04:46.000Z</time></trkpt>
        <trkpt lat="29.78027" lon="103.445535"><ele>790.6201</ele><time>2026-05-08T19:04:51.000Z</time></trkpt>
        <trkpt lat="29.780226" lon="103.44555"><ele>790.7035</ele><time>2026-05-08T19:04:57.000Z</time></trkpt>
        <trkpt lat="29.780185" lon="103.445586"><ele>790.9876</ele><time>2026-05-08T19:05:02.000Z</time></trkpt>
        <trkpt lat="29.780131" lon="103.445589"><ele>791.7553</ele><time>2026-05-08T19:05:07.000Z</time></trkpt>
        <trkpt lat="29.780082" lon="103.445561"><ele>791.1298</ele><time>2026-05-08T19:05:12.000Z</time></trkpt>
        <trkpt lat="29.780039" lon="103.445527"><ele>790.2574</ele><time>2026-05-08T19:05:17.000Z</time></trkpt>
        <trkpt lat="29.779993" lon="103.445494"><ele>789.6648</ele><time>2026-05-08T19:05:23.000Z</time></trkpt>
        <trkpt lat="29.779955" lon="103.445462"><ele>788.60504</ele><time>2026-05-08T19:05:27.000Z</time></trkpt>
        <trkpt lat="29.779915" lon="103.44543"><ele>789.02106</ele><time>2026-05-08T19:05:32.000Z</time></trkpt>
        <trkpt lat="29.77988" lon="103.445393"><ele>789.08264</ele><time>2026-05-08T19:05:36.000Z</time></trkpt>
        <trkpt lat="29.779839" lon="103.445356"><ele>789.9202</ele><time>2026-05-08T19:05:40.000Z</time></trkpt>
        <trkpt lat="29.779805" lon="103.445319"><ele>789.85297</ele><time>2026-05-08T19:05:44.000Z</time></trkpt>
        <trkpt lat="29.779766" lon="103.445286"><ele>789.8545</ele><time>2026-05-08T19:05:49.000Z</time></trkpt>
        <trkpt lat="29.779726" lon="103.445249"><ele>790.6458</ele><time>2026-05-08T19:05:54.000Z</time></trkpt>
        <trkpt lat="29.779671" lon="103.445242"><ele>790.58496</ele><time>2026-05-08T19:05:59.000Z</time></trkpt>
        <trkpt lat="29.779636" lon="103.445205"><ele>790.97437</ele><time>2026-05-08T19:06:03.000Z</time></trkpt>
        <trkpt lat="29.779595" lon="103.445169"><ele>791.1027</ele><time>2026-05-08T19:06:07.000Z</time></trkpt>
        <trkpt lat="29.779566" lon="103.445119"><ele>790.4558</ele><time>2026-05-08T19:06:11.000Z</time></trkpt>
        <trkpt lat="29.779525" lon="103.445084"><ele>789.8331</ele><time>2026-05-08T19:06:16.000Z</time></trkpt>
        <trkpt lat="29.77949" lon="103.445051"><ele>790.1839</ele><time>2026-05-08T19:06:20.000Z</time></trkpt>
        <trkpt lat="29.779443" lon="103.445021"><ele>790.63367</ele><time>2026-05-08T19:06:25.000Z</time></trkpt>
        <trkpt lat="29.779398" lon="103.444986"><ele>790.7223</ele><time>2026-05-08T19:06:30.000Z</time></trkpt>
        <trkpt lat="29.779363" lon="103.444935"><ele>791.18304</ele><time>2026-05-08T19:06:35.000Z</time></trkpt>
        <trkpt lat="29.779361" lon="103.444882"><ele>792.27344</ele><time>2026-05-08T19:06:51.000Z</time></trkpt>
        <trkpt lat="29.779393" lon="103.444827"><ele>791.10815</ele><time>2026-05-08T19:06:59.000Z</time></trkpt>
        <trkpt lat="29.779431" lon="103.444797"><ele>790.1609</ele><time>2026-05-08T19:07:03.000Z</time></trkpt>
        <trkpt lat="29.779471" lon="103.444773"><ele>789.8534</ele><time>2026-05-08T19:07:08.000Z</time></trkpt>
        <trkpt lat="29.779535" lon="103.444776"><ele>792.21747</ele><time>2026-05-08T19:07:49.000Z</time></trkpt>
        <trkpt lat="29.779578" lon="103.444746"><ele>790.36725</ele><time>2026-05-08T19:07:54.000Z</time></trkpt>
        <trkpt lat="29.779628" lon="103.444716"><ele>789.88806</ele><time>2026-05-08T19:08:00.000Z</time></trkpt>
        <trkpt lat="29.779671" lon="103.444697"><ele>789.4488</ele><time>2026-05-08T19:08:04.000Z</time></trkpt>
        <trkpt lat="29.779715" lon="103.44467"><ele>789.04156</ele><time>2026-05-08T19:08:09.000Z</time></trkpt>
        <trkpt lat="29.779765" lon="103.444641"><ele>787.8892</ele><time>2026-05-08T19:08:14.000Z</time></trkpt>
        <trkpt lat="29.779805" lon="103.444605"><ele>787.3545</ele><time>2026-05-08T19:08:17.000Z</time></trkpt>
        <trkpt lat="29.77985" lon="103.444574"><ele>786.50775</ele><time>2026-05-08T19:08:22.000Z</time></trkpt>
        <trkpt lat="29.779896" lon="103.444541"><ele>785.8278</ele><time>2026-05-08T19:08:27.000Z</time></trkpt>
        <trkpt lat="29.779945" lon="103.444522"><ele>785.1062</ele><time>2026-05-08T19:08:32.000Z</time></trkpt>
        <trkpt lat="29.779997" lon="103.444505"><ele>784.92163</ele><time>2026-05-08T19:08:36.000Z</time></trkpt>
        <trkpt lat="29.780044" lon="103.444512"><ele>785.16797</ele><time>2026-05-08T19:08:40.000Z</time></trkpt>
        <trkpt lat="29.780098" lon="103.444513"><ele>784.90466</ele><time>2026-05-08T19:08:44.000Z</time></trkpt>
        <trkpt lat="29.780149" lon="103.444518"><ele>785.6224</ele><time>2026-05-08T19:08:49.000Z</time></trkpt>
        <trkpt lat="29.780201" lon="103.444527"><ele>786.58606</ele><time>2026-05-08T19:08:56.000Z</time></trkpt>
        <trkpt lat="29.780248" lon="103.444504"><ele>785.8533</ele><time>2026-05-08T19:08:59.000Z</time></trkpt>
        <trkpt lat="29.780292" lon="103.444483"><ele>785.29785</ele><time>2026-05-08T19:09:02.000Z</time></trkpt>
        <trkpt lat="29.78033" lon="103.444454"><ele>783.7041</ele><time>2026-05-08T19:09:07.000Z</time></trkpt>
        <trkpt lat="29.780381" lon="103.444435"><ele>781.93506</ele><time>2026-05-08T19:09:13.000Z</time></trkpt>
        <trkpt lat="29.780425" lon="103.444415"><ele>782.21484</ele><time>2026-05-08T19:09:17.000Z</time></trkpt>
        <trkpt lat="29.780479" lon="103.444398"><ele>781.2006</ele><time>2026-05-08T19:09:22.000Z</time></trkpt>
        <trkpt lat="29.780527" lon="103.444378"><ele>780.71814</ele><time>2026-05-08T19:09:26.000Z</time></trkpt>
        <trkpt lat="29.780573" lon="103.444351"><ele>779.79584</ele><time>2026-05-08T19:09:30.000Z</time></trkpt>
        <trkpt lat="29.780615" lon="103.44433"><ele>780.0502</ele><time>2026-05-08T19:09:34.000Z</time></trkpt>
        <trkpt lat="29.780665" lon="103.444303"><ele>780.36975</ele><time>2026-05-08T19:09:38.000Z</time></trkpt>
        <trkpt lat="29.780715" lon="103.444287"><ele>780.43115</ele><time>2026-05-08T19:09:42.000Z</time></trkpt>
        <trkpt lat="29.780764" lon="103.444279"><ele>780.41113</ele><time>2026-05-08T19:09:46.000Z</time></trkpt>
        <trkpt lat="29.780805" lon="103.444237"><ele>779.8505</ele><time>2026-05-08T19:09:49.000Z</time></trkpt>
        <trkpt lat="29.780804" lon="103.444172"><ele>778.9769</ele><time>2026-05-08T19:09:53.000Z</time></trkpt>
        <trkpt lat="29.780795" lon="103.444105"><ele>778.5943</ele><time>2026-05-08T19:09:57.000Z</time></trkpt>
        <trkpt lat="29.780789" lon="103.44404"><ele>777.98395</ele><time>2026-05-08T19:10:01.000Z</time></trkpt>
        <trkpt lat="29.780786" lon="103.443974"><ele>777.71094</ele><time>2026-05-08T19:10:06.000Z</time></trkpt>
        <trkpt lat="29.78078" lon="103.443919"><ele>777.2089</ele><time>2026-05-08T19:10:10.000Z</time></trkpt>
        <trkpt lat="29.780768" lon="103.443865"><ele>777.1079</ele><time>2026-05-08T19:10:14.000Z</time></trkpt>
        <trkpt lat="29.780812" lon="103.443876"><ele>778.50854</ele><time>2026-05-08T19:10:41.000Z</time></trkpt>
        <trkpt lat="29.780864" lon="103.443882"><ele>777.4653</ele><time>2026-05-08T19:10:57.000Z</time></trkpt>
        <trkpt lat="29.78091" lon="103.443865"><ele>776.5188</ele><time>2026-05-08T19:11:01.000Z</time></trkpt>
        <trkpt lat="29.780959" lon="103.443852"><ele>776.2371</ele><time>2026-05-08T19:11:05.000Z</time></trkpt>
        <trkpt lat="29.781015" lon="103.443853"><ele>776.0694</ele><time>2026-05-08T19:11:10.000Z</time></trkpt>
        <trkpt lat="29.781066" lon="103.443865"><ele>775.875</ele><time>2026-05-08T19:11:14.000Z</time></trkpt>
        <trkpt lat="29.781114" lon="103.443894"><ele>775.9232</ele><time>2026-05-08T19:11:19.000Z</time></trkpt>
        <trkpt lat="29.781166" lon="103.443906"><ele>775.7045</ele><time>2026-05-08T19:11:24.000Z</time></trkpt>
        <trkpt lat="29.781216" lon="103.443929"><ele>775.2939</ele><time>2026-05-08T19:11:32.000Z</time></trkpt>
        <trkpt lat="29.781261" lon="103.443925"><ele>775.06824</ele><time>2026-05-08T19:11:36.000Z</time></trkpt>
        <trkpt lat="29.781307" lon="103.443929"><ele>775.0596</ele><time>2026-05-08T19:11:41.000Z</time></trkpt>
        <trkpt lat="29.78136" lon="103.443921"><ele>774.72394</ele><time>2026-05-08T19:11:46.000Z</time></trkpt>
        <trkpt lat="29.781405" lon="103.443904"><ele>774.6699</ele><time>2026-05-08T19:11:51.000Z</time></trkpt>
        <trkpt lat="29.781453" lon="103.443882"><ele>774.32666</ele><time>2026-05-08T19:11:59.000Z</time></trkpt>
        <trkpt lat="29.781497" lon="103.443858"><ele>773.4078</ele><time>2026-05-08T19:12:05.000Z</time></trkpt>
        <trkpt lat="29.78153" lon="103.443821"><ele>773.0943</ele><time>2026-05-08T19:12:10.000Z</time></trkpt>
        <trkpt lat="29.781539" lon="103.443761"><ele>773.136</ele><time>2026-05-08T19:12:30.000Z</time></trkpt>
        <trkpt lat="29.781534" lon="103.443703"><ele>771.9766</ele><time>2026-05-08T19:12:34.000Z</time></trkpt>
        <trkpt lat="29.781528" lon="103.443641"><ele>770.9674</ele><time>2026-05-08T19:12:38.000Z</time></trkpt>
        <trkpt lat="29.781526" lon="103.443583"><ele>770.4111</ele><time>2026-05-08T19:12:42.000Z</time></trkpt>
        <trkpt lat="29.781551" lon="103.443533"><ele>768.75684</ele><time>2026-05-08T19:12:46.000Z</time></trkpt>
        <trkpt lat="29.781591" lon="103.443486"><ele>766.77374</ele><time>2026-05-08T19:12:51.000Z</time></trkpt>
        <trkpt lat="29.781636" lon="103.443459"><ele>766.21533</ele><time>2026-05-08T19:12:55.000Z</time></trkpt>
        <trkpt lat="29.781678" lon="103.44343"><ele>765.5188</ele><time>2026-05-08T19:12:59.000Z</time></trkpt>
        <trkpt lat="29.781719" lon="103.443406"><ele>765.0624</ele><time>2026-05-08T19:13:03.000Z</time></trkpt>
        <trkpt lat="29.781762" lon="103.443374"><ele>764.3785</ele><time>2026-05-08T19:13:08.000Z</time></trkpt>
        <trkpt lat="29.781817" lon="103.443361"><ele>763.0554</ele><time>2026-05-08T19:13:16.000Z</time></trkpt>
        <trkpt lat="29.781864" lon="103.443342"><ele>762.1956</ele><time>2026-05-08T19:13:20.000Z</time></trkpt>
        <trkpt lat="29.781917" lon="103.443329"><ele>761.6654</ele><time>2026-05-08T19:13:25.000Z</time></trkpt>
        <trkpt lat="29.781972" lon="103.443304"><ele>760.66156</ele><time>2026-05-08T19:13:30.000Z</time></trkpt>
        <trkpt lat="29.782025" lon="103.443291"><ele>760.75006</ele><time>2026-05-08T19:13:34.000Z</time></trkpt>
        <trkpt lat="29.782061" lon="103.443255"><ele>762.02563</ele><time>2026-05-08T19:13:48.000Z</time></trkpt>
        <trkpt lat="29.78204" lon="103.443191"><ele>761.6455</ele><time>2026-05-08T19:13:56.000Z</time></trkpt>
        <trkpt lat="29.782007" lon="103.443155"><ele>762.51135</ele><time>2026-05-08T19:14:00.000Z</time></trkpt>
        <trkpt lat="29.781982" lon="103.443111"><ele>761.66986</ele><time>2026-05-08T19:14:05.000Z</time></trkpt>
        <trkpt lat="29.781941" lon="103.443066"><ele>762.0148</ele><time>2026-05-08T19:14:09.000Z</time></trkpt>
        <trkpt lat="29.781897" lon="103.443037"><ele>762.67737</ele><time>2026-05-08T19:14:13.000Z</time></trkpt>
        <trkpt lat="29.781856" lon="103.442993"><ele>763.8324</ele><time>2026-05-08T19:14:17.000Z</time></trkpt>
        <trkpt lat="29.781822" lon="103.442945"><ele>766.11304</ele><time>2026-05-08T19:14:23.000Z</time></trkpt>
        <trkpt lat="29.781792" lon="103.442899"><ele>766.658</ele><time>2026-05-08T19:14:28.000Z</time></trkpt>
        <trkpt lat="29.781762" lon="103.44286"><ele>768.43494</ele><time>2026-05-08T19:14:34.000Z</time></trkpt>
        <trkpt lat="29.781723" lon="103.442828"><ele>769.6558</ele><time>2026-05-08T19:14:38.000Z</time></trkpt>
        <trkpt lat="29.781685" lon="103.442776"><ele>769.44617</ele><time>2026-05-08T19:14:42.000Z</time></trkpt>
        <trkpt lat="29.781653" lon="103.442728"><ele>768.5511</ele><time>2026-05-08T19:14:46.000Z</time></trkpt>
        <trkpt lat="29.78162" lon="103.442676"><ele>768.15845</ele><time>2026-05-08T19:14:49.000Z</time></trkpt>
        <trkpt lat="29.781608" lon="103.442625"><ele>768.5535</ele><time>2026-05-08T19:14:54.000Z</time></trkpt>
        <trkpt lat="29.781583" lon="103.442574"><ele>768.2151</ele><time>2026-05-08T19:14:58.000Z</time></trkpt>
        <trkpt lat="29.781556" lon="103.442525"><ele>768.5234</ele><time>2026-05-08T19:15:03.000Z</time></trkpt>
        <trkpt lat="29.781527" lon="103.442475"><ele>767.593</ele><time>2026-05-08T19:15:08.000Z</time></trkpt>
        <trkpt lat="29.781504" lon="103.442425"><ele>767.7763</ele><time>2026-05-08T19:15:12.000Z</time></trkpt>
        <trkpt lat="29.781484" lon="103.442367"><ele>766.6307</ele><time>2026-05-08T19:15:17.000Z</time></trkpt>
        <trkpt lat="29.781468" lon="103.442307"><ele>765.9268</ele><time>2026-05-08T19:15:22.000Z</time></trkpt>
        <trkpt lat="29.781454" lon="103.442243"><ele>765.65027</ele><time>2026-05-08T19:15:27.000Z</time></trkpt>
        <trkpt lat="29.78146" lon="103.442181"><ele>765.085</ele><time>2026-05-08T19:15:33.000Z</time></trkpt>
        <trkpt lat="29.781495" lon="103.442135"><ele>764.102</ele><time>2026-05-08T19:15:38.000Z</time></trkpt>
        <trkpt lat="29.78152" lon="103.442087"><ele>762.7944</ele><time>2026-05-08T19:15:43.000Z</time></trkpt>
        <trkpt lat="29.781545" lon="103.44204"><ele>761.91156</ele><time>2026-05-08T19:15:47.000Z</time></trkpt>
        <trkpt lat="29.781592" lon="103.44201"><ele>760.5373</ele><time>2026-05-08T19:15:52.000Z</time></trkpt>
        <trkpt lat="29.781612" lon="103.441961"><ele>760.75366</ele><time>2026-05-08T19:16:02.000Z</time></trkpt>
        <trkpt lat="29.781642" lon="103.441919"><ele>759.3965</ele><time>2026-05-08T19:16:12.000Z</time></trkpt>
        <trkpt lat="29.781679" lon="103.44188"><ele>759.0299</ele><time>2026-05-08T19:16:18.000Z</time></trkpt>
        <trkpt lat="29.7817" lon="103.441832"><ele>757.8703</ele><time>2026-05-08T19:16:24.000Z</time></trkpt>
        <trkpt lat="29.781709" lon="103.441774"><ele>758.9134</ele><time>2026-05-08T19:16:30.000Z</time></trkpt>
        <trkpt lat="29.781726" lon="103.441724"><ele>758.7932</ele><time>2026-05-08T19:16:36.000Z</time></trkpt>
        <trkpt lat="29.78176" lon="103.441677"><ele>757.5643</ele><time>2026-05-08T19:16:42.000Z</time></trkpt>
        <trkpt lat="29.781781" lon="103.441625"><ele>756.1317</ele><time>2026-05-08T19:16:48.000Z</time></trkpt>
        <trkpt lat="29.781824" lon="103.441581"><ele>754.3167</ele><time>2026-05-08T19:16:51.000Z</time></trkpt>
        <trkpt lat="29.781857" lon="103.441546"><ele>753.35254</ele><time>2026-05-08T19:16:55.000Z</time></trkpt>
        <trkpt lat="29.781888" lon="103.441498"><ele>753.4608</ele><time>2026-05-08T19:17:00.000Z</time></trkpt>
        <trkpt lat="29.781924" lon="103.441464"><ele>754.3999</ele><time>2026-05-08T19:17:06.000Z</time></trkpt>
        <trkpt lat="29.781968" lon="103.441429"><ele>754.20404</ele><time>2026-05-08T19:17:10.000Z</time></trkpt>
        <trkpt lat="29.781994" lon="103.441378"><ele>753.5607</ele><time>2026-05-08T19:17:15.000Z</time></trkpt>
        <trkpt lat="29.781993" lon="103.441323"><ele>756.12573</ele><time>2026-05-08T19:17:19.000Z</time></trkpt>
        <trkpt lat="29.782018" lon="103.441264"><ele>756.262</ele><time>2026-05-08T19:17:26.000Z</time></trkpt>
        <trkpt lat="29.782066" lon="103.441267"><ele>754.54065</ele><time>2026-05-08T19:17:30.000Z</time></trkpt>
        <trkpt lat="29.782117" lon="103.441268"><ele>753.79083</ele><time>2026-05-08T19:17:35.000Z</time></trkpt>
        <trkpt lat="29.782125" lon="103.441212"><ele>754.3096</ele><time>2026-05-08T19:17:43.000Z</time></trkpt>
        <trkpt lat="29.782178" lon="103.441203"><ele>753.822</ele><time>2026-05-08T19:17:50.000Z</time></trkpt>
        <trkpt lat="29.782212" lon="103.441167"><ele>753.1401</ele><time>2026-05-08T19:18:02.000Z</time></trkpt>
        <trkpt lat="29.782235" lon="103.441118"><ele>754.3887</ele><time>2026-05-08T19:18:09.000Z</time></trkpt>
        <trkpt lat="29.782281" lon="103.441102"><ele>753.7252</ele><time>2026-05-08T19:18:13.000Z</time></trkpt>
        <trkpt lat="29.782324" lon="103.441084"><ele>752.8246</ele><time>2026-05-08T19:18:18.000Z</time></trkpt>
        <trkpt lat="29.782374" lon="103.441097"><ele>753.119</ele><time>2026-05-08T19:18:48.000Z</time></trkpt>
        <trkpt lat="29.782407" lon="103.44114"><ele>751.8547</ele><time>2026-05-08T19:18:54.000Z</time></trkpt>
        <trkpt lat="29.782461" lon="103.441123"><ele>751.63513</ele><time>2026-05-08T19:18:59.000Z</time></trkpt>
        <trkpt lat="29.782508" lon="103.441098"><ele>750.84894</ele><time>2026-05-08T19:19:04.000Z</time></trkpt>
        <trkpt lat="29.782556" lon="103.441097"><ele>749.7202</ele><time>2026-05-08T19:19:10.000Z</time></trkpt>
        <trkpt lat="29.782549" lon="103.441152"><ele>748.9435</ele><time>2026-05-08T19:19:20.000Z</time></trkpt>
        <trkpt lat="29.782581" lon="103.441193"><ele>748.71814</ele><time>2026-05-08T19:19:25.000Z</time></trkpt>
        <trkpt lat="29.782633" lon="103.441209"><ele>748.6604</ele><time>2026-05-08T19:19:30.000Z</time></trkpt>
        <trkpt lat="29.782678" lon="103.44122"><ele>747.561</ele><time>2026-05-08T19:19:35.000Z</time></trkpt>
        <trkpt lat="29.782704" lon="103.441177"><ele>746.1483</ele><time>2026-05-08T19:19:45.000Z</time></trkpt>
        <trkpt lat="29.782752" lon="103.441153"><ele>744.9345</ele><time>2026-05-08T19:19:51.000Z</time></trkpt>
        <trkpt lat="29.782803" lon="103.441163"><ele>744.33887</ele><time>2026-05-08T19:19:56.000Z</time></trkpt>
        <trkpt lat="29.782851" lon="103.441188"><ele>744.86865</ele><time>2026-05-08T19:20:03.000Z</time></trkpt>
        <trkpt lat="29.782888" lon="103.441223"><ele>743.86633</ele><time>2026-05-08T19:20:08.000Z</time></trkpt>
        <trkpt lat="29.782935" lon="103.441236"><ele>742.4768</ele><time>2026-05-08T19:20:13.000Z</time></trkpt>
        <trkpt lat="29.782983" lon="103.441225"><ele>742.1207</ele><time>2026-05-08T19:20:18.000Z</time></trkpt>
        <trkpt lat="29.783031" lon="103.44124"><ele>741.2449</ele><time>2026-05-08T19:20:25.000Z</time></trkpt>
        <trkpt lat="29.783081" lon="103.441249"><ele>739.76636</ele><time>2026-05-08T19:20:31.000Z</time></trkpt>
        <trkpt lat="29.783131" lon="103.441262"><ele>738.5889</ele><time>2026-05-08T19:20:37.000Z</time></trkpt>
        <trkpt lat="29.783148" lon="103.441317"><ele>737.9561</ele><time>2026-05-08T19:20:45.000Z</time></trkpt>
        <trkpt lat="29.783131" lon="103.441369"><ele>738.26013</ele><time>2026-05-08T19:20:51.000Z</time></trkpt>
        <trkpt lat="29.78311" lon="103.441419"><ele>737.65717</ele><time>2026-05-08T19:20:59.000Z</time></trkpt>
        <trkpt lat="29.783156" lon="103.441457"><ele>738.2858</ele><time>2026-05-08T19:21:06.000Z</time></trkpt>
        <trkpt lat="29.783202" lon="103.441467"><ele>738.6026</ele><time>2026-05-08T19:21:14.000Z</time></trkpt>
        <trkpt lat="29.783247" lon="103.441501"><ele>738.2512</ele><time>2026-05-08T19:21:23.000Z</time></trkpt>
        <trkpt lat="29.783281" lon="103.441548"><ele>738.0812</ele><time>2026-05-08T19:21:28.000Z</time></trkpt>
        <trkpt lat="29.783323" lon="103.441578"><ele>737.5576</ele><time>2026-05-08T19:21:34.000Z</time></trkpt>
        <trkpt lat="29.783347" lon="103.441636"><ele>738.1046</ele><time>2026-05-08T19:21:40.000Z</time></trkpt>
        <trkpt lat="29.783319" lon="103.441678"><ele>738.5323</ele><time>2026-05-08T19:21:45.000Z</time></trkpt>
        <trkpt lat="29.783281" lon="103.441717"><ele>739.59973</ele><time>2026-05-08T19:21:50.000Z</time></trkpt>
        <trkpt lat="29.783266" lon="103.441769"><ele>738.7431</ele><time>2026-05-08T19:21:55.000Z</time></trkpt>
        <trkpt lat="29.783316" lon="103.441764"><ele>739.44086</ele><time>2026-05-08T19:22:30.000Z</time></trkpt>
        <trkpt lat="29.783362" lon="103.441728"><ele>738.31573</ele><time>2026-05-08T19:22:36.000Z</time></trkpt>
        <trkpt lat="29.783404" lon="103.441681"><ele>737.54236</ele><time>2026-05-08T19:22:42.000Z</time></trkpt>
        <trkpt lat="29.7834" lon="103.441617"><ele>737.5707</ele><time>2026-05-08T19:22:49.000Z</time></trkpt>
        <trkpt lat="29.783401" lon="103.441564"><ele>735.91077</ele><time>2026-05-08T19:22:53.000Z</time></trkpt>
        <trkpt lat="29.783386" lon="103.441503"><ele>735.88275</ele><time>2026-05-08T19:22:58.000Z</time></trkpt>
        <trkpt lat="29.783439" lon="103.441494"><ele>735.3566</ele><time>2026-05-08T19:23:02.000Z</time></trkpt>
        <trkpt lat="29.783486" lon="103.441501"><ele>734.2645</ele><time>2026-05-08T19:23:08.000Z</time></trkpt>
        <trkpt lat="29.783518" lon="103.441539"><ele>733.32025</ele><time>2026-05-08T19:23:13.000Z</time></trkpt>
        <trkpt lat="29.783567" lon="103.441559"><ele>732.6966</ele><time>2026-05-08T19:23:17.000Z</time></trkpt>
        <trkpt lat="29.783606" lon="103.441599"><ele>732.2058</ele><time>2026-05-08T19:23:22.000Z</time></trkpt>
        <trkpt lat="29.783659" lon="103.441609"><ele>731.687</ele><time>2026-05-08T19:23:27.000Z</time></trkpt>
        <trkpt lat="29.78371" lon="103.44162"><ele>731.73865</ele><time>2026-05-08T19:23:42.000Z</time></trkpt>
        <trkpt lat="29.783759" lon="103.441644"><ele>730.8322</ele><time>2026-05-08T19:23:49.000Z</time></trkpt>
        <trkpt lat="29.783794" lon="103.441679"><ele>731.6032</ele><time>2026-05-08T19:23:53.000Z</time></trkpt>
        <trkpt lat="29.783841" lon="103.441699"><ele>731.60876</ele><time>2026-05-08T19:23:58.000Z</time></trkpt>
        <trkpt lat="29.783871" lon="103.441751"><ele>731.1098</ele><time>2026-05-08T19:24:05.000Z</time></trkpt>
        <trkpt lat="29.7839" lon="103.441794"><ele>730.6876</ele><time>2026-05-08T19:24:11.000Z</time></trkpt>
        <trkpt lat="29.783941" lon="103.441816"><ele>729.3376</ele><time>2026-05-08T19:24:19.000Z</time></trkpt>
        <trkpt lat="29.783987" lon="103.441822"><ele>727.45514</ele><time>2026-05-08T19:24:26.000Z</time></trkpt>
        <trkpt lat="29.784027" lon="103.441847"><ele>727.4406</ele><time>2026-05-08T19:24:33.000Z</time></trkpt>
        <trkpt lat="29.78408" lon="103.441856"><ele>726.524</ele><time>2026-05-08T19:24:42.000Z</time></trkpt>
        <trkpt lat="29.784118" lon="103.441897"><ele>725.612</ele><time>2026-05-08T19:24:48.000Z</time></trkpt>
        <trkpt lat="29.784155" lon="103.441927"><ele>724.28656</ele><time>2026-05-08T19:24:54.000Z</time></trkpt>
        <trkpt lat="29.784203" lon="103.441939"><ele>723.0441</ele><time>2026-05-08T19:25:02.000Z</time></trkpt>
        <trkpt lat="29.78425" lon="103.441955"><ele>723.225</ele><time>2026-05-08T19:25:07.000Z</time></trkpt>
        <trkpt lat="29.784294" lon="103.44198"><ele>722.64484</ele><time>2026-05-08T19:25:12.000Z</time></trkpt>
        <trkpt lat="29.784337" lon="103.442002"><ele>722.38324</ele><time>2026-05-08T19:25:17.000Z</time></trkpt>
        <trkpt lat="29.78438" lon="103.442032"><ele>723.4175</ele><time>2026-05-08T19:25:23.000Z</time></trkpt>
        <trkpt lat="29.784426" lon="103.442032"><ele>723.0207</ele><time>2026-05-08T19:25:30.000Z</time></trkpt>
        <trkpt lat="29.78448" lon="103.442045"><ele>719.30255</ele><time>2026-05-08T19:25:36.000Z</time></trkpt>
        <trkpt lat="29.784481" lon="103.442102"><ele>720.3991</ele><time>2026-05-08T19:25:48.000Z</time></trkpt>
        <trkpt lat="29.784464" lon="103.442171"><ele>720.9178</ele><time>2026-05-08T19:25:53.000Z</time></trkpt>
        <trkpt lat="29.784439" lon="103.442229"><ele>721.65393</ele><time>2026-05-08T19:25:57.000Z</time></trkpt>
        <trkpt lat="29.784431" lon="103.442284"><ele>718.0452</ele><time>2026-05-08T19:26:28.000Z</time></trkpt>
        <trkpt lat="29.784487" lon="103.442282"><ele>717.02856</ele><time>2026-05-08T19:26:36.000Z</time></trkpt>
        <trkpt lat="29.784535" lon="103.442295"><ele>717.1332</ele><time>2026-05-08T19:26:42.000Z</time></trkpt>
        <trkpt lat="29.784528" lon="103.442351"><ele>714.199</ele><time>2026-05-08T19:27:02.000Z</time></trkpt>
        <trkpt lat="29.784557" lon="103.442392"><ele>713.466</ele><time>2026-05-08T19:27:07.000Z</time></trkpt>
        <trkpt lat="29.7846" lon="103.44242"><ele>712.8266</ele><time>2026-05-08T19:27:13.000Z</time></trkpt>
        <trkpt lat="29.784638" lon="103.44245"><ele>711.334</ele><time>2026-05-08T19:27:22.000Z</time></trkpt>
        <trkpt lat="29.784684" lon="103.442455"><ele>709.5196</ele><time>2026-05-08T19:27:34.000Z</time></trkpt>
        <trkpt lat="29.784727" lon="103.442472"><ele>708.67993</ele><time>2026-05-08T19:27:40.000Z</time></trkpt>
        <trkpt lat="29.784772" lon="103.442459"><ele>707.1067</ele><time>2026-05-08T19:27:46.000Z</time></trkpt>
        <trkpt lat="29.784821" lon="103.442473"><ele>704.39355</ele><time>2026-05-08T19:27:53.000Z</time></trkpt>
        <trkpt lat="29.784859" lon="103.442436"><ele>702.4233</ele><time>2026-05-08T19:28:00.000Z</time></trkpt>
        <trkpt lat="29.784902" lon="103.442408"><ele>700.7382</ele><time>2026-05-08T19:28:07.000Z</time></trkpt>
        <trkpt lat="29.784953" lon="103.44242"><ele>698.3727</ele><time>2026-05-08T19:28:19.000Z</time></trkpt>
        <trkpt lat="29.784995" lon="103.442455"><ele>697.883</ele><time>2026-05-08T19:28:28.000Z</time></trkpt>
        <trkpt lat="29.785043" lon="103.442432"><ele>695.6339</ele><time>2026-05-08T19:28:36.000Z</time></trkpt>
        <trkpt lat="29.785089" lon="103.442414"><ele>694.0966</ele><time>2026-05-08T19:28:47.000Z</time></trkpt>
        <trkpt lat="29.785135" lon="103.442428"><ele>692.3431</ele><time>2026-05-08T19:28:57.000Z</time></trkpt>
        <trkpt lat="29.785174" lon="103.442398"><ele>690.7768</ele><time>2026-05-08T19:29:10.000Z</time></trkpt>
        <trkpt lat="29.785197" lon="103.442443"><ele>689.60565</ele><time>2026-05-08T19:29:18.000Z</time></trkpt>
        <trkpt lat="29.785209" lon="103.442496"><ele>689.48395</ele><time>2026-05-08T19:29:23.000Z</time></trkpt>
        <trkpt lat="29.785242" lon="103.442539"><ele>688.7989</ele><time>2026-05-08T19:29:31.000Z</time></trkpt>
        <trkpt lat="29.785282" lon="103.442566"><ele>685.22034</ele><time>2026-05-08T19:29:42.000Z</time></trkpt>
        <trkpt lat="29.78533" lon="103.442589"><ele>683.5043</ele><time>2026-05-08T19:29:52.000Z</time></trkpt>
        <trkpt lat="29.785384" lon="103.442585"><ele>682.52185</ele><time>2026-05-08T19:29:58.000Z</time></trkpt>
        <trkpt lat="29.785402" lon="103.442531"><ele>682.3661</ele><time>2026-05-08T19:30:06.000Z</time></trkpt>
        <trkpt lat="29.785418" lon="103.442469"><ele>682.4883</ele><time>2026-05-08T19:30:14.000Z</time></trkpt>
        <trkpt lat="29.785467" lon="103.442481"><ele>682.20514</ele><time>2026-05-08T19:30:21.000Z</time></trkpt>
        <trkpt lat="29.785508" lon="103.442501"><ele>683.34045</ele><time>2026-05-08T19:30:30.000Z</time></trkpt>
        <trkpt lat="29.785561" lon="103.442514"><ele>682.83856</ele><time>2026-05-08T19:30:52.000Z</time></trkpt>
        <trkpt lat="29.785611" lon="103.442503"><ele>683.5138</ele><time>2026-05-08T19:31:06.000Z</time></trkpt>
        <trkpt lat="29.785668" lon="103.442508"><ele>682.5473</ele><time>2026-05-08T19:31:12.000Z</time></trkpt>
        <trkpt lat="29.785712" lon="103.442482"><ele>681.0086</ele><time>2026-05-08T19:31:46.000Z</time></trkpt>
        <trkpt lat="29.785753" lon="103.44246"><ele>679.5124</ele><time>2026-05-08T19:31:56.000Z</time></trkpt>
        <trkpt lat="29.7858" lon="103.44252"><ele>680.39496</ele><time>2026-05-08T19:32:10.000Z</time></trkpt>
        <trkpt lat="29.785759" lon="103.442491"><ele>681.8996</ele><time>2026-05-08T19:32:18.000Z</time></trkpt>
        <trkpt lat="29.785721" lon="103.44246"><ele>683.7577</ele><time>2026-05-08T19:32:21.000Z</time></trkpt>
        <trkpt lat="29.785682" lon="103.442495"><ele>687.21674</ele><time>2026-05-08T19:32:31.000Z</time></trkpt>
        <trkpt lat="29.785634" lon="103.442497"><ele>684.0672</ele><time>2026-05-08T19:32:56.000Z</time></trkpt>
        <trkpt lat="29.785625" lon="103.442559"><ele>684.227</ele><time>2026-05-08T19:33:15.000Z</time></trkpt>
        <trkpt lat="29.785672" lon="103.442566"><ele>682.90546</ele><time>2026-05-08T19:33:23.000Z</time></trkpt>
        <trkpt lat="29.785715" lon="103.442597"><ele>680.5643</ele><time>2026-05-08T19:33:35.000Z</time></trkpt>
        <trkpt lat="29.785675" lon="103.442634"><ele>680.19336</ele><time>2026-05-08T19:33:52.000Z</time></trkpt>
        <trkpt lat="29.785666" lon="103.442691"><ele>679.4103</ele><time>2026-05-08T19:33:59.000Z</time></trkpt>
        <trkpt lat="29.785719" lon="103.442663"><ele>678.4889</ele><time>2026-05-08T19:34:06.000Z</time></trkpt>
        <trkpt lat="29.78576" lon="103.442636"><ele>677.46857</ele><time>2026-05-08T19:34:11.000Z</time></trkpt>
        <trkpt lat="29.785807" lon="103.442618"><ele>676.3577</ele><time>2026-05-08T19:34:20.000Z</time></trkpt>
        <trkpt lat="29.78584" lon="103.442655"><ele>675.27515</ele><time>2026-05-08T19:34:24.000Z</time></trkpt>
        <trkpt lat="29.785844" lon="103.442711"><ele>675.04333</ele><time>2026-05-08T19:34:28.000Z</time></trkpt>
        <trkpt lat="29.785877" lon="103.442753"><ele>673.9322</ele><time>2026-05-08T19:34:42.000Z</time></trkpt>
        <trkpt lat="29.78592" lon="103.442768"><ele>671.521</ele><time>2026-05-08T19:34:57.000Z</time></trkpt>
        <trkpt lat="29.785963" lon="103.442794"><ele>670.3569</ele><time>2026-05-08T19:35:03.000Z</time></trkpt>
        <trkpt lat="29.786008" lon="103.442802"><ele>669.43695</ele><time>2026-05-08T19:35:08.000Z</time></trkpt>
        <trkpt lat="29.786049" lon="103.442837"><ele>668.28033</ele><time>2026-05-08T19:35:15.000Z</time></trkpt>
        <trkpt lat="29.786095" lon="103.442862"><ele>668.3959</ele><time>2026-05-08T19:35:22.000Z</time></trkpt>
        <trkpt lat="29.786137" lon="103.442832"><ele>667.2205</ele><time>2026-05-08T19:35:36.000Z</time></trkpt>
        <trkpt lat="29.786177" lon="103.442861"><ele>668.75745</ele><time>2026-05-08T19:35:45.000Z</time></trkpt>
        <trkpt lat="29.786223" lon="103.442849"><ele>669.2184</ele><time>2026-05-08T19:35:57.000Z</time></trkpt>
        <trkpt lat="29.786179" lon="103.442867"><ele>671.69836</ele><time>2026-05-08T19:36:11.000Z</time></trkpt>
        <trkpt lat="29.786174" lon="103.44292"><ele>673.16064</ele><time>2026-05-08T19:36:20.000Z</time></trkpt>
        <trkpt lat="29.786207" lon="103.442976"><ele>670.62024</ele><time>2026-05-08T19:36:33.000Z</time></trkpt>
        <trkpt lat="29.786251" lon="103.443"><ele>669.3671</ele><time>2026-05-08T19:36:43.000Z</time></trkpt>
        <trkpt lat="29.786289" lon="103.443037"><ele>670.286</ele><time>2026-05-08T19:36:54.000Z</time></trkpt>
        <trkpt lat="29.786277" lon="103.443091"><ele>669.87103</ele><time>2026-05-08T19:37:02.000Z</time></trkpt>
        <trkpt lat="29.786319" lon="103.443121"><ele>668.7635</ele><time>2026-05-08T19:37:09.000Z</time></trkpt>
        <trkpt lat="29.786346" lon="103.443175"><ele>669.289</ele><time>2026-05-08T19:37:15.000Z</time></trkpt>
        <trkpt lat="29.786384" lon="103.443209"><ele>668.0655</ele><time>2026-05-08T19:37:21.000Z</time></trkpt>
        <trkpt lat="29.786361" lon="103.44326"><ele>667.3585</ele><time>2026-05-08T19:37:28.000Z</time></trkpt>
        <trkpt lat="29.786329" lon="103.443301"><ele>665.7836</ele><time>2026-05-08T19:37:36.000Z</time></trkpt>
        <trkpt lat="29.786375" lon="103.443289"><ele>664.29065</ele><time>2026-05-08T19:37:43.000Z</time></trkpt>
        <trkpt lat="29.786416" lon="103.443258"><ele>664.40106</ele><time>2026-05-08T19:37:49.000Z</time></trkpt>
        <trkpt lat="29.786448" lon="103.443294"><ele>665.4381</ele><time>2026-05-08T19:38:02.000Z</time></trkpt>
        <trkpt lat="29.786464" lon="103.443349"><ele>663.4877</ele><time>2026-05-08T19:38:08.000Z</time></trkpt>
        <trkpt lat="29.786485" lon="103.443397"><ele>663.4138</ele><time>2026-05-08T19:38:18.000Z</time></trkpt>
        <trkpt lat="29.786508" lon="103.443444"><ele>662.55194</ele><time>2026-05-08T19:38:24.000Z</time></trkpt>
        <trkpt lat="29.786503" lon="103.443496"><ele>663.0934</ele><time>2026-05-08T19:38:30.000Z</time></trkpt>
        <trkpt lat="29.78652" lon="103.443554"><ele>664.0057</ele><time>2026-05-08T19:38:36.000Z</time></trkpt>
        <trkpt lat="29.786561" lon="103.443582"><ele>665.30054</ele><time>2026-05-08T19:38:59.000Z</time></trkpt>
        <trkpt lat="29.786605" lon="103.443596"><ele>665.60223</ele><time>2026-05-08T19:39:04.000Z</time></trkpt>
        <trkpt lat="29.786563" lon="103.443626"><ele>669.06903</ele><time>2026-05-08T19:39:18.000Z</time></trkpt>
        <trkpt lat="29.78661" lon="103.44359"><ele>667.66284</ele><time>2026-05-08T19:39:34.000Z</time></trkpt>
        <trkpt lat="29.786649" lon="103.443549"><ele>666.1807</ele><time>2026-05-08T19:39:38.000Z</time></trkpt>
        <trkpt lat="29.786698" lon="103.443521"><ele>663.7244</ele><time>2026-05-08T19:39:45.000Z</time></trkpt>
        <trkpt lat="29.786731" lon="103.443479"><ele>662.5385</ele><time>2026-05-08T19:39:50.000Z</time></trkpt>
        <trkpt lat="29.786781" lon="103.443511"><ele>660.6713</ele><time>2026-05-08T19:39:59.000Z</time></trkpt>
        <trkpt lat="29.786827" lon="103.443511"><ele>659.88715</ele><time>2026-05-08T19:40:12.000Z</time></trkpt>
        <trkpt lat="29.786874" lon="103.443504"><ele>660.09216</ele><time>2026-05-08T19:40:19.000Z</time></trkpt>
        <trkpt lat="29.786892" lon="103.443453"><ele>657.1907</ele><time>2026-05-08T19:40:34.000Z</time></trkpt>
        <trkpt lat="29.786943" lon="103.443433"><ele>656.21045</ele><time>2026-05-08T19:40:43.000Z</time></trkpt>
        <trkpt lat="29.786997" lon="103.443425"><ele>655.34705</ele><time>2026-05-08T19:40:49.000Z</time></trkpt>
        <trkpt lat="29.787014" lon="103.443476"><ele>654.70825</ele><time>2026-05-08T19:40:54.000Z</time></trkpt>
        <trkpt lat="29.787046" lon="103.443516"><ele>654.1917</ele><time>2026-05-08T19:40:59.000Z</time></trkpt>
        <trkpt lat="29.787092" lon="103.443515"><ele>654.3361</ele><time>2026-05-08T19:41:03.000Z</time></trkpt>
        <trkpt lat="29.78708" lon="103.443463"><ele>652.8568</ele><time>2026-05-08T19:41:14.000Z</time></trkpt>
        <trkpt lat="29.787117" lon="103.443503"><ele>652.4011</ele><time>2026-05-08T19:41:22.000Z</time></trkpt>
        <trkpt lat="29.787159" lon="103.443474"><ele>650.81494</ele><time>2026-05-08T19:41:29.000Z</time></trkpt>
        <trkpt lat="29.787202" lon="103.44345"><ele>649.86835</ele><time>2026-05-08T19:41:34.000Z</time></trkpt>
        <trkpt lat="29.787248" lon="103.443459"><ele>648.20105</ele><time>2026-05-08T19:41:52.000Z</time></trkpt>
        <trkpt lat="29.787286" lon="103.443417"><ele>645.78064</ele><time>2026-05-08T19:41:59.000Z</time></trkpt>
        <trkpt lat="29.78732" lon="103.443381"><ele>644.6752</ele><time>2026-05-08T19:42:05.000Z</time></trkpt>
        <trkpt lat="29.787359" lon="103.443419"><ele>645.01697</ele><time>2026-05-08T19:42:48.000Z</time></trkpt>
        <trkpt lat="29.787409" lon="103.443435"><ele>646.6121</ele><time>2026-05-08T19:43:09.000Z</time></trkpt>
        <trkpt lat="29.787457" lon="103.443418"><ele>646.6331</ele><time>2026-05-08T19:43:14.000Z</time></trkpt>
        <trkpt lat="29.787514" lon="103.443396"><ele>646.54346</ele><time>2026-05-08T19:43:20.000Z</time></trkpt>
        <trkpt lat="29.787502" lon="103.44334"><ele>645.47955</ele><time>2026-05-08T19:43:28.000Z</time></trkpt>
        <trkpt lat="29.787533" lon="103.443292"><ele>646.23376</ele><time>2026-05-08T19:43:42.000Z</time></trkpt>
        <trkpt lat="29.787529" lon="103.443234"><ele>650.9321</ele><time>2026-05-08T19:44:21.000Z</time></trkpt>
        <trkpt lat="29.78752" lon="103.44318"><ele>651.6417</ele><time>2026-05-08T19:44:36.000Z</time></trkpt>
        <trkpt lat="29.787472" lon="103.443182"><ele>651.00195</ele><time>2026-05-08T19:44:46.000Z</time></trkpt>
        <trkpt lat="29.787495" lon="103.443132"><ele>651.5875</ele><time>2026-05-08T19:44:55.000Z</time></trkpt>
        <trkpt lat="29.78751" lon="103.443083"><ele>652.5006</ele><time>2026-05-08T19:45:15.000Z</time></trkpt>
        <trkpt lat="29.787542" lon="103.443022"><ele>650.65247</ele><time>2026-05-08T19:45:30.000Z</time></trkpt>
        <trkpt lat="29.787589" lon="103.443"><ele>650.3059</ele><time>2026-05-08T19:45:33.000Z</time></trkpt>
        <trkpt lat="29.787587" lon="103.443053"><ele>652.0593</ele><time>2026-05-08T19:46:09.000Z</time></trkpt>
        <trkpt lat="29.787643" lon="103.443065"><ele>650.8194</ele><time>2026-05-08T19:46:31.000Z</time></trkpt>
        <trkpt lat="29.787602" lon="103.44309"><ele>648.7531</ele><time>2026-05-08T19:46:53.000Z</time></trkpt>
        <trkpt lat="29.787647" lon="103.443059"><ele>649.2973</ele><time>2026-05-08T19:46:57.000Z</time></trkpt>
        <trkpt lat="29.787601" lon="103.443055"><ele>647.81824</ele><time>2026-05-08T19:47:05.000Z</time></trkpt>
        <trkpt lat="29.787555" lon="103.443061"><ele>647.7799</ele><time>2026-05-08T19:47:07.000Z</time></trkpt>
        <trkpt lat="29.787502" lon="103.443072"><ele>647.8041</ele><time>2026-05-08T19:47:09.000Z</time></trkpt>
        <trkpt lat="29.787509" lon="103.443129"><ele>648.0477</ele><time>2026-05-08T19:47:21.000Z</time></trkpt>
        <trkpt lat="29.787475" lon="103.443182"><ele>648.0163</ele><time>2026-05-08T19:47:29.000Z</time></trkpt>
        <trkpt lat="29.787498" lon="103.443228"><ele>649.0572</ele><time>2026-05-08T19:47:34.000Z</time></trkpt>
        <trkpt lat="29.787507" lon="103.443283"><ele>649.0239</ele><time>2026-05-08T19:47:40.000Z</time></trkpt>
        <trkpt lat="29.787543" lon="103.443251"><ele>648.934</ele><time>2026-05-08T19:47:48.000Z</time></trkpt>
        <trkpt lat="29.787544" lon="103.443304"><ele>649.8438</ele><time>2026-05-08T19:48:04.000Z</time></trkpt>
        <trkpt lat="29.787505" lon="103.443337"><ele>651.45197</ele><time>2026-05-08T19:48:35.000Z</time></trkpt>
        <trkpt lat="29.787485" lon="103.443383"><ele>653.2174</ele><time>2026-05-08T19:48:54.000Z</time></trkpt>
        <trkpt lat="29.787463" lon="103.443437"><ele>653.6209</ele><time>2026-05-08T19:49:06.000Z</time></trkpt>
        <trkpt lat="29.787505" lon="103.443455"><ele>652.6835</ele><time>2026-05-08T19:49:10.000Z</time></trkpt>
        <trkpt lat="29.787533" lon="103.44351"><ele>651.4921</ele><time>2026-05-08T19:49:17.000Z</time></trkpt>
        <trkpt lat="29.787586" lon="103.443496"><ele>645.10803</ele><time>2026-05-08T19:49:42.000Z</time></trkpt>
        <trkpt lat="29.787633" lon="103.443484"><ele>641.6433</ele><time>2026-05-08T19:50:16.000Z</time></trkpt>
        <trkpt lat="29.787676" lon="103.443503"><ele>639.8604</ele><time>2026-05-08T19:50:22.000Z</time></trkpt>
        <trkpt lat="29.787693" lon="103.443455"><ele>640.8617</ele><time>2026-05-08T19:50:41.000Z</time></trkpt>
        <trkpt lat="29.787656" lon="103.443493"><ele>641.2717</ele><time>2026-05-08T19:50:48.000Z</time></trkpt>
        <trkpt lat="29.78762" lon="103.443529"><ele>644.40735</ele><time>2026-05-08T19:51:14.000Z</time></trkpt>
        <trkpt lat="29.787615" lon="103.443592"><ele>644.19543</ele><time>2026-05-08T19:51:23.000Z</time></trkpt>
        <trkpt lat="29.787661" lon="103.443596"><ele>641.6723</ele><time>2026-05-08T19:51:45.000Z</time></trkpt>
        <trkpt lat="29.787676" lon="103.443539"><ele>640.6354</ele><time>2026-05-08T19:51:53.000Z</time></trkpt>
        <trkpt lat="29.787695" lon="103.443486"><ele>641.3286</ele><time>2026-05-08T19:52:06.000Z</time></trkpt>
        <trkpt lat="29.787701" lon="103.443541"><ele>647.6231</ele><time>2026-05-08T19:55:08.000Z</time></trkpt>
        <trkpt lat="29.787736" lon="103.443495"><ele>646.4756</ele><time>2026-05-08T19:55:19.000Z</time></trkpt>
        <trkpt lat="29.787779" lon="103.443512"><ele>645.27563</ele><time>2026-05-08T19:55:51.000Z</time></trkpt>
        <trkpt lat="29.787801" lon="103.44356"><ele>645.94824</ele><time>2026-05-08T19:56:01.000Z</time></trkpt>
        <trkpt lat="29.787803" lon="103.443505"><ele>644.48425</ele><time>2026-05-08T19:56:19.000Z</time></trkpt>
        <trkpt lat="29.787796" lon="103.443451"><ele>644.8258</ele><time>2026-05-08T19:56:34.000Z</time></trkpt>
        <trkpt lat="29.787844" lon="103.44345"><ele>643.53094</ele><time>2026-05-08T19:56:57.000Z</time></trkpt>
        <trkpt lat="29.787883" lon="103.443422"><ele>642.93427</ele><time>2026-05-08T19:57:15.000Z</time></trkpt>
        <trkpt lat="29.787931" lon="103.443451"><ele>643.9141</ele><time>2026-05-08T19:58:07.000Z</time></trkpt>
        <trkpt lat="29.787974" lon="103.443431"><ele>644.67487</ele><time>2026-05-08T19:58:17.000Z</time></trkpt>
        <trkpt lat="29.787964" lon="103.443369"><ele>644.2327</ele><time>2026-05-08T19:58:24.000Z</time></trkpt>
        <trkpt lat="29.788007" lon="103.443315"><ele>644.4797</ele><time>2026-05-08T19:58:35.000Z</time></trkpt>
        <trkpt lat="29.78801" lon="103.443382"><ele>643.3171</ele><time>2026-05-08T19:58:51.000Z</time></trkpt>
        <trkpt lat="29.788041" lon="103.443422"><ele>643.3459</ele><time>2026-05-08T19:59:13.000Z</time></trkpt>
        <trkpt lat="29.788077" lon="103.443382"><ele>643.1876</ele><time>2026-05-08T19:59:28.000Z</time></trkpt>
        <trkpt lat="29.788108" lon="103.443419"><ele>641.8794</ele><time>2026-05-08T19:59:40.000Z</time></trkpt>
        <trkpt lat="29.788156" lon="103.443359"><ele>644.78357</ele><time>2026-05-08T20:00:12.000Z</time></trkpt>
        <trkpt lat="29.788192" lon="103.443324"><ele>644.7998</ele><time>2026-05-08T20:00:24.000Z</time></trkpt>
        <trkpt lat="29.788215" lon="103.443273"><ele>646.07886</ele><time>2026-05-08T20:00:41.000Z</time></trkpt>
        <trkpt lat="29.788165" lon="103.443276"><ele>644.36334</ele><time>2026-05-08T20:00:49.000Z</time></trkpt>
        <trkpt lat="29.788121" lon="103.443294"><ele>642.7028</ele><time>2026-05-08T20:01:18.000Z</time></trkpt>
        <trkpt lat="29.788167" lon="103.443285"><ele>641.8805</ele><time>2026-05-08T20:01:28.000Z</time></trkpt>
        <trkpt lat="29.788215" lon="103.443219"><ele>642.26825</ele><time>2026-05-08T20:01:39.000Z</time></trkpt>
        <trkpt lat="29.788191" lon="103.443292"><ele>645.2194</ele><time>2026-05-08T20:01:58.000Z</time></trkpt>
        <trkpt lat="29.788231" lon="103.443265"><ele>645.8023</ele><time>2026-05-08T20:02:38.000Z</time></trkpt>
        <trkpt lat="29.788265" lon="103.443313"><ele>634.6685</ele><time>2026-05-08T20:03:56.000Z</time></trkpt>
        <trkpt lat="29.788297" lon="103.443375"><ele>638.59454</ele><time>2026-05-08T20:04:06.000Z</time></trkpt>
        <trkpt lat="29.788281" lon="103.443446"><ele>639.11487</ele><time>2026-05-08T20:04:15.000Z</time></trkpt>
        <trkpt lat="29.78832" lon="103.443404"><ele>638.01953</ele><time>2026-05-08T20:04:20.000Z</time></trkpt>
        <trkpt lat="29.788348" lon="103.443344"><ele>638.1411</ele><time>2026-05-08T20:04:35.000Z</time></trkpt>
        <trkpt lat="29.788391" lon="103.443365"><ele>639.61334</ele><time>2026-05-08T20:06:23.000Z</time></trkpt>
        <trkpt lat="29.788362" lon="103.44332"><ele>639.12494</ele><time>2026-05-08T20:06:32.000Z</time></trkpt>
        <trkpt lat="29.78831" lon="103.443269"><ele>640.5425</ele><time>2026-05-08T20:06:46.000Z</time></trkpt>
        <trkpt lat="29.788353" lon="103.443325"><ele>640.91406</ele><time>2026-05-08T20:06:49.000Z</time></trkpt>
        <trkpt lat="29.788399" lon="103.443323"><ele>639.19446</ele><time>2026-05-08T20:06:54.000Z</time></trkpt>
        <trkpt lat="29.788452" lon="103.443323"><ele>638.3542</ele><time>2026-05-08T20:06:59.000Z</time></trkpt>
        <trkpt lat="29.788496" lon="103.44331"><ele>635.4665</ele><time>2026-05-08T20:07:08.000Z</time></trkpt>
        <trkpt lat="29.788539" lon="103.443282"><ele>635.0659</ele><time>2026-05-08T20:07:24.000Z</time></trkpt>
        <trkpt lat="29.788581" lon="103.443263"><ele>636.1645</ele><time>2026-05-08T20:07:43.000Z</time></trkpt>
        <trkpt lat="29.788626" lon="103.443251"><ele>632.45013</ele><time>2026-05-08T20:07:58.000Z</time></trkpt>
        <trkpt lat="29.788644" lon="103.443201"><ele>634.9135</ele><time>2026-05-08T20:08:06.000Z</time></trkpt>
        <trkpt lat="29.78867" lon="103.443158"><ele>632.94366</ele><time>2026-05-08T20:08:14.000Z</time></trkpt>
        <trkpt lat="29.788715" lon="103.443174"><ele>633.7866</ele><time>2026-05-08T20:08:22.000Z</time></trkpt>
        <trkpt lat="29.788754" lon="103.443208"><ele>634.3668</ele><time>2026-05-08T20:08:31.000Z</time></trkpt>
        <trkpt lat="29.7888" lon="103.443228"><ele>626.9438</ele><time>2026-05-08T20:08:41.000Z</time></trkpt>
        <trkpt lat="29.788854" lon="103.44325"><ele>621.99817</ele><time>2026-05-08T20:08:50.000Z</time></trkpt>
        <trkpt lat="29.788877" lon="103.443171"><ele>624.9445</ele><time>2026-05-08T20:09:09.000Z</time></trkpt>
        <trkpt lat="29.788935" lon="103.443171"><ele>623.1066</ele><time>2026-05-08T20:09:16.000Z</time></trkpt>
        <trkpt lat="29.788992" lon="103.443192"><ele>625.5099</ele><time>2026-05-08T20:09:18.000Z</time></trkpt>
        <trkpt lat="29.789041" lon="103.443223"><ele>629.0256</ele><time>2026-05-08T20:09:23.000Z</time></trkpt>
        <trkpt lat="29.789051" lon="103.443281"><ele>630.4443</ele><time>2026-05-08T20:09:26.000Z</time></trkpt>
        <trkpt lat="29.78906" lon="103.443204"><ele>631.3395</ele><time>2026-05-08T20:09:29.000Z</time></trkpt>
        <trkpt lat="29.789106" lon="103.443181"><ele>632.7827</ele><time>2026-05-08T20:09:43.000Z</time></trkpt>
        <trkpt lat="29.789151" lon="103.443209"><ele>632.21326</ele><time>2026-05-08T20:09:52.000Z</time></trkpt>
        <trkpt lat="29.789203" lon="103.443191"><ele>629.9409</ele><time>2026-05-08T20:10:00.000Z</time></trkpt>
        <trkpt lat="29.789216" lon="103.443127"><ele>626.70337</ele><time>2026-05-08T20:10:07.000Z</time></trkpt>
        <trkpt lat="29.789262" lon="103.443102"><ele>624.2171</ele><time>2026-05-08T20:10:17.000Z</time></trkpt>
        <trkpt lat="29.789307" lon="103.443086"><ele>621.0315</ele><time>2026-05-08T20:10:20.000Z</time></trkpt>
        <trkpt lat="29.78934" lon="103.443038"><ele>615.4371</ele><time>2026-05-08T20:10:26.000Z</time></trkpt>
        <trkpt lat="29.789382" lon="103.443017"><ele>607.8967</ele><time>2026-05-08T20:10:35.000Z</time></trkpt>
        <trkpt lat="29.789431" lon="103.443003"><ele>599.22125</ele><time>2026-05-08T20:10:42.000Z</time></trkpt>
        <trkpt lat="29.789477" lon="103.44299"><ele>598.5109</ele><time>2026-05-08T20:10:48.000Z</time></trkpt>
        <trkpt lat="29.789503" lon="103.442944"><ele>597.7158</ele><time>2026-05-08T20:10:52.000Z</time></trkpt>
        <trkpt lat="29.789557" lon="103.442951"><ele>599.34357</ele><time>2026-05-08T20:11:04.000Z</time></trkpt>
        <trkpt lat="29.789615" lon="103.442942"><ele>598.534</ele><time>2026-05-08T20:11:08.000Z</time></trkpt>
        <trkpt lat="29.789663" lon="103.442927"><ele>595.83154</ele><time>2026-05-08T20:11:15.000Z</time></trkpt>
        <trkpt lat="29.789696" lon="103.442887"><ele>595.9273</ele><time>2026-05-08T20:11:23.000Z</time></trkpt>
        <trkpt lat="29.789714" lon="103.442835"><ele>594.73035</ele><time>2026-05-08T20:11:28.000Z</time></trkpt>
        <trkpt lat="29.789737" lon="103.442788"><ele>593.3803</ele><time>2026-05-08T20:11:33.000Z</time></trkpt>
        <trkpt lat="29.789787" lon="103.442782"><ele>591.42114</ele><time>2026-05-08T20:11:42.000Z</time></trkpt>
        <trkpt lat="29.789833" lon="103.442804"><ele>589.0345</ele><time>2026-05-08T20:11:51.000Z</time></trkpt>
        <trkpt lat="29.789866" lon="103.442839"><ele>593.1224</ele><time>2026-05-08T20:12:17.000Z</time></trkpt>
        <trkpt lat="29.789898" lon="103.442797"><ele>589.4369</ele><time>2026-05-08T20:13:10.000Z</time></trkpt>
        <trkpt lat="29.78995" lon="103.442787"><ele>591.87286</ele><time>2026-05-08T20:13:36.000Z</time></trkpt>
        <trkpt lat="29.789977" lon="103.442729"><ele>593.603</ele><time>2026-05-08T20:13:48.000Z</time></trkpt>
        <trkpt lat="29.789922" lon="103.442708"><ele>592.67377</ele><time>2026-05-08T20:14:02.000Z</time></trkpt>
        <trkpt lat="29.789966" lon="103.442624"><ele>595.80383</ele><time>2026-05-08T20:16:05.000Z</time></trkpt>
        <trkpt lat="29.789911" lon="103.442616"><ele>597.85846</ele><time>2026-05-08T20:16:27.000Z</time></trkpt>
        <trkpt lat="29.78987" lon="103.442584"><ele>600.9753</ele><time>2026-05-08T20:16:44.000Z</time></trkpt>
        <trkpt lat="29.789838" lon="103.442544"><ele>602.48865</ele><time>2026-05-08T20:17:10.000Z</time></trkpt>
        <trkpt lat="29.789793" lon="103.442505"><ele>603.6316</ele><time>2026-05-08T20:17:28.000Z</time></trkpt>
        <trkpt lat="29.789832" lon="103.442541"><ele>601.225</ele><time>2026-05-08T20:17:32.000Z</time></trkpt>
        <trkpt lat="29.789924" lon="103.442602"><ele>593.7996</ele><time>2026-05-08T20:17:41.000Z</time></trkpt>
        <trkpt lat="29.789966" lon="103.442625"><ele>590.232</ele><time>2026-05-08T20:17:49.000Z</time></trkpt>
        <trkpt lat="29.789832" lon="103.442543"><ele>585.49023</ele><time>2026-05-08T20:19:09.000Z</time></trkpt>
        <trkpt lat="29.789869" lon="103.442578"><ele>581.1833</ele><time>2026-05-08T20:19:22.000Z</time></trkpt>
        <trkpt lat="29.789793" lon="103.442528"><ele>577.47375</ele><time>2026-05-08T20:19:36.000Z</time></trkpt>
        <trkpt lat="29.789856" lon="103.44257"><ele>573.08295</ele><time>2026-05-08T20:20:42.000Z</time></trkpt>
        <trkpt lat="29.78991" lon="103.442608"><ele>574.37134</ele><time>2026-05-08T20:23:33.000Z</time></trkpt>
        <trkpt lat="29.789865" lon="103.442554"><ele>576.64453</ele><time>2026-05-08T20:24:49.000Z</time></trkpt>
        <trkpt lat="29.789898" lon="103.442593"><ele>576.67487</ele><time>2026-05-08T20:24:55.000Z</time></trkpt>
        <trkpt lat="29.789938" lon="103.442628"><ele>573.86273</ele><time>2026-05-08T20:25:12.000Z</time></trkpt>
        <trkpt lat="29.78989" lon="103.442593"><ele>589.53406</ele><time>2026-05-08T20:25:53.000Z</time></trkpt>
        <trkpt lat="29.789857" lon="103.442557"><ele>587.7623</ele><time>2026-05-08T20:25:57.000Z</time></trkpt>
        <trkpt lat="29.789884" lon="103.442607"><ele>579.4691</ele><time>2026-05-08T20:26:19.000Z</time></trkpt>
        <trkpt lat="29.789851" lon="103.442563"><ele>585.39545</ele><time>2026-05-08T20:26:46.000Z</time></trkpt>
        <trkpt lat="29.78989" lon="103.442599"><ele>576.1273</ele><time>2026-05-08T20:27:16.000Z</time></trkpt>
        <trkpt lat="29.789926" lon="103.442638"><ele>581.6439</ele><time>2026-05-08T20:27:26.000Z</time></trkpt>
        <trkpt lat="29.789883" lon="103.442619"><ele>592.2702</ele><time>2026-05-08T20:27:59.000Z</time></trkpt>
        <trkpt lat="29.789927" lon="103.442646"><ele>586.14056</ele><time>2026-05-08T20:28:13.000Z</time></trkpt>
        <trkpt lat="29.789872" lon="103.442638"><ele>575.0756</ele><time>2026-05-08T20:29:55.000Z</time></trkpt>
        <trkpt lat="29.789899" lon="103.442684"><ele>576.9921</ele><time>2026-05-08T20:30:07.000Z</time></trkpt>
        <trkpt lat="29.789958" lon="103.442712"><ele>579.3089</ele><time>2026-05-08T20:30:52.000Z</time></trkpt>
        <trkpt lat="29.789973" lon="103.442658"><ele>587.95935</ele><time>2026-05-08T20:31:07.000Z</time></trkpt>
        <trkpt lat="29.790024" lon="103.442659"><ele>589.86334</ele><time>2026-05-08T20:31:12.000Z</time></trkpt>
        <trkpt lat="29.79004" lon="103.442599"><ele>588.7749</ele><time>2026-05-08T20:31:22.000Z</time></trkpt>
        <trkpt lat="29.790043" lon="103.442541"><ele>588.79285</ele><time>2026-05-08T20:31:28.000Z</time></trkpt>
        <trkpt lat="29.790066" lon="103.442488"><ele>590.73285</ele><time>2026-05-08T20:31:34.000Z</time></trkpt>
        <trkpt lat="29.790069" lon="103.442434"><ele>588.87054</ele><time>2026-05-08T20:31:39.000Z</time></trkpt>
        <trkpt lat="29.790108" lon="103.442404"><ele>586.48334</ele><time>2026-05-08T20:31:43.000Z</time></trkpt>
        <trkpt lat="29.790151" lon="103.44238"><ele>590.93585</ele><time>2026-05-08T20:31:53.000Z</time></trkpt>
        <trkpt lat="29.790206" lon="103.442342"><ele>592.82056</ele><time>2026-05-08T20:32:00.000Z</time></trkpt>
        <trkpt lat="29.790253" lon="103.442321"><ele>599.085</ele><time>2026-05-08T20:32:13.000Z</time></trkpt>
        <trkpt lat="29.790274" lon="103.442261"><ele>600.4998</ele><time>2026-05-08T20:32:19.000Z</time></trkpt>
        <trkpt lat="29.790295" lon="103.442212"><ele>603.2569</ele><time>2026-05-08T20:32:29.000Z</time></trkpt>
        <trkpt lat="29.79035" lon="103.442234"><ele>603.7443</ele><time>2026-05-08T20:32:35.000Z</time></trkpt>
        <trkpt lat="29.790395" lon="103.442206"><ele>602.954</ele><time>2026-05-08T20:32:44.000Z</time></trkpt>
        <trkpt lat="29.790436" lon="103.442185"><ele>603.0323</ele><time>2026-05-08T20:32:48.000Z</time></trkpt>
        <trkpt lat="29.790482" lon="103.442173"><ele>603.7411</ele><time>2026-05-08T20:32:55.000Z</time></trkpt>
        <trkpt lat="29.790521" lon="103.442201"><ele>603.24335</ele><time>2026-05-08T20:33:00.000Z</time></trkpt>
        <trkpt lat="29.79056" lon="103.44217"><ele>602.7571</ele><time>2026-05-08T20:33:07.000Z</time></trkpt>
        <trkpt lat="29.790606" lon="103.442151"><ele>598.3442</ele><time>2026-05-08T20:33:20.000Z</time></trkpt>
        <trkpt lat="29.79065" lon="103.442129"><ele>599.91235</ele><time>2026-05-08T20:33:30.000Z</time></trkpt>
        <trkpt lat="29.790672" lon="103.44207"><ele>604.78845</ele><time>2026-05-08T20:33:52.000Z</time></trkpt>
        <trkpt lat="29.790699" lon="103.442122"><ele>607.3903</ele><time>2026-05-08T20:34:05.000Z</time></trkpt>
        <trkpt lat="29.790695" lon="103.442068"><ele>609.97394</ele><time>2026-05-08T20:34:36.000Z</time></trkpt>
        <trkpt lat="29.790696" lon="103.442013"><ele>610.5895</ele><time>2026-05-08T20:34:42.000Z</time></trkpt>
        <trkpt lat="29.790697" lon="103.441952"><ele>611.3512</ele><time>2026-05-08T20:34:52.000Z</time></trkpt>
        <trkpt lat="29.790675" lon="103.442062"><ele>609.261</ele><time>2026-05-08T20:35:06.000Z</time></trkpt>
        <trkpt lat="29.790774" lon="103.442313"><ele>610.5371</ele><time>2026-05-08T20:35:11.000Z</time></trkpt>
        <trkpt lat="29.790724" lon="103.442275"><ele>610.3385</ele><time>2026-05-08T20:35:16.000Z</time></trkpt>
        <trkpt lat="29.790732" lon="103.442217"><ele>610.304</ele><time>2026-05-08T20:35:19.000Z</time></trkpt>
        <trkpt lat="29.79074" lon="103.442151"><ele>610.2234</ele><time>2026-05-08T20:35:20.000Z</time></trkpt>
        <trkpt lat="29.79078" lon="103.442101"><ele>611.2093</ele><time>2026-05-08T20:35:23.000Z</time></trkpt>
        <trkpt lat="29.790848" lon="103.442235"><ele>612.2457</ele><time>2026-05-08T20:35:30.000Z</time></trkpt>
        <trkpt lat="29.790824" lon="103.44218"><ele>613.4107</ele><time>2026-05-08T20:35:32.000Z</time></trkpt>
        <trkpt lat="29.790797" lon="103.442123"><ele>612.2605</ele><time>2026-05-08T20:35:35.000Z</time></trkpt>
        <trkpt lat="29.790828" lon="103.442079"><ele>609.8612</ele><time>2026-05-08T20:35:42.000Z</time></trkpt>
        <trkpt lat="29.790823" lon="103.441998"><ele>611.2546</ele><time>2026-05-08T20:35:46.000Z</time></trkpt>
        <trkpt lat="29.790834" lon="103.441938"><ele>609.58215</ele><time>2026-05-08T20:35:51.000Z</time></trkpt>
        <trkpt lat="29.790863" lon="103.441888"><ele>608.27344</ele><time>2026-05-08T20:36:02.000Z</time></trkpt>
        <trkpt lat="29.790871" lon="103.441948"><ele>607.8583</ele><time>2026-05-08T20:36:03.000Z</time></trkpt>
        <trkpt lat="29.79087" lon="103.441874"><ele>606.7381</ele><time>2026-05-08T20:36:10.000Z</time></trkpt>
        <trkpt lat="29.790912" lon="103.441833"><ele>606.76575</ele><time>2026-05-08T20:36:15.000Z</time></trkpt>
        <trkpt lat="29.790959" lon="103.441902"><ele>608.3987</ele><time>2026-05-08T20:36:18.000Z</time></trkpt>
        <trkpt lat="29.791001" lon="103.44194"><ele>608.4608</ele><time>2026-05-08T20:36:22.000Z</time></trkpt>
        <trkpt lat="29.791022" lon="103.441992"><ele>608.2279</ele><time>2026-05-08T20:36:26.000Z</time></trkpt>
        <trkpt lat="29.791006" lon="103.441935"><ele>610.19476</ele><time>2026-05-08T20:36:36.000Z</time></trkpt>
        <trkpt lat="29.790977" lon="103.441889"><ele>609.7704</ele><time>2026-05-08T20:36:38.000Z</time></trkpt>
        <trkpt lat="29.790991" lon="103.441967"><ele>606.83276</ele><time>2026-05-08T20:36:44.000Z</time></trkpt>
        <trkpt lat="29.791038" lon="103.441967"><ele>605.15656</ele><time>2026-05-08T20:36:50.000Z</time></trkpt>
        <trkpt lat="29.79109" lon="103.441947"><ele>605.53986</ele><time>2026-05-08T20:36:56.000Z</time></trkpt>
        <trkpt lat="29.791137" lon="103.441958"><ele>604.8326</ele><time>2026-05-08T20:37:00.000Z</time></trkpt>
        <trkpt lat="29.791184" lon="103.441941"><ele>601.8903</ele><time>2026-05-08T20:37:09.000Z</time></trkpt>
        <trkpt lat="29.791207" lon="103.441892"><ele>599.8117</ele><time>2026-05-08T20:37:15.000Z</time></trkpt>
        <trkpt lat="29.791248" lon="103.441871"><ele>599.38336</ele><time>2026-05-08T20:37:21.000Z</time></trkpt>
        <trkpt lat="29.791291" lon="103.441848"><ele>597.2672</ele><time>2026-05-08T20:37:31.000Z</time></trkpt>
        <trkpt lat="29.79134" lon="103.441842"><ele>596.218</ele><time>2026-05-08T20:37:34.000Z</time></trkpt>
        <trkpt lat="29.791405" lon="103.441836"><ele>594.15405</ele><time>2026-05-08T20:37:40.000Z</time></trkpt>
        <trkpt lat="29.791448" lon="103.44182"><ele>588.4859</ele><time>2026-05-08T20:38:16.000Z</time></trkpt>
        <trkpt lat="29.791489" lon="103.441842"><ele>587.24176</ele><time>2026-05-08T20:38:21.000Z</time></trkpt>
        <trkpt lat="29.791538" lon="103.441847"><ele>585.8599</ele><time>2026-05-08T20:38:40.000Z</time></trkpt>
        <trkpt lat="29.791591" lon="103.441816"><ele>586.03265</ele><time>2026-05-08T20:38:42.000Z</time></trkpt>
        <trkpt lat="29.791634" lon="103.441841"><ele>586.66034</ele><time>2026-05-08T20:38:47.000Z</time></trkpt>
        <trkpt lat="29.791687" lon="103.441856"><ele>585.41907</ele><time>2026-05-08T20:38:50.000Z</time></trkpt>
        <trkpt lat="29.791718" lon="103.441816"><ele>584.58936</ele><time>2026-05-08T20:38:53.000Z</time></trkpt>
        <trkpt lat="29.791768" lon="103.441792"><ele>583.70264</ele><time>2026-05-08T20:38:57.000Z</time></trkpt>
        <trkpt lat="29.791822" lon="103.441779"><ele>582.6254</ele><time>2026-05-08T20:39:04.000Z</time></trkpt>
        <trkpt lat="29.791787" lon="103.441849"><ele>582.73615</ele><time>2026-05-08T20:39:27.000Z</time></trkpt>
        <trkpt lat="29.791836" lon="103.441843"><ele>585.03894</ele><time>2026-05-08T20:39:53.000Z</time></trkpt>
        <trkpt lat="29.791838" lon="103.44179"><ele>583.9694</ele><time>2026-05-08T20:40:03.000Z</time></trkpt>
        <trkpt lat="29.791891" lon="103.441783"><ele>581.6198</ele><time>2026-05-08T20:40:13.000Z</time></trkpt>
        <trkpt lat="29.79194" lon="103.441784"><ele>580.51874</ele><time>2026-05-08T20:40:17.000Z</time></trkpt>
        <trkpt lat="29.791986" lon="103.441765"><ele>580.0149</ele><time>2026-05-08T20:40:21.000Z</time></trkpt>
        <trkpt lat="29.792015" lon="103.441714"><ele>579.76117</ele><time>2026-05-08T20:40:35.000Z</time></trkpt>
        <trkpt lat="29.792034" lon="103.441664"><ele>578.4724</ele><time>2026-05-08T20:40:39.000Z</time></trkpt>
        <trkpt lat="29.792045" lon="103.441611"><ele>578.5067</ele><time>2026-05-08T20:40:47.000Z</time></trkpt>
        <trkpt lat="29.792081" lon="103.441557"><ele>577.2456</ele><time>2026-05-08T20:40:55.000Z</time></trkpt>
        <trkpt lat="29.792117" lon="103.441507"><ele>576.86993</ele><time>2026-05-08T20:41:21.000Z</time></trkpt>
        <trkpt lat="29.792164" lon="103.441482"><ele>577.08185</ele><time>2026-05-08T20:41:25.000Z</time></trkpt>
        <trkpt lat="29.792207" lon="103.441459"><ele>577.5313</ele><time>2026-05-08T20:41:37.000Z</time></trkpt>
        <trkpt lat="29.792164" lon="103.441475"><ele>577.40063</ele><time>2026-05-08T20:41:44.000Z</time></trkpt>
        <trkpt lat="29.792113" lon="103.441464"><ele>577.2324</ele><time>2026-05-08T20:42:05.000Z</time></trkpt>
        <trkpt lat="29.792151" lon="103.441426"><ele>576.82245</ele><time>2026-05-08T20:42:12.000Z</time></trkpt>
        <trkpt lat="29.792154" lon="103.441367"><ele>575.13745</ele><time>2026-05-08T20:42:17.000Z</time></trkpt>
        <trkpt lat="29.792188" lon="103.441333"><ele>574.9407</ele><time>2026-05-08T20:42:21.000Z</time></trkpt>
        <trkpt lat="29.79218" lon="103.44128"><ele>574.8288</ele><time>2026-05-08T20:42:27.000Z</time></trkpt>
        <trkpt lat="29.792188" lon="103.441226"><ele>575.8668</ele><time>2026-05-08T20:42:32.000Z</time></trkpt>
        <trkpt lat="29.792199" lon="103.441174"><ele>575.9407</ele><time>2026-05-08T20:42:46.000Z</time></trkpt>
        <trkpt lat="29.792188" lon="103.441124"><ele>576.65234</ele><time>2026-05-08T20:42:57.000Z</time></trkpt>
        <trkpt lat="29.79218" lon="103.441068"><ele>574.73145</ele><time>2026-05-08T20:43:24.000Z</time></trkpt>
        <trkpt lat="29.792213" lon="103.44103"><ele>575.81006</ele><time>2026-05-08T20:43:34.000Z</time></trkpt>
        <trkpt lat="29.792255" lon="103.440998"><ele>574.49023</ele><time>2026-05-08T20:44:09.000Z</time></trkpt>
        <trkpt lat="29.792288" lon="103.440956"><ele>576.93195</ele><time>2026-05-08T20:44:14.000Z</time></trkpt>
        <trkpt lat="29.792302" lon="103.440903"><ele>578.4624</ele><time>2026-05-08T20:44:23.000Z</time></trkpt>
        <trkpt lat="29.792323" lon="103.440857"><ele>582.3903</ele><time>2026-05-08T20:45:17.000Z</time></trkpt>
        <trkpt lat="29.792349" lon="103.44081"><ele>581.8066</ele><time>2026-05-08T20:45:24.000Z</time></trkpt>
        <trkpt lat="29.792376" lon="103.440764"><ele>580.45953</ele><time>2026-05-08T20:45:41.000Z</time></trkpt>
        <trkpt lat="29.792427" lon="103.44073"><ele>579.6488</ele><time>2026-05-08T20:46:03.000Z</time></trkpt>
        <trkpt lat="29.792463" lon="103.440694"><ele>582.4509</ele><time>2026-05-08T20:46:30.000Z</time></trkpt>
        <trkpt lat="29.792415" lon="103.440671"><ele>578.7635</ele><time>2026-05-08T20:46:47.000Z</time></trkpt>
        <trkpt lat="29.792449" lon="103.440635"><ele>578.3377</ele><time>2026-05-08T20:46:54.000Z</time></trkpt>
        <trkpt lat="29.7925" lon="103.440623"><ele>578.5125</ele><time>2026-05-08T20:46:57.000Z</time></trkpt>
        <trkpt lat="29.792503" lon="103.440562"><ele>578.48413</ele><time>2026-05-08T20:47:04.000Z</time></trkpt>
        <trkpt lat="29.792537" lon="103.440512"><ele>581.0936</ele><time>2026-05-08T20:47:14.000Z</time></trkpt>
        <trkpt lat="29.792538" lon="103.440456"><ele>581.3875</ele><time>2026-05-08T20:47:26.000Z</time></trkpt>
        <trkpt lat="29.792507" lon="103.440401"><ele>583.0286</ele><time>2026-05-08T20:47:33.000Z</time></trkpt>
        <trkpt lat="29.79257" lon="103.440368"><ele>582.60767</ele><time>2026-05-08T20:47:41.000Z</time></trkpt>
        <trkpt lat="29.792608" lon="103.440329"><ele>579.6515</ele><time>2026-05-08T20:47:47.000Z</time></trkpt>
        <trkpt lat="29.792632" lon="103.440285"><ele>575.04193</ele><time>2026-05-08T20:47:56.000Z</time></trkpt>
        <trkpt lat="29.792672" lon="103.440257"><ele>573.47595</ele><time>2026-05-08T20:48:05.000Z</time></trkpt>
        <trkpt lat="29.792719" lon="103.440253"><ele>572.4088</ele><time>2026-05-08T20:48:09.000Z</time></trkpt>
        <trkpt lat="29.792737" lon="103.440206"><ele>571.8785</ele><time>2026-05-08T20:48:17.000Z</time></trkpt>
        <trkpt lat="29.792779" lon="103.440183"><ele>570.91394</ele><time>2026-05-08T20:48:30.000Z</time></trkpt>
        <trkpt lat="29.792771" lon="103.440129"><ele>564.75116</ele><time>2026-05-08T20:48:53.000Z</time></trkpt>
        <trkpt lat="29.792818" lon="103.440116"><ele>565.2278</ele><time>2026-05-08T20:49:00.000Z</time></trkpt>
        <trkpt lat="29.792864" lon="103.440111"><ele>567.00287</ele><time>2026-05-08T20:49:19.000Z</time></trkpt>
        <trkpt lat="29.792894" lon="103.440072"><ele>562.6495</ele><time>2026-05-08T20:49:45.000Z</time></trkpt>
        <trkpt lat="29.792939" lon="103.440053"><ele>562.54706</ele><time>2026-05-08T20:49:51.000Z</time></trkpt>
        <trkpt lat="29.792968" lon="103.439987"><ele>557.57513</ele><time>2026-05-08T20:50:00.000Z</time></trkpt>
        <trkpt lat="29.793009" lon="103.439936"><ele>555.3661</ele><time>2026-05-08T20:50:05.000Z</time></trkpt>
        <trkpt lat="29.793032" lon="103.439886"><ele>552.7942</ele><time>2026-05-08T20:50:10.000Z</time></trkpt>
        <trkpt lat="29.793072" lon="103.439851"><ele>551.3828</ele><time>2026-05-08T20:50:21.000Z</time></trkpt>
        <trkpt lat="29.793104" lon="103.43981"><ele>550.7502</ele><time>2026-05-08T20:50:24.000Z</time></trkpt>
        <trkpt lat="29.793135" lon="103.439767"><ele>548.6599</ele><time>2026-05-08T20:50:33.000Z</time></trkpt>
        <trkpt lat="29.793176" lon="103.439734"><ele>546.6046</ele><time>2026-05-08T20:50:43.000Z</time></trkpt>
        <trkpt lat="29.793222" lon="103.439749"><ele>546.81586</ele><time>2026-05-08T20:50:50.000Z</time></trkpt>
        <trkpt lat="29.793253" lon="103.439701"><ele>545.99414</ele><time>2026-05-08T20:50:54.000Z</time></trkpt>
        <trkpt lat="29.793288" lon="103.439661"><ele>545.06866</ele><time>2026-05-08T20:51:00.000Z</time></trkpt>
        <trkpt lat="29.793329" lon="103.43962"><ele>544.1636</ele><time>2026-05-08T20:51:06.000Z</time></trkpt>
        <trkpt lat="29.793367" lon="103.439577"><ele>544.2061</ele><time>2026-05-08T20:51:11.000Z</time></trkpt>
        <trkpt lat="29.793407" lon="103.439551"><ele>543.81915</ele><time>2026-05-08T20:51:16.000Z</time></trkpt>
        <trkpt lat="29.79345" lon="103.439589"><ele>542.2665</ele><time>2026-05-08T20:51:23.000Z</time></trkpt>
        <trkpt lat="29.793495" lon="103.439583"><ele>541.4344</ele><time>2026-05-08T20:51:29.000Z</time></trkpt>
        <trkpt lat="29.79354" lon="103.439549"><ele>540.78394</ele><time>2026-05-08T20:51:37.000Z</time></trkpt>
        <trkpt lat="29.793587" lon="103.439555"><ele>540.74615</ele><time>2026-05-08T20:51:46.000Z</time></trkpt>
        <trkpt lat="29.793636" lon="103.439544"><ele>540.19257</ele><time>2026-05-08T20:51:51.000Z</time></trkpt>
        <trkpt lat="29.793683" lon="103.439546"><ele>541.2672</ele><time>2026-05-08T20:51:57.000Z</time></trkpt>
        <trkpt lat="29.793728" lon="103.439521"><ele>540.89636</ele><time>2026-05-08T20:52:02.000Z</time></trkpt>
        <trkpt lat="29.793774" lon="103.439502"><ele>540.4628</ele><time>2026-05-08T20:52:08.000Z</time></trkpt>
        <trkpt lat="29.793818" lon="103.439515"><ele>541.96295</ele><time>2026-05-08T20:52:14.000Z</time></trkpt>
        <trkpt lat="29.793866" lon="103.439506"><ele>542.41925</ele><time>2026-05-08T20:52:19.000Z</time></trkpt>
        <trkpt lat="29.793915" lon="103.439513"><ele>543.74243</ele><time>2026-05-08T20:52:28.000Z</time></trkpt>
        <trkpt lat="29.793948" lon="103.439473"><ele>543.4065</ele><time>2026-05-08T20:52:34.000Z</time></trkpt>
        <trkpt lat="29.793934" lon="103.439409"><ele>544.192</ele><time>2026-05-08T20:52:54.000Z</time></trkpt>
        <trkpt lat="29.793985" lon="103.439428"><ele>543.42334</ele><time>2026-05-08T20:52:58.000Z</time></trkpt>
        <trkpt lat="29.794017" lon="103.439469"><ele>543.8801</ele><time>2026-05-08T20:53:03.000Z</time></trkpt>
        <trkpt lat="29.794066" lon="103.439477"><ele>543.6715</ele><time>2026-05-08T20:53:09.000Z</time></trkpt>
        <trkpt lat="29.794113" lon="103.439453"><ele>543.48584</ele><time>2026-05-08T20:53:14.000Z</time></trkpt>
        <trkpt lat="29.794166" lon="103.43943"><ele>542.7971</ele><time>2026-05-08T20:53:19.000Z</time></trkpt>
        <trkpt lat="29.794218" lon="103.439439"><ele>542.9845</ele><time>2026-05-08T20:53:26.000Z</time></trkpt>
        <trkpt lat="29.794265" lon="103.439423"><ele>542.4648</ele><time>2026-05-08T20:53:31.000Z</time></trkpt>
        <trkpt lat="29.794315" lon="103.439434"><ele>543.5412</ele><time>2026-05-08T20:53:36.000Z</time></trkpt>
        <trkpt lat="29.794369" lon="103.43941"><ele>543.4335</ele><time>2026-05-08T20:53:42.000Z</time></trkpt>
        <trkpt lat="29.794413" lon="103.439383"><ele>544.0341</ele><time>2026-05-08T20:53:47.000Z</time></trkpt>
        <trkpt lat="29.794456" lon="103.439368"><ele>544.2384</ele><time>2026-05-08T20:53:52.000Z</time></trkpt>
        <trkpt lat="29.794507" lon="103.439379"><ele>543.66943</ele><time>2026-05-08T20:53:58.000Z</time></trkpt>
        <trkpt lat="29.794547" lon="103.439413"><ele>544.3358</ele><time>2026-05-08T20:54:11.000Z</time></trkpt>
        <trkpt lat="29.794593" lon="103.4394"><ele>542.3965</ele><time>2026-05-08T20:54:16.000Z</time></trkpt>
        <trkpt lat="29.79463" lon="103.439368"><ele>542.7568</ele><time>2026-05-08T20:54:20.000Z</time></trkpt>
        <trkpt lat="29.794676" lon="103.439355"><ele>543.3575</ele><time>2026-05-08T20:54:26.000Z</time></trkpt>
        <trkpt lat="29.794726" lon="103.439368"><ele>542.96075</ele><time>2026-05-08T20:54:35.000Z</time></trkpt>
        <trkpt lat="29.794769" lon="103.439345"><ele>541.8707</ele><time>2026-05-08T20:54:40.000Z</time></trkpt>
        <trkpt lat="29.794794" lon="103.439288"><ele>540.76117</ele><time>2026-05-08T20:54:46.000Z</time></trkpt>
        <trkpt lat="29.794797" lon="103.439229"><ele>540.4742</ele><time>2026-05-08T20:54:51.000Z</time></trkpt>
        <trkpt lat="29.794817" lon="103.439181"><ele>542.7331</ele><time>2026-05-08T20:55:02.000Z</time></trkpt>
        <trkpt lat="29.794841" lon="103.43913"><ele>541.57935</ele><time>2026-05-08T20:55:10.000Z</time></trkpt>
        <trkpt lat="29.794887" lon="103.439112"><ele>540.6918</ele><time>2026-05-08T20:55:21.000Z</time></trkpt>
        <trkpt lat="29.794925" lon="103.439079"><ele>539.0494</ele><time>2026-05-08T20:55:29.000Z</time></trkpt>
        <trkpt lat="29.79496" lon="103.439039"><ele>539.4641</ele><time>2026-05-08T20:55:45.000Z</time></trkpt>
        <trkpt lat="29.794993" lon="103.439003"><ele>537.5095</ele><time>2026-05-08T20:55:57.000Z</time></trkpt>
        <trkpt lat="29.795045" lon="103.438978"><ele>538.5345</ele><time>2026-05-08T20:56:17.000Z</time></trkpt>
        <trkpt lat="29.795086" lon="103.438952"><ele>537.3597</ele><time>2026-05-08T20:56:23.000Z</time></trkpt>
        <trkpt lat="29.795123" lon="103.438915"><ele>537.1518</ele><time>2026-05-08T20:56:29.000Z</time></trkpt>
        <trkpt lat="29.795147" lon="103.438862"><ele>537.0518</ele><time>2026-05-08T20:56:35.000Z</time></trkpt>
        <trkpt lat="29.795191" lon="103.438838"><ele>538.14557</ele><time>2026-05-08T20:56:41.000Z</time></trkpt>
        <trkpt lat="29.795224" lon="103.4388"><ele>538.8088</ele><time>2026-05-08T20:56:49.000Z</time></trkpt>
        <trkpt lat="29.795259" lon="103.438766"><ele>538.8727</ele><time>2026-05-08T20:56:57.000Z</time></trkpt>
        <trkpt lat="29.795295" lon="103.438726"><ele>539.1808</ele><time>2026-05-08T20:57:05.000Z</time></trkpt>
        <trkpt lat="29.795342" lon="103.43872"><ele>539.7654</ele><time>2026-05-08T20:57:12.000Z</time></trkpt>
        <trkpt lat="29.795383" lon="103.438755"><ele>539.45233</ele><time>2026-05-08T20:57:18.000Z</time></trkpt>
        <trkpt lat="29.795428" lon="103.438739"><ele>543.0718</ele><time>2026-05-08T20:57:26.000Z</time></trkpt>
        <trkpt lat="29.79548" lon="103.43873"><ele>543.9314</ele><time>2026-05-08T20:57:33.000Z</time></trkpt>
        <trkpt lat="29.795524" lon="103.438743"><ele>546.3223</ele><time>2026-05-08T20:57:59.000Z</time></trkpt>
        <trkpt lat="29.795562" lon="103.438771"><ele>546.4139</ele><time>2026-05-08T20:58:20.000Z</time></trkpt>
        <trkpt lat="29.795611" lon="103.438779"><ele>545.33997</ele><time>2026-05-08T20:58:30.000Z</time></trkpt>
        <trkpt lat="29.79565" lon="103.438807"><ele>544.7236</ele><time>2026-05-08T20:58:37.000Z</time></trkpt>
        <trkpt lat="29.795697" lon="103.438819"><ele>544.5156</ele><time>2026-05-08T20:58:45.000Z</time></trkpt>
        <trkpt lat="29.795742" lon="103.438841"><ele>543.03375</ele><time>2026-05-08T20:58:50.000Z</time></trkpt>
        <trkpt lat="29.795796" lon="103.438849"><ele>543.4087</ele><time>2026-05-08T20:58:55.000Z</time></trkpt>
        <trkpt lat="29.795848" lon="103.438826"><ele>542.2892</ele><time>2026-05-08T20:59:01.000Z</time></trkpt>
        <trkpt lat="29.795897" lon="103.43884"><ele>542.3595</ele><time>2026-05-08T20:59:05.000Z</time></trkpt>
        <trkpt lat="29.795943" lon="103.438838"><ele>540.5299</ele><time>2026-05-08T20:59:10.000Z</time></trkpt>
        <trkpt lat="29.79596" lon="103.438777"><ele>540.2548</ele><time>2026-05-08T20:59:15.000Z</time></trkpt>
        <trkpt lat="29.796006" lon="103.438797"><ele>539.22076</ele><time>2026-05-08T20:59:18.000Z</time></trkpt>
        <trkpt lat="29.796054" lon="103.438803"><ele>538.4852</ele><time>2026-05-08T20:59:24.000Z</time></trkpt>
        <trkpt lat="29.796093" lon="103.438769"><ele>537.21436</ele><time>2026-05-08T20:59:29.000Z</time></trkpt>
        <trkpt lat="29.796147" lon="103.438741"><ele>535.8623</ele><time>2026-05-08T20:59:34.000Z</time></trkpt>
        <trkpt lat="29.796185" lon="103.438772"><ele>535.8376</ele><time>2026-05-08T20:59:37.000Z</time></trkpt>
        <trkpt lat="29.796224" lon="103.438808"><ele>535.48486</ele><time>2026-05-08T20:59:41.000Z</time></trkpt>
        <trkpt lat="29.796265" lon="103.43876"><ele>535.68964</ele><time>2026-05-08T20:59:45.000Z</time></trkpt>
        <trkpt lat="29.796304" lon="103.438727"><ele>534.3089</ele><time>2026-05-08T20:59:50.000Z</time></trkpt>
        <trkpt lat="29.796354" lon="103.43872"><ele>538.44305</ele><time>2026-05-08T21:00:00.000Z</time></trkpt>
        <trkpt lat="29.7964" lon="103.438716"><ele>539.8779</ele><time>2026-05-08T21:00:09.000Z</time></trkpt>
        <trkpt lat="29.796447" lon="103.438713"><ele>541.0085</ele><time>2026-05-08T21:00:17.000Z</time></trkpt>
        <trkpt lat="29.796495" lon="103.438708"><ele>541.1506</ele><time>2026-05-08T21:00:22.000Z</time></trkpt>
        <trkpt lat="29.796547" lon="103.438661"><ele>540.24756</ele><time>2026-05-08T21:00:28.000Z</time></trkpt>
        <trkpt lat="29.796594" lon="103.438634"><ele>539.95166</ele><time>2026-05-08T21:00:34.000Z</time></trkpt>
        <trkpt lat="29.796623" lon="103.438685"><ele>540.40643</ele><time>2026-05-08T21:00:39.000Z</time></trkpt>
        <trkpt lat="29.796669" lon="103.438697"><ele>541.836</ele><time>2026-05-08T21:00:45.000Z</time></trkpt>
        <trkpt lat="29.796718" lon="103.438702"><ele>541.4657</ele><time>2026-05-08T21:00:55.000Z</time></trkpt>
        <trkpt lat="29.796758" lon="103.438728"><ele>540.0601</ele><time>2026-05-08T21:01:02.000Z</time></trkpt>
        <trkpt lat="29.796802" lon="103.438714"><ele>540.3629</ele><time>2026-05-08T21:01:11.000Z</time></trkpt>
        <trkpt lat="29.796849" lon="103.438686"><ele>539.1929</ele><time>2026-05-08T21:01:22.000Z</time></trkpt>
        <trkpt lat="29.796892" lon="103.438718"><ele>538.96094</ele><time>2026-05-08T21:01:26.000Z</time></trkpt>
        <trkpt lat="29.79693" lon="103.438681"><ele>538.6245</ele><time>2026-05-08T21:01:32.000Z</time></trkpt>
        <trkpt lat="29.796969" lon="103.438656"><ele>538.6895</ele><time>2026-05-08T21:01:35.000Z</time></trkpt>
        <trkpt lat="29.797018" lon="103.438641"><ele>551.34186</ele><time>2026-05-08T21:01:42.000Z</time></trkpt>
        <trkpt lat="29.797062" lon="103.438599"><ele>555.9996</ele><time>2026-05-08T21:01:47.000Z</time></trkpt>
        <trkpt lat="29.797108" lon="103.438612"><ele>558.88196</ele><time>2026-05-08T21:01:56.000Z</time></trkpt>
        <trkpt lat="29.797146" lon="103.438575"><ele>560.5003</ele><time>2026-05-08T21:02:05.000Z</time></trkpt>
        <trkpt lat="29.797189" lon="103.438559"><ele>560.1873</ele><time>2026-05-08T21:02:12.000Z</time></trkpt>
        <trkpt lat="29.797243" lon="103.438545"><ele>561.07806</ele><time>2026-05-08T21:02:16.000Z</time></trkpt>
        <trkpt lat="29.797296" lon="103.43855"><ele>561.2488</ele><time>2026-05-08T21:02:25.000Z</time></trkpt>
        <trkpt lat="29.797342" lon="103.438521"><ele>561.4075</ele><time>2026-05-08T21:02:31.000Z</time></trkpt>
        <trkpt lat="29.797392" lon="103.438492"><ele>560.3858</ele><time>2026-05-08T21:02:37.000Z</time></trkpt>
        <trkpt lat="29.797401" lon="103.43844"><ele>559.064</ele><time>2026-05-08T21:02:45.000Z</time></trkpt>
        <trkpt lat="29.797441" lon="103.438411"><ele>557.7847</ele><time>2026-05-08T21:03:17.000Z</time></trkpt>
        <trkpt lat="29.797474" lon="103.438366"><ele>556.0192</ele><time>2026-05-08T21:03:32.000Z</time></trkpt>
        <trkpt lat="29.797531" lon="103.438376"><ele>556.4265</ele><time>2026-05-08T21:04:19.000Z</time></trkpt>
        <trkpt lat="29.797498" lon="103.438339"><ele>556.2997</ele><time>2026-05-08T21:04:28.000Z</time></trkpt>
        <trkpt lat="29.797447" lon="103.438327"><ele>556.3068</ele><time>2026-05-08T21:04:39.000Z</time></trkpt>
        <trkpt lat="29.797421" lon="103.438378"><ele>558.03046</ele><time>2026-05-08T21:05:25.000Z</time></trkpt>
        <trkpt lat="29.797425" lon="103.4383"><ele>556.82635</ele><time>2026-05-08T21:11:28.000Z</time></trkpt>
        <trkpt lat="29.797392" lon="103.438338"><ele>557.0935</ele><time>2026-05-08T21:11:57.000Z</time></trkpt>
        <trkpt lat="29.797354" lon="103.438382"><ele>556.7401</ele><time>2026-05-08T21:12:02.000Z</time></trkpt>
        <trkpt lat="29.797398" lon="103.438396"><ele>555.1768</ele><time>2026-05-08T21:12:22.000Z</time></trkpt>
        <trkpt lat="29.797395" lon="103.43845"><ele>552.7872</ele><time>2026-05-08T21:13:09.000Z</time></trkpt>
        <trkpt lat="29.797439" lon="103.438418"><ele>555.05505</ele><time>2026-05-08T21:13:41.000Z</time></trkpt>
        <trkpt lat="29.797479" lon="103.43837"><ele>556.21686</ele><time>2026-05-08T21:14:39.000Z</time></trkpt>
        <trkpt lat="29.797451" lon="103.438415"><ele>555.8809</ele><time>2026-05-08T21:15:08.000Z</time></trkpt>
        <trkpt lat="29.797488" lon="103.438383"><ele>555.15936</ele><time>2026-05-08T21:15:28.000Z</time></trkpt>
        <trkpt lat="29.797539" lon="103.438371"><ele>553.4262</ele><time>2026-05-08T21:15:56.000Z</time></trkpt>
        <trkpt lat="29.7975" lon="103.438346"><ele>554.4178</ele><time>2026-05-08T21:16:58.000Z</time></trkpt>
        <trkpt lat="29.797455" lon="103.438335"><ele>552.3446</ele><time>2026-05-08T21:18:40.000Z</time></trkpt>
        <trkpt lat="29.797479" lon="103.438385"><ele>553.11945</ele><time>2026-05-08T21:18:50.000Z</time></trkpt>
        <trkpt lat="29.797524" lon="103.438351"><ele>553.40485</ele><time>2026-05-08T21:21:38.000Z</time></trkpt>
        <trkpt lat="29.797479" lon="103.438352"><ele>552.80493</ele><time>2026-05-08T21:22:19.000Z</time></trkpt>
        <trkpt lat="29.797513" lon="103.438418"><ele>552.28217</ele><time>2026-05-08T21:23:08.000Z</time></trkpt>
        <trkpt lat="29.79748" lon="103.43838"><ele>552.67456</ele><time>2026-05-08T21:23:11.000Z</time></trkpt>
        <trkpt lat="29.797551" lon="103.438362"><ele>553.654</ele><time>2026-05-08T21:23:27.000Z</time></trkpt>
        <trkpt lat="29.797505" lon="103.438401"><ele>551.96967</ele><time>2026-05-08T21:23:40.000Z</time></trkpt>
        <trkpt lat="29.797508" lon="103.438345"><ele>552.58466</ele><time>2026-05-08T21:24:22.000Z</time></trkpt>
        <trkpt lat="29.797553" lon="103.438314"><ele>551.56726</ele><time>2026-05-08T21:25:01.000Z</time></trkpt>
        <trkpt lat="29.797589" lon="103.438281"><ele>551.355</ele><time>2026-05-08T21:25:06.000Z</time></trkpt>
        <trkpt lat="29.797636" lon="103.438265"><ele>551.2378</ele><time>2026-05-08T21:26:55.000Z</time></trkpt>
        <trkpt lat="29.797607" lon="103.438308"><ele>551.67303</ele><time>2026-05-08T21:30:15.000Z</time></trkpt>
        <trkpt lat="29.797651" lon="103.438291"><ele>550.98834</ele><time>2026-05-08T21:30:35.000Z</time></trkpt>
        <trkpt lat="29.797689" lon="103.438252"><ele>549.0519</ele><time>2026-05-08T21:32:04.000Z</time></trkpt>
        <trkpt lat="29.79772" lon="103.438211"><ele>548.7095</ele><time>2026-05-08T21:32:11.000Z</time></trkpt>
        <trkpt lat="29.797763" lon="103.438185"><ele>546.65955</ele><time>2026-05-08T21:32:26.000Z</time></trkpt>
        <trkpt lat="29.797799" lon="103.438149"><ele>546.5977</ele><time>2026-05-08T21:32:34.000Z</time></trkpt>
        <trkpt lat="29.797837" lon="103.438109"><ele>546.4908</ele><time>2026-05-08T21:32:40.000Z</time></trkpt>
        <trkpt lat="29.797876" lon="103.438078"><ele>546.0002</ele><time>2026-05-08T21:32:45.000Z</time></trkpt>
        <trkpt lat="29.797894" lon="103.438029"><ele>544.9945</ele><time>2026-05-08T21:32:51.000Z</time></trkpt>
        <trkpt lat="29.797924" lon="103.437979"><ele>544.35095</ele><time>2026-05-08T21:32:59.000Z</time></trkpt>
        <trkpt lat="29.797958" lon="103.437933"><ele>543.97943</ele><time>2026-05-08T21:33:06.000Z</time></trkpt>
        <trkpt lat="29.797982" lon="103.437884"><ele>542.42554</ele><time>2026-05-08T21:33:16.000Z</time></trkpt>
        <trkpt lat="29.798002" lon="103.437833"><ele>542.2031</ele><time>2026-05-08T21:33:23.000Z</time></trkpt>
        <trkpt lat="29.798" lon="103.437773"><ele>542.83563</ele><time>2026-05-08T21:33:30.000Z</time></trkpt>
        <trkpt lat="29.798005" lon="103.437715"><ele>543.47076</ele><time>2026-05-08T21:33:37.000Z</time></trkpt>
        <trkpt lat="29.797996" lon="103.437654"><ele>543.0127</ele><time>2026-05-08T21:33:44.000Z</time></trkpt>
        <trkpt lat="29.797965" lon="103.437615"><ele>542.5447</ele><time>2026-05-08T21:33:48.000Z</time></trkpt>
        <trkpt lat="29.797924" lon="103.437586"><ele>543.79877</ele><time>2026-05-08T21:33:52.000Z</time></trkpt>
        <trkpt lat="29.797906" lon="103.437537"><ele>544.2055</ele><time>2026-05-08T21:33:59.000Z</time></trkpt>
        <trkpt lat="29.797866" lon="103.437502"><ele>544.6061</ele><time>2026-05-08T21:34:07.000Z</time></trkpt>
        <trkpt lat="29.797844" lon="103.437455"><ele>545.0655</ele><time>2026-05-08T21:34:13.000Z</time></trkpt>
        <trkpt lat="29.797817" lon="103.437402"><ele>546.40173</ele><time>2026-05-08T21:34:20.000Z</time></trkpt>
        <trkpt lat="29.797791" lon="103.437353"><ele>546.77856</ele><time>2026-05-08T21:34:30.000Z</time></trkpt>
        <trkpt lat="29.79775" lon="103.437326"><ele>548.5719</ele><time>2026-05-08T21:34:39.000Z</time></trkpt>
        <trkpt lat="29.797724" lon="103.437275"><ele>550.2127</ele><time>2026-05-08T21:34:47.000Z</time></trkpt>
        <trkpt lat="29.797707" lon="103.437226"><ele>550.1049</ele><time>2026-05-08T21:34:55.000Z</time></trkpt>
        <trkpt lat="29.797719" lon="103.437173"><ele>551.1376</ele><time>2026-05-08T21:35:03.000Z</time></trkpt>
        <trkpt lat="29.797698" lon="103.437125"><ele>551.82916</ele><time>2026-05-08T21:35:11.000Z</time></trkpt>
        <trkpt lat="29.797662" lon="103.437087"><ele>551.9684</ele><time>2026-05-08T21:35:17.000Z</time></trkpt>
        <trkpt lat="29.797648" lon="103.437038"><ele>553.2252</ele><time>2026-05-08T21:35:24.000Z</time></trkpt>
        <trkpt lat="29.797618" lon="103.436998"><ele>553.4183</ele><time>2026-05-08T21:35:30.000Z</time></trkpt>
        <trkpt lat="29.797597" lon="103.43695"><ele>554.61176</ele><time>2026-05-08T21:35:37.000Z</time></trkpt>
        <trkpt lat="29.797589" lon="103.436898"><ele>555.40967</ele><time>2026-05-08T21:35:44.000Z</time></trkpt>
        <trkpt lat="29.797566" lon="103.436846"><ele>556.62476</ele><time>2026-05-08T21:35:51.000Z</time></trkpt>
        <trkpt lat="29.797532" lon="103.436812"><ele>556.25903</ele><time>2026-05-08T21:36:09.000Z</time></trkpt>
        <trkpt lat="29.797504" lon="103.436762"><ele>556.9434</ele><time>2026-05-08T21:36:22.000Z</time></trkpt>
        <trkpt lat="29.797463" lon="103.436736"><ele>558.39075</ele><time>2026-05-08T21:36:27.000Z</time></trkpt>
        <trkpt lat="29.797411" lon="103.436728"><ele>559.36145</ele><time>2026-05-08T21:36:33.000Z</time></trkpt>
        <trkpt lat="29.797371" lon="103.436689"><ele>560.407</ele><time>2026-05-08T21:36:38.000Z</time></trkpt>
        <trkpt lat="29.797326" lon="103.436685"><ele>560.08374</ele><time>2026-05-08T21:36:42.000Z</time></trkpt>
        <trkpt lat="29.797275" lon="103.436669"><ele>560.6671</ele><time>2026-05-08T21:36:48.000Z</time></trkpt>
        <trkpt lat="29.797233" lon="103.436637"><ele>562.19934</ele><time>2026-05-08T21:36:53.000Z</time></trkpt>
        <trkpt lat="29.797186" lon="103.436611"><ele>564.9357</ele><time>2026-05-08T21:36:58.000Z</time></trkpt>
        <trkpt lat="29.797137" lon="103.436584"><ele>567.0907</ele><time>2026-05-08T21:37:04.000Z</time></trkpt>
        <trkpt lat="29.797117" lon="103.436535"><ele>567.21875</ele><time>2026-05-08T21:37:09.000Z</time></trkpt>
        <trkpt lat="29.797117" lon="103.436472"><ele>569.1243</ele><time>2026-05-08T21:37:17.000Z</time></trkpt>
        <trkpt lat="29.797155" lon="103.436436"><ele>569.0748</ele><time>2026-05-08T21:37:25.000Z</time></trkpt>
        <trkpt lat="29.797175" lon="103.43639"><ele>569.2935</ele><time>2026-05-08T21:37:31.000Z</time></trkpt>
        <trkpt lat="29.797202" lon="103.436347"><ele>569.48083</ele><time>2026-05-08T21:37:35.000Z</time></trkpt>
        <trkpt lat="29.797211" lon="103.436291"><ele>569.3221</ele><time>2026-05-08T21:37:41.000Z</time></trkpt>
        <trkpt lat="29.797227" lon="103.436235"><ele>568.7384</ele><time>2026-05-08T21:37:52.000Z</time></trkpt>
        <trkpt lat="29.797261" lon="103.436188"><ele>571.5522</ele><time>2026-05-08T21:38:22.000Z</time></trkpt>
        <trkpt lat="29.797291" lon="103.436149"><ele>571.83246</ele><time>2026-05-08T21:38:31.000Z</time></trkpt>
        <trkpt lat="29.797328" lon="103.436118"><ele>572.3478</ele><time>2026-05-08T21:38:42.000Z</time></trkpt>
        <trkpt lat="29.797367" lon="103.436084"><ele>573.0806</ele><time>2026-05-08T21:38:50.000Z</time></trkpt>
        <trkpt lat="29.797405" lon="103.436051"><ele>573.6493</ele><time>2026-05-08T21:38:56.000Z</time></trkpt>
        <trkpt lat="29.797451" lon="103.436013"><ele>574.6266</ele><time>2026-05-08T21:39:03.000Z</time></trkpt>
        <trkpt lat="29.797479" lon="103.435958"><ele>573.1165</ele><time>2026-05-08T21:39:09.000Z</time></trkpt>
        <trkpt lat="29.797505" lon="103.43591"><ele>572.9079</ele><time>2026-05-08T21:39:15.000Z</time></trkpt>
        <trkpt lat="29.797521" lon="103.43586"><ele>573.1749</ele><time>2026-05-08T21:39:24.000Z</time></trkpt>
        <trkpt lat="29.797556" lon="103.435814"><ele>575.638</ele><time>2026-05-08T21:39:55.000Z</time></trkpt>
        <trkpt lat="29.797556" lon="103.435755"><ele>573.87976</ele><time>2026-05-08T21:40:01.000Z</time></trkpt>
        <trkpt lat="29.797543" lon="103.435689"><ele>572.85974</ele><time>2026-05-08T21:40:06.000Z</time></trkpt>
        <trkpt lat="29.79754" lon="103.435633"><ele>572.61255</ele><time>2026-05-08T21:40:12.000Z</time></trkpt>
        <trkpt lat="29.797523" lon="103.435584"><ele>572.83026</ele><time>2026-05-08T21:40:15.000Z</time></trkpt>
        <trkpt lat="29.797504" lon="103.435526"><ele>572.252</ele><time>2026-05-08T21:40:20.000Z</time></trkpt>
        <trkpt lat="29.797521" lon="103.435478"><ele>572.2083</ele><time>2026-05-08T21:40:23.000Z</time></trkpt>
        <trkpt lat="29.797511" lon="103.43542"><ele>572.0137</ele><time>2026-05-08T21:40:27.000Z</time></trkpt>
        <trkpt lat="29.797503" lon="103.435369"><ele>571.75006</ele><time>2026-05-08T21:40:31.000Z</time></trkpt>
        <trkpt lat="29.797514" lon="103.43531"><ele>570.94196</ele><time>2026-05-08T21:40:35.000Z</time></trkpt>
        <trkpt lat="29.797535" lon="103.435262"><ele>570.47205</ele><time>2026-05-08T21:40:39.000Z</time></trkpt>
        <trkpt lat="29.797556" lon="103.435208"><ele>570.3214</ele><time>2026-05-08T21:40:44.000Z</time></trkpt>
        <trkpt lat="29.797605" lon="103.435184"><ele>568.4145</ele><time>2026-05-08T21:41:03.000Z</time></trkpt>
        <trkpt lat="29.797662" lon="103.435175"><ele>568.0455</ele><time>2026-05-08T21:41:24.000Z</time></trkpt>
        <trkpt lat="29.797705" lon="103.435155"><ele>566.99585</ele><time>2026-05-08T21:41:29.000Z</time></trkpt>
        <trkpt lat="29.79775" lon="103.435137"><ele>566.6304</ele><time>2026-05-08T21:41:35.000Z</time></trkpt>
        <trkpt lat="29.797764" lon="103.435189"><ele>564.734</ele><time>2026-05-08T21:41:54.000Z</time></trkpt>
        <trkpt lat="29.797797" lon="103.435228"><ele>563.0695</ele><time>2026-05-08T21:42:00.000Z</time></trkpt>
        <trkpt lat="29.79783" lon="103.435266"><ele>559.9459</ele><time>2026-05-08T21:42:07.000Z</time></trkpt>
        <trkpt lat="29.797872" lon="103.435239"><ele>559.438</ele><time>2026-05-08T21:42:30.000Z</time></trkpt>
        <trkpt lat="29.797906" lon="103.435204"><ele>558.3386</ele><time>2026-05-08T21:42:38.000Z</time></trkpt>
        <trkpt lat="29.79796" lon="103.435181"><ele>557.2431</ele><time>2026-05-08T21:42:46.000Z</time></trkpt>
        <trkpt lat="29.798013" lon="103.435147"><ele>554.8914</ele><time>2026-05-08T21:42:54.000Z</time></trkpt>
        <trkpt lat="29.798024" lon="103.435095"><ele>554.9163</ele><time>2026-05-08T21:42:59.000Z</time></trkpt>
        <trkpt lat="29.798038" lon="103.435044"><ele>553.493</ele><time>2026-05-08T21:43:03.000Z</time></trkpt>
        <trkpt lat="29.798052" lon="103.434994"><ele>552.4312</ele><time>2026-05-08T21:43:08.000Z</time></trkpt>
        <trkpt lat="29.798076" lon="103.434943"><ele>551.688</ele><time>2026-05-08T21:43:13.000Z</time></trkpt>
        <trkpt lat="29.79809" lon="103.434891"><ele>550.7862</ele><time>2026-05-08T21:43:17.000Z</time></trkpt>
        <trkpt lat="29.798101" lon="103.434826"><ele>551.8213</ele><time>2026-05-08T21:43:21.000Z</time></trkpt>
        <trkpt lat="29.798128" lon="103.434774"><ele>551.7917</ele><time>2026-05-08T21:43:25.000Z</time></trkpt>
        <trkpt lat="29.798137" lon="103.434716"><ele>552.9602</ele><time>2026-05-08T21:43:29.000Z</time></trkpt>
        <trkpt lat="29.798147" lon="103.434657"><ele>553.7348</ele><time>2026-05-08T21:43:34.000Z</time></trkpt>
        <trkpt lat="29.798202" lon="103.434638"><ele>547.1376</ele><time>2026-05-08T21:43:44.000Z</time></trkpt>
        <trkpt lat="29.798223" lon="103.434587"><ele>549.04364</ele><time>2026-05-08T21:43:48.000Z</time></trkpt>
        <trkpt lat="29.798218" lon="103.434523"><ele>549.05365</ele><time>2026-05-08T21:43:52.000Z</time></trkpt>
        <trkpt lat="29.79825" lon="103.434482"><ele>548.77185</ele><time>2026-05-08T21:43:56.000Z</time></trkpt>
        <trkpt lat="29.798296" lon="103.434485"><ele>547.17993</ele><time>2026-05-08T21:44:01.000Z</time></trkpt>
        <trkpt lat="29.798293" lon="103.434426"><ele>547.44025</ele><time>2026-05-08T21:44:15.000Z</time></trkpt>
        <trkpt lat="29.798293" lon="103.434369"><ele>545.78845</ele><time>2026-05-08T21:44:23.000Z</time></trkpt>
        <trkpt lat="29.798297" lon="103.434313"><ele>545.3281</ele><time>2026-05-08T21:44:29.000Z</time></trkpt>
        <trkpt lat="29.798321" lon="103.434258"><ele>543.253</ele><time>2026-05-08T21:44:37.000Z</time></trkpt>
        <trkpt lat="29.798321" lon="103.434205"><ele>544.49097</ele><time>2026-05-08T21:44:59.000Z</time></trkpt>
        <trkpt lat="29.798297" lon="103.434152"><ele>543.621</ele><time>2026-05-08T21:45:06.000Z</time></trkpt>
        <trkpt lat="29.798317" lon="103.434092"><ele>543.49884</ele><time>2026-05-08T21:45:12.000Z</time></trkpt>
        <trkpt lat="29.79832" lon="103.43403"><ele>541.618</ele><time>2026-05-08T21:45:20.000Z</time></trkpt>
        <trkpt lat="29.798327" lon="103.433974"><ele>541.1428</ele><time>2026-05-08T21:45:24.000Z</time></trkpt>
        <trkpt lat="29.798327" lon="103.433919"><ele>540.0972</ele><time>2026-05-08T21:45:30.000Z</time></trkpt>
        <trkpt lat="29.798368" lon="103.433881"><ele>536.7602</ele><time>2026-05-08T21:45:38.000Z</time></trkpt>
        <trkpt lat="29.798389" lon="103.433835"><ele>534.33575</ele><time>2026-05-08T21:45:48.000Z</time></trkpt>
        <trkpt lat="29.798394" lon="103.433771"><ele>534.0539</ele><time>2026-05-08T21:45:55.000Z</time></trkpt>
        <trkpt lat="29.798394" lon="103.433715"><ele>533.2965</ele><time>2026-05-08T21:46:00.000Z</time></trkpt>
        <trkpt lat="29.798428" lon="103.433675"><ele>532.324</ele><time>2026-05-08T21:46:09.000Z</time></trkpt>
        <trkpt lat="29.79846" lon="103.433629"><ele>530.24963</ele><time>2026-05-08T21:46:18.000Z</time></trkpt>
        <trkpt lat="29.798506" lon="103.433612"><ele>527.6667</ele><time>2026-05-08T21:46:33.000Z</time></trkpt>
        <trkpt lat="29.798527" lon="103.433557"><ele>525.99036</ele><time>2026-05-08T21:46:40.000Z</time></trkpt>
        <trkpt lat="29.79854" lon="103.433502"><ele>523.4108</ele><time>2026-05-08T21:46:46.000Z</time></trkpt>
        <trkpt lat="29.798541" lon="103.433438"><ele>524.18866</ele><time>2026-05-08T21:46:52.000Z</time></trkpt>
        <trkpt lat="29.798548" lon="103.433384"><ele>524.75854</ele><time>2026-05-08T21:46:58.000Z</time></trkpt>
        <trkpt lat="29.798572" lon="103.43334"><ele>522.82965</ele><time>2026-05-08T21:47:05.000Z</time></trkpt>
        <trkpt lat="29.798604" lon="103.433303"><ele>522.5784</ele><time>2026-05-08T21:47:11.000Z</time></trkpt>
        <trkpt lat="29.798623" lon="103.433249"><ele>519.7599</ele><time>2026-05-08T21:47:21.000Z</time></trkpt>
        <trkpt lat="29.798655" lon="103.433204"><ele>518.5858</ele><time>2026-05-08T21:47:31.000Z</time></trkpt>
        <trkpt lat="29.798671" lon="103.433149"><ele>517.7395</ele><time>2026-05-08T21:47:39.000Z</time></trkpt>
        <trkpt lat="29.798667" lon="103.433098"><ele>517.84436</ele><time>2026-05-08T21:47:45.000Z</time></trkpt>
        <trkpt lat="29.798654" lon="103.433041"><ele>516.9268</ele><time>2026-05-08T21:47:50.000Z</time></trkpt>
        <trkpt lat="29.798655" lon="103.432989"><ele>516.31995</ele><time>2026-05-08T21:47:55.000Z</time></trkpt>
        <trkpt lat="29.798638" lon="103.432933"><ele>515.1215</ele><time>2026-05-08T21:48:00.000Z</time></trkpt>
        <trkpt lat="29.798626" lon="103.432876"><ele>512.4253</ele><time>2026-05-08T21:48:06.000Z</time></trkpt>
        <trkpt lat="29.798621" lon="103.432818"><ele>510.77777</ele><time>2026-05-08T21:48:14.000Z</time></trkpt>
        <trkpt lat="29.798599" lon="103.432771"><ele>510.30664</ele><time>2026-05-08T21:48:19.000Z</time></trkpt>
        <trkpt lat="29.798583" lon="103.432721"><ele>510.99356</ele><time>2026-05-08T21:48:26.000Z</time></trkpt>
        <trkpt lat="29.798619" lon="103.432689"><ele>510.53348</ele><time>2026-05-08T21:48:31.000Z</time></trkpt>
        <trkpt lat="29.79866" lon="103.432659"><ele>511.7214</ele><time>2026-05-08T21:48:38.000Z</time></trkpt>
        <trkpt lat="29.798677" lon="103.432596"><ele>510.88394</ele><time>2026-05-08T21:48:44.000Z</time></trkpt>
        <trkpt lat="29.798675" lon="103.43254"><ele>512.3135</ele><time>2026-05-08T21:48:51.000Z</time></trkpt>
        <trkpt lat="29.798713" lon="103.432507"><ele>511.69452</ele><time>2026-05-08T21:48:59.000Z</time></trkpt>
        <trkpt lat="29.798734" lon="103.432455"><ele>512.26794</ele><time>2026-05-08T21:49:09.000Z</time></trkpt>
        <trkpt lat="29.798758" lon="103.432403"><ele>512.5215</ele><time>2026-05-08T21:49:15.000Z</time></trkpt>
        <trkpt lat="29.79877" lon="103.432353"><ele>512.86426</ele><time>2026-05-08T21:49:22.000Z</time></trkpt>
        <trkpt lat="29.798772" lon="103.432291"><ele>514.5126</ele><time>2026-05-08T21:49:30.000Z</time></trkpt>
        <trkpt lat="29.79881" lon="103.432258"><ele>514.5252</ele><time>2026-05-08T21:49:39.000Z</time></trkpt>
        <trkpt lat="29.798857" lon="103.432262"><ele>513.62714</ele><time>2026-05-08T21:49:49.000Z</time></trkpt>
        <trkpt lat="29.798909" lon="103.432282"><ele>513.7085</ele><time>2026-05-08T21:50:04.000Z</time></trkpt>
        <trkpt lat="29.798949" lon="103.432325"><ele>513.0497</ele><time>2026-05-08T21:50:13.000Z</time></trkpt>
        <trkpt lat="29.798995" lon="103.432309"><ele>511.3752</ele><time>2026-05-08T21:50:30.000Z</time></trkpt>
        <trkpt lat="29.79895" lon="103.432296"><ele>514.7992</ele><time>2026-05-08T21:50:45.000Z</time></trkpt>
        <trkpt lat="29.7989" lon="103.432298"><ele>516.7616</ele><time>2026-05-08T21:50:49.000Z</time></trkpt>
        <trkpt lat="29.798947" lon="103.432308"><ele>514.15906</ele><time>2026-05-08T21:51:05.000Z</time></trkpt>
        <trkpt lat="29.798993" lon="103.432304"><ele>511.93375</ele><time>2026-05-08T21:51:08.000Z</time></trkpt>
        <trkpt lat="29.799034" lon="103.43227"><ele>509.9615</ele><time>2026-05-08T21:51:11.000Z</time></trkpt>
        <trkpt lat="29.799083" lon="103.432258"><ele>511.93423</ele><time>2026-05-08T21:51:18.000Z</time></trkpt>
        <trkpt lat="29.799125" lon="103.432227"><ele>513.9289</ele><time>2026-05-08T21:51:21.000Z</time></trkpt>
        <trkpt lat="29.799172" lon="103.432219"><ele>520.43854</ele><time>2026-05-08T21:51:41.000Z</time></trkpt>
        <trkpt lat="29.799204" lon="103.432182"><ele>519.984</ele><time>2026-05-08T21:51:44.000Z</time></trkpt>
        <trkpt lat="29.799259" lon="103.432162"><ele>520.8979</ele><time>2026-05-08T21:51:48.000Z</time></trkpt>
        <trkpt lat="29.799305" lon="103.432165"><ele>522.668</ele><time>2026-05-08T21:51:53.000Z</time></trkpt>
        <trkpt lat="29.799362" lon="103.43218"><ele>522.3681</ele><time>2026-05-08T21:52:03.000Z</time></trkpt>
        <trkpt lat="29.799416" lon="103.432173"><ele>521.72577</ele><time>2026-05-08T21:52:08.000Z</time></trkpt>
        <trkpt lat="29.799466" lon="103.432162"><ele>523.004</ele><time>2026-05-08T21:52:13.000Z</time></trkpt>
        <trkpt lat="29.799506" lon="103.432126"><ele>523.16797</ele><time>2026-05-08T21:52:16.000Z</time></trkpt>
        <trkpt lat="29.799559" lon="103.432106"><ele>524.0861</ele><time>2026-05-08T21:52:19.000Z</time></trkpt>
        <trkpt lat="29.799607" lon="103.432105"><ele>527.3922</ele><time>2026-05-08T21:52:24.000Z</time></trkpt>
        <trkpt lat="29.799651" lon="103.432075"><ele>526.649</ele><time>2026-05-08T21:52:28.000Z</time></trkpt>
        <trkpt lat="29.799716" lon="103.432089"><ele>526.78876</ele><time>2026-05-08T21:52:35.000Z</time></trkpt>
        <trkpt lat="29.799767" lon="103.432106"><ele>528.1537</ele><time>2026-05-08T21:52:40.000Z</time></trkpt>
        <trkpt lat="29.799829" lon="103.432115"><ele>527.541</ele><time>2026-05-08T21:52:45.000Z</time></trkpt>
        <trkpt lat="29.799884" lon="103.432109"><ele>528.6345</ele><time>2026-05-08T21:52:49.000Z</time></trkpt>
        <trkpt lat="29.799924" lon="103.432139"><ele>528.7559</ele><time>2026-05-08T21:52:54.000Z</time></trkpt>
        <trkpt lat="29.79998" lon="103.432143"><ele>529.02423</ele><time>2026-05-08T21:52:57.000Z</time></trkpt>
        <trkpt lat="29.80002" lon="103.432171"><ele>530.60065</ele><time>2026-05-08T21:53:00.000Z</time></trkpt>
        <trkpt lat="29.800063" lon="103.432144"><ele>531.3904</ele><time>2026-05-08T21:53:07.000Z</time></trkpt>
        <trkpt lat="29.800118" lon="103.432144"><ele>531.8453</ele><time>2026-05-08T21:53:11.000Z</time></trkpt>
        <trkpt lat="29.800169" lon="103.432164"><ele>531.17944</ele><time>2026-05-08T21:53:14.000Z</time></trkpt>
        <trkpt lat="29.800216" lon="103.432174"><ele>527.6206</ele><time>2026-05-08T21:53:32.000Z</time></trkpt>
        <trkpt lat="29.800232" lon="103.432234"><ele>530.0658</ele><time>2026-05-08T21:53:36.000Z</time></trkpt>
        <trkpt lat="29.800279" lon="103.432235"><ele>528.7368</ele><time>2026-05-08T21:53:41.000Z</time></trkpt>
        <trkpt lat="29.800327" lon="103.432266"><ele>530.4714</ele><time>2026-05-08T21:53:47.000Z</time></trkpt>
        <trkpt lat="29.800365" lon="103.432297"><ele>531.14124</ele><time>2026-05-08T21:53:53.000Z</time></trkpt>
        <trkpt lat="29.800391" lon="103.432341"><ele>530.8378</ele><time>2026-05-08T21:54:04.000Z</time></trkpt>
        <trkpt lat="29.800441" lon="103.432355"><ele>532.0431</ele><time>2026-05-08T21:54:09.000Z</time></trkpt>
        <trkpt lat="29.800492" lon="103.43237"><ele>532.3505</ele><time>2026-05-08T21:54:13.000Z</time></trkpt>
        <trkpt lat="29.800547" lon="103.432363"><ele>532.73395</ele><time>2026-05-08T21:54:19.000Z</time></trkpt>
        <trkpt lat="29.800571" lon="103.432416"><ele>534.26355</ele><time>2026-05-08T21:54:28.000Z</time></trkpt>
        <trkpt lat="29.800608" lon="103.432386"><ele>536.64777</ele><time>2026-05-08T21:54:32.000Z</time></trkpt>
        <trkpt lat="29.80066" lon="103.432391"><ele>536.70526</ele><time>2026-05-08T21:54:43.000Z</time></trkpt>
        <trkpt lat="29.800707" lon="103.432399"><ele>537.4736</ele><time>2026-05-08T21:54:54.000Z</time></trkpt>
        <trkpt lat="29.800753" lon="103.432384"><ele>535.85596</ele><time>2026-05-08T21:54:58.000Z</time></trkpt>
        <trkpt lat="29.8008" lon="103.432344"><ele>536.9561</ele><time>2026-05-08T21:55:02.000Z</time></trkpt>
        <trkpt lat="29.800844" lon="103.432315"><ele>535.85364</ele><time>2026-05-08T21:55:06.000Z</time></trkpt>
        <trkpt lat="29.800888" lon="103.432333"><ele>538.56616</ele><time>2026-05-08T21:55:20.000Z</time></trkpt>
        <trkpt lat="29.800933" lon="103.432323"><ele>532.23663</ele><time>2026-05-08T21:55:26.000Z</time></trkpt>
        <trkpt lat="29.800965" lon="103.432285"><ele>531.5773</ele><time>2026-05-08T21:55:30.000Z</time></trkpt>
        <trkpt lat="29.801007" lon="103.432253"><ele>526.35394</ele><time>2026-05-08T21:55:34.000Z</time></trkpt>
        <trkpt lat="29.801046" lon="103.432225"><ele>526.29156</ele><time>2026-05-08T21:55:38.000Z</time></trkpt>
        <trkpt lat="29.801073" lon="103.432178"><ele>525.4468</ele><time>2026-05-08T21:55:42.000Z</time></trkpt>
        <trkpt lat="29.801116" lon="103.432157"><ele>524.6231</ele><time>2026-05-08T21:55:48.000Z</time></trkpt>
        <trkpt lat="29.801166" lon="103.432141"><ele>524.50757</ele><time>2026-05-08T21:55:52.000Z</time></trkpt>
        <trkpt lat="29.801212" lon="103.432102"><ele>524.749</ele><time>2026-05-08T21:55:57.000Z</time></trkpt>
        <trkpt lat="29.801259" lon="103.43206"><ele>524.36163</ele><time>2026-05-08T21:56:05.000Z</time></trkpt>
        <trkpt lat="29.801289" lon="103.432013"><ele>524.68646</ele><time>2026-05-08T21:56:09.000Z</time></trkpt>
        <trkpt lat="29.801336" lon="103.432008"><ele>526.2844</ele><time>2026-05-08T21:56:15.000Z</time></trkpt>
        <trkpt lat="29.801381" lon="103.431972"><ele>527.0393</ele><time>2026-05-08T21:56:22.000Z</time></trkpt>
        <trkpt lat="29.801437" lon="103.431968"><ele>527.9038</ele><time>2026-05-08T21:56:29.000Z</time></trkpt>
        <trkpt lat="29.801483" lon="103.431966"><ele>527.1537</ele><time>2026-05-08T21:56:38.000Z</time></trkpt>
        <trkpt lat="29.80153" lon="103.431969"><ele>527.2148</ele><time>2026-05-08T21:56:41.000Z</time></trkpt>
        <trkpt lat="29.80157" lon="103.43192"><ele>527.58417</ele><time>2026-05-08T21:56:46.000Z</time></trkpt>
        <trkpt lat="29.801623" lon="103.431917"><ele>530.7595</ele><time>2026-05-08T21:56:51.000Z</time></trkpt>
        <trkpt lat="29.80167" lon="103.431905"><ele>535.2604</ele><time>2026-05-08T21:57:01.000Z</time></trkpt>
        <trkpt lat="29.801712" lon="103.431933"><ele>535.21155</ele><time>2026-05-08T21:57:06.000Z</time></trkpt>
        <trkpt lat="29.801741" lon="103.431886"><ele>533.44415</ele><time>2026-05-08T21:57:19.000Z</time></trkpt>
        <trkpt lat="29.801785" lon="103.431866"><ele>533.84686</ele><time>2026-05-08T21:57:47.000Z</time></trkpt>
        <trkpt lat="29.801811" lon="103.431916"><ele>532.24445</ele><time>2026-05-08T21:57:56.000Z</time></trkpt>
        <trkpt lat="29.80179" lon="103.431977"><ele>528.8303</ele><time>2026-05-08T21:58:11.000Z</time></trkpt>
        <trkpt lat="29.801806" lon="103.432026"><ele>528.812</ele><time>2026-05-08T21:58:19.000Z</time></trkpt>
        <trkpt lat="29.80185" lon="103.432054"><ele>526.63605</ele><time>2026-05-08T21:58:31.000Z</time></trkpt>
        <trkpt lat="29.801894" lon="103.432079"><ele>525.0397</ele><time>2026-05-08T21:58:41.000Z</time></trkpt>
        <trkpt lat="29.801915" lon="103.432128"><ele>525.09375</ele><time>2026-05-08T21:58:49.000Z</time></trkpt>
        <trkpt lat="29.801951" lon="103.43217"><ele>523.61707</ele><time>2026-05-08T21:58:57.000Z</time></trkpt>
        <trkpt lat="29.802005" lon="103.43219"><ele>520.17926</ele><time>2026-05-08T21:59:04.000Z</time></trkpt>
        <trkpt lat="29.802052" lon="103.432207"><ele>518.3555</ele><time>2026-05-08T21:59:10.000Z</time></trkpt>
        <trkpt lat="29.8021" lon="103.432215"><ele>516.11786</ele><time>2026-05-08T21:59:16.000Z</time></trkpt>
        <trkpt lat="29.802144" lon="103.432232"><ele>514.6809</ele><time>2026-05-08T21:59:23.000Z</time></trkpt>
        <trkpt lat="29.802191" lon="103.432232"><ele>513.40106</ele><time>2026-05-08T21:59:30.000Z</time></trkpt>
        <trkpt lat="29.802238" lon="103.432208"><ele>519.11584</ele><time>2026-05-08T21:59:42.000Z</time></trkpt>
        <trkpt lat="29.802337" lon="103.432173"><ele>516.0186</ele><time>2026-05-08T21:59:51.000Z</time></trkpt>
        <trkpt lat="29.802364" lon="103.432129"><ele>516.19403</ele><time>2026-05-08T21:59:55.000Z</time></trkpt>
        <trkpt lat="29.802452" lon="103.432071"><ele>506.5373</ele><time>2026-05-08T22:00:07.000Z</time></trkpt>
        <trkpt lat="29.802474" lon="103.432026"><ele>500.79858</ele><time>2026-05-08T22:00:11.000Z</time></trkpt>
        <trkpt lat="29.802506" lon="103.431979"><ele>503.75806</ele><time>2026-05-08T22:00:20.000Z</time></trkpt>
        <trkpt lat="29.802545" lon="103.431948"><ele>512.34485</ele><time>2026-05-08T22:00:28.000Z</time></trkpt>
        <trkpt lat="29.802532" lon="103.432003"><ele>517.0429</ele><time>2026-05-08T22:00:34.000Z</time></trkpt>
        <trkpt lat="29.802481" lon="103.432028"><ele>518.40234</ele><time>2026-05-08T22:00:43.000Z</time></trkpt>
        <trkpt lat="29.802434" lon="103.432031"><ele>518.2812</ele><time>2026-05-08T22:00:54.000Z</time></trkpt>
        <trkpt lat="29.802381" lon="103.432036"><ele>513.6577</ele><time>2026-05-08T22:01:10.000Z</time></trkpt>
        <trkpt lat="29.80234" lon="103.432072"><ele>503.89645</ele><time>2026-05-08T22:01:32.000Z</time></trkpt>
        <trkpt lat="29.802328" lon="103.431969"><ele>506.71814</ele><time>2026-05-08T22:02:10.000Z</time></trkpt>
        <trkpt lat="29.802277" lon="103.431976"><ele>507.62802</ele><time>2026-05-08T22:02:19.000Z</time></trkpt>
        <trkpt lat="29.802226" lon="103.431987"><ele>515.0568</ele><time>2026-05-08T22:02:24.000Z</time></trkpt>
        <trkpt lat="29.802203" lon="103.432037"><ele>519.4018</ele><time>2026-05-08T22:02:33.000Z</time></trkpt>
        <trkpt lat="29.8022" lon="103.43209"><ele>521.1978</ele><time>2026-05-08T22:02:44.000Z</time></trkpt>
        <trkpt lat="29.802256" lon="103.432111"><ele>520.44763</ele><time>2026-05-08T22:03:01.000Z</time></trkpt>
        <trkpt lat="29.802291" lon="103.432076"><ele>511.39282</ele><time>2026-05-08T22:03:07.000Z</time></trkpt>
        <trkpt lat="29.802253" lon="103.432014"><ele>506.19434</ele><time>2026-05-08T22:03:22.000Z</time></trkpt>
        <trkpt lat="29.802289" lon="103.43195"><ele>493.60626</ele><time>2026-05-08T22:03:46.000Z</time></trkpt>
        <trkpt lat="29.802312" lon="103.431995"><ele>489.01974</ele><time>2026-05-08T22:03:53.000Z</time></trkpt>
        <trkpt lat="29.802361" lon="103.431975"><ele>487.95575</ele><time>2026-05-08T22:03:58.000Z</time></trkpt>
        <trkpt lat="29.802413" lon="103.432028"><ele>492.64462</ele><time>2026-05-08T22:04:03.000Z</time></trkpt>
        <trkpt lat="29.802449" lon="103.432139"><ele>500.02643</ele><time>2026-05-08T22:04:13.000Z</time></trkpt>
        <trkpt lat="29.802554" lon="103.432254"><ele>496.1644</ele><time>2026-05-08T22:04:25.000Z</time></trkpt>
        <trkpt lat="29.802519" lon="103.432188"><ele>488.37473</ele><time>2026-05-08T22:04:38.000Z</time></trkpt>
        <trkpt lat="29.802472" lon="103.432049"><ele>482.95245</ele><time>2026-05-08T22:04:54.000Z</time></trkpt>
        <trkpt lat="29.802474" lon="103.432181"><ele>471.7329</ele><time>2026-05-08T22:05:56.000Z</time></trkpt>
        <trkpt lat="29.802472" lon="103.432176"><ele>471.22058</ele><time>2026-05-08T22:05:58.000Z</time></trkpt>
        <trkpt lat="29.802436" lon="103.43202"><ele>472.5008</ele><time>2026-05-08T22:06:08.000Z</time></trkpt>
        <trkpt lat="29.802427" lon="103.432073"><ele>470.541</ele><time>2026-05-08T22:06:21.000Z</time></trkpt>
        <trkpt lat="29.802526" lon="103.432069"><ele>467.71967</ele><time>2026-05-08T22:06:32.000Z</time></trkpt>
        <trkpt lat="29.802619" lon="103.431934"><ele>461.55527</ele><time>2026-05-08T22:06:48.000Z</time></trkpt>
        <trkpt lat="29.802596" lon="103.431884"><ele>464.41623</ele><time>2026-05-08T22:06:52.000Z</time></trkpt>
        <trkpt lat="29.802607" lon="103.431783"><ele>471.89572</ele><time>2026-05-08T22:07:08.000Z</time></trkpt>
        <trkpt lat="29.802598" lon="103.43173"><ele>472.33704</ele><time>2026-05-08T22:07:11.000Z</time></trkpt>
        <trkpt lat="29.802621" lon="103.431682"><ele>473.94943</ele><time>2026-05-08T22:07:15.000Z</time></trkpt>
        <trkpt lat="29.802722" lon="103.431678"><ele>481.25223</ele><time>2026-05-08T22:07:23.000Z</time></trkpt>
        <trkpt lat="29.802759" lon="103.431639"><ele>481.95987</ele><time>2026-05-08T22:07:27.000Z</time></trkpt>
        <trkpt lat="29.802809" lon="103.431656"><ele>479.27258</ele><time>2026-05-08T22:07:36.000Z</time></trkpt>
        <trkpt lat="29.802846" lon="103.431687"><ele>473.0643</ele><time>2026-05-08T22:07:43.000Z</time></trkpt>
        <trkpt lat="29.802827" lon="103.431614"><ele>470.6099</ele><time>2026-05-08T22:07:51.000Z</time></trkpt>
        <trkpt lat="29.802798" lon="103.431561"><ele>469.26382</ele><time>2026-05-08T22:07:56.000Z</time></trkpt>
        <trkpt lat="29.802844" lon="103.431542"><ele>469.00247</ele><time>2026-05-08T22:08:11.000Z</time></trkpt>
        <trkpt lat="29.802887" lon="103.431527"><ele>468.30377</ele><time>2026-05-08T22:08:14.000Z</time></trkpt>
        <trkpt lat="29.802934" lon="103.431518"><ele>468.00348</ele><time>2026-05-08T22:08:17.000Z</time></trkpt>
        <trkpt lat="29.802969" lon="103.431477"><ele>468.5677</ele><time>2026-05-08T22:08:21.000Z</time></trkpt>
        <trkpt lat="29.803016" lon="103.431458"><ele>469.29077</ele><time>2026-05-08T22:08:26.000Z</time></trkpt>
        <trkpt lat="29.80308" lon="103.431457"><ele>469.4432</ele><time>2026-05-08T22:08:37.000Z</time></trkpt>
        <trkpt lat="29.803124" lon="103.431443"><ele>470.10547</ele><time>2026-05-08T22:08:40.000Z</time></trkpt>
        <trkpt lat="29.80311" lon="103.431343"><ele>469.15402</ele><time>2026-05-08T22:08:43.000Z</time></trkpt>
        <trkpt lat="29.803087" lon="103.43127"><ele>470.00552</ele><time>2026-05-08T22:08:45.000Z</time></trkpt>
        <trkpt lat="29.803117" lon="103.431216"><ele>465.16125</ele><time>2026-05-08T22:08:52.000Z</time></trkpt>
        <trkpt lat="29.803106" lon="103.431158"><ele>463.81143</ele><time>2026-05-08T22:08:56.000Z</time></trkpt>
        <trkpt lat="29.803138" lon="103.431196"><ele>462.44437</ele><time>2026-05-08T22:09:00.000Z</time></trkpt>
        <trkpt lat="29.803129" lon="103.431139"><ele>461.14224</ele><time>2026-05-08T22:09:02.000Z</time></trkpt>
        <trkpt lat="29.8031" lon="103.431085"><ele>460.85843</ele><time>2026-05-08T22:09:03.000Z</time></trkpt>
        <trkpt lat="29.803137" lon="103.431124"><ele>460.3927</ele><time>2026-05-08T22:09:08.000Z</time></trkpt>
        <trkpt lat="29.803193" lon="103.431137"><ele>461.42456</ele><time>2026-05-08T22:09:11.000Z</time></trkpt>
        <trkpt lat="29.803257" lon="103.431169"><ele>461.65063</ele><time>2026-05-08T22:09:14.000Z</time></trkpt>
        <trkpt lat="29.803248" lon="103.431115"><ele>462.05826</ele><time>2026-05-08T22:09:16.000Z</time></trkpt>
        <trkpt lat="29.803224" lon="103.431061"><ele>462.76923</ele><time>2026-05-08T22:09:18.000Z</time></trkpt>
        <trkpt lat="29.803259" lon="103.431102"><ele>461.6012</ele><time>2026-05-08T22:09:21.000Z</time></trkpt>
        <trkpt lat="29.803233" lon="103.431036"><ele>462.22852</ele><time>2026-05-08T22:09:24.000Z</time></trkpt>
        <trkpt lat="29.803208" lon="103.430972"><ele>462.61353</ele><time>2026-05-08T22:09:25.000Z</time></trkpt>
        <trkpt lat="29.80328" lon="103.430973"><ele>463.2484</ele><time>2026-05-08T22:09:28.000Z</time></trkpt>
        <trkpt lat="29.803464" lon="103.431085"><ele>464.24304</ele><time>2026-05-08T22:09:41.000Z</time></trkpt>
        <trkpt lat="29.803504" lon="103.431124"><ele>464.13867</ele><time>2026-05-08T22:09:42.000Z</time></trkpt>
        <trkpt lat="29.80356" lon="103.431153"><ele>463.49283</ele><time>2026-05-08T22:09:44.000Z</time></trkpt>
        <trkpt lat="29.803604" lon="103.43117"><ele>464.063</ele><time>2026-05-08T22:09:47.000Z</time></trkpt>
        <trkpt lat="29.803658" lon="103.431196"><ele>465.07358</ele><time>2026-05-08T22:09:57.000Z</time></trkpt>
        <trkpt lat="29.803698" lon="103.43123"><ele>465.03693</ele><time>2026-05-08T22:10:01.000Z</time></trkpt>
        <trkpt lat="29.803742" lon="103.431257"><ele>463.7339</ele><time>2026-05-08T22:10:06.000Z</time></trkpt>
        <trkpt lat="29.803781" lon="103.431295"><ele>463.41455</ele><time>2026-05-08T22:10:11.000Z</time></trkpt>
        <trkpt lat="29.803835" lon="103.431284"><ele>464.04605</ele><time>2026-05-08T22:10:17.000Z</time></trkpt>
        <trkpt lat="29.803877" lon="103.431308"><ele>464.65018</ele><time>2026-05-08T22:10:22.000Z</time></trkpt>
        <trkpt lat="29.803919" lon="103.431327"><ele>465.5</ele><time>2026-05-08T22:10:27.000Z</time></trkpt>
        <trkpt lat="29.804014" lon="103.431345"><ele>465.3009</ele><time>2026-05-08T22:10:33.000Z</time></trkpt>
        <trkpt lat="29.804057" lon="103.431321"><ele>466.29044</ele><time>2026-05-08T22:10:37.000Z</time></trkpt>
        <trkpt lat="29.804097" lon="103.43129"><ele>466.9981</ele><time>2026-05-08T22:10:39.000Z</time></trkpt>
        <trkpt lat="29.804142" lon="103.431307"><ele>468.00018</ele><time>2026-05-08T22:10:45.000Z</time></trkpt>
        <trkpt lat="29.804164" lon="103.43136"><ele>466.971</ele><time>2026-05-08T22:10:51.000Z</time></trkpt>
        <trkpt lat="29.804201" lon="103.431404"><ele>464.91644</ele><time>2026-05-08T22:10:57.000Z</time></trkpt>
        <trkpt lat="29.804252" lon="103.431436"><ele>464.68927</ele><time>2026-05-08T22:11:02.000Z</time></trkpt>
        <trkpt lat="29.804304" lon="103.431441"><ele>465.81265</ele><time>2026-05-08T22:11:06.000Z</time></trkpt>
        <trkpt lat="29.804353" lon="103.431446"><ele>463.40482</ele><time>2026-05-08T22:11:12.000Z</time></trkpt>
        <trkpt lat="29.804323" lon="103.431498"><ele>462.40228</ele><time>2026-05-08T22:11:44.000Z</time></trkpt>
        <trkpt lat="29.804289" lon="103.431554"><ele>462.33575</ele><time>2026-05-08T22:11:56.000Z</time></trkpt>
        <trkpt lat="29.804261" lon="103.431512"><ele>462.531</ele><time>2026-05-08T22:12:08.000Z</time></trkpt>
        <trkpt lat="29.80443" lon="103.431564"><ele>459.85046</ele><time>2026-05-08T22:12:33.000Z</time></trkpt>
        <trkpt lat="29.80446" lon="103.431614"><ele>460.9405</ele><time>2026-05-08T22:12:54.000Z</time></trkpt>
        <trkpt lat="29.804464" lon="103.431672"><ele>462.4509</ele><time>2026-05-08T22:13:02.000Z</time></trkpt>
        <trkpt lat="29.804496" lon="103.431715"><ele>460.6152</ele><time>2026-05-08T22:13:08.000Z</time></trkpt>
        <trkpt lat="29.804529" lon="103.431754"><ele>461.17444</ele><time>2026-05-08T22:13:12.000Z</time></trkpt>
        <trkpt lat="29.804551" lon="103.431816"><ele>460.70154</ele><time>2026-05-08T22:13:18.000Z</time></trkpt>
        <trkpt lat="29.804583" lon="103.431861"><ele>460.41434</ele><time>2026-05-08T22:13:23.000Z</time></trkpt>
        <trkpt lat="29.804629" lon="103.431878"><ele>458.85043</ele><time>2026-05-08T22:13:27.000Z</time></trkpt>
        <trkpt lat="29.804668" lon="103.431915"><ele>459.201</ele><time>2026-05-08T22:13:32.000Z</time></trkpt>
        <trkpt lat="29.804706" lon="103.431949"><ele>459.78177</ele><time>2026-05-08T22:13:37.000Z</time></trkpt>
        <trkpt lat="29.804737" lon="103.432001"><ele>459.04584</ele><time>2026-05-08T22:13:42.000Z</time></trkpt>
        <trkpt lat="29.804773" lon="103.432039"><ele>460.1733</ele><time>2026-05-08T22:13:47.000Z</time></trkpt>
        <trkpt lat="29.804808" lon="103.432072"><ele>460.0447</ele><time>2026-05-08T22:13:51.000Z</time></trkpt>
        <trkpt lat="29.804859" lon="103.432087"><ele>459.40363</ele><time>2026-05-08T22:13:55.000Z</time></trkpt>
        <trkpt lat="29.8049" lon="103.432127"><ele>457.8727</ele><time>2026-05-08T22:14:14.000Z</time></trkpt>
        <trkpt lat="29.804946" lon="103.432146"><ele>458.36252</ele><time>2026-05-08T22:14:20.000Z</time></trkpt>
        <trkpt lat="29.804986" lon="103.432191"><ele>456.95184</ele><time>2026-05-08T22:14:24.000Z</time></trkpt>
        <trkpt lat="29.805035" lon="103.432198"><ele>456.22226</ele><time>2026-05-08T22:14:31.000Z</time></trkpt>
        <trkpt lat="29.805091" lon="103.432216"><ele>455.71152</ele><time>2026-05-08T22:14:38.000Z</time></trkpt>
        <trkpt lat="29.805137" lon="103.432221"><ele>454.92993</ele><time>2026-05-08T22:14:44.000Z</time></trkpt>
        <trkpt lat="29.805191" lon="103.432212"><ele>456.1685</ele><time>2026-05-08T22:14:47.000Z</time></trkpt>
        <trkpt lat="29.805231" lon="103.432238"><ele>457.18835</ele><time>2026-05-08T22:14:52.000Z</time></trkpt>
        <trkpt lat="29.805275" lon="103.432253"><ele>457.0223</ele><time>2026-05-08T22:14:57.000Z</time></trkpt>
        <trkpt lat="29.805316" lon="103.432292"><ele>456.03162</ele><time>2026-05-08T22:15:01.000Z</time></trkpt>
        <trkpt lat="29.805365" lon="103.432297"><ele>456.576</ele><time>2026-05-08T22:15:06.000Z</time></trkpt>
        <trkpt lat="29.805417" lon="103.432286"><ele>457.148</ele><time>2026-05-08T22:15:11.000Z</time></trkpt>
        <trkpt lat="29.805473" lon="103.432278"><ele>458.17233</ele><time>2026-05-08T22:15:15.000Z</time></trkpt>
        <trkpt lat="29.805521" lon="103.432272"><ele>459.35233</ele><time>2026-05-08T22:15:20.000Z</time></trkpt>
        <trkpt lat="29.805573" lon="103.432271"><ele>459.01245</ele><time>2026-05-08T22:15:26.000Z</time></trkpt>
        <trkpt lat="29.80562" lon="103.432289"><ele>459.285</ele><time>2026-05-08T22:15:32.000Z</time></trkpt>
        <trkpt lat="29.805669" lon="103.432296"><ele>459.75443</ele><time>2026-05-08T22:15:37.000Z</time></trkpt>
        <trkpt lat="29.805704" lon="103.432329"><ele>459.73416</ele><time>2026-05-08T22:15:41.000Z</time></trkpt>
        <trkpt lat="29.805749" lon="103.432352"><ele>460.18896</ele><time>2026-05-08T22:15:47.000Z</time></trkpt>
        <trkpt lat="29.805795" lon="103.432381"><ele>460.49823</ele><time>2026-05-08T22:15:52.000Z</time></trkpt>
        <trkpt lat="29.80584" lon="103.432402"><ele>460.44095</ele><time>2026-05-08T22:16:05.000Z</time></trkpt>
        <trkpt lat="29.805884" lon="103.432426"><ele>459.59985</ele><time>2026-05-08T22:16:11.000Z</time></trkpt>
        <trkpt lat="29.805877" lon="103.432478"><ele>459.20016</ele><time>2026-05-08T22:16:46.000Z</time></trkpt>
        <trkpt lat="29.805884" lon="103.432539"><ele>459.15265</ele><time>2026-05-08T22:16:50.000Z</time></trkpt>
        <trkpt lat="29.80589" lon="103.432592"><ele>459.85724</ele><time>2026-05-08T22:16:57.000Z</time></trkpt>
        <trkpt lat="29.805851" lon="103.432566"><ele>459.92853</ele><time>2026-05-08T22:17:07.000Z</time></trkpt>
        <trkpt lat="29.805839" lon="103.432617"><ele>460.69476</ele><time>2026-05-08T22:17:18.000Z</time></trkpt>
        <trkpt lat="29.805853" lon="103.432673"><ele>459.62903</ele><time>2026-05-08T22:17:22.000Z</time></trkpt>
        <trkpt lat="29.805871" lon="103.432723"><ele>459.83707</ele><time>2026-05-08T22:17:27.000Z</time></trkpt>
        <trkpt lat="29.80587" lon="103.432781"><ele>460.14618</ele><time>2026-05-08T22:17:41.000Z</time></trkpt>
        <trkpt lat="29.805862" lon="103.43284"><ele>462.19818</ele><time>2026-05-08T22:17:58.000Z</time></trkpt>
        <trkpt lat="29.805877" lon="103.432904"><ele>461.15793</ele><time>2026-05-08T22:18:05.000Z</time></trkpt>
        <trkpt lat="29.805889" lon="103.432964"><ele>461.07968</ele><time>2026-05-08T22:18:10.000Z</time></trkpt>
        <trkpt lat="29.805912" lon="103.433015"><ele>462.56473</ele><time>2026-05-08T22:18:16.000Z</time></trkpt>
        <trkpt lat="29.805948" lon="103.433059"><ele>461.44458</ele><time>2026-05-08T22:18:22.000Z</time></trkpt>
        <trkpt lat="29.805969" lon="103.43311"><ele>461.6355</ele><time>2026-05-08T22:18:29.000Z</time></trkpt>
        <trkpt lat="29.805971" lon="103.433165"><ele>461.05762</ele><time>2026-05-08T22:18:34.000Z</time></trkpt>
        <trkpt lat="29.805987" lon="103.433219"><ele>461.099</ele><time>2026-05-08T22:18:40.000Z</time></trkpt>
        <trkpt lat="29.806023" lon="103.433263"><ele>461.4019</ele><time>2026-05-08T22:18:46.000Z</time></trkpt>
        <trkpt lat="29.806043" lon="103.433319"><ele>462.15588</ele><time>2026-05-08T22:18:52.000Z</time></trkpt>
        <trkpt lat="29.806055" lon="103.43337"><ele>461.51587</ele><time>2026-05-08T22:18:56.000Z</time></trkpt>
        <trkpt lat="29.806087" lon="103.43342"><ele>460.48798</ele><time>2026-05-08T22:19:02.000Z</time></trkpt>
        <trkpt lat="29.806116" lon="103.433462"><ele>460.04224</ele><time>2026-05-08T22:19:07.000Z</time></trkpt>
        <trkpt lat="29.806156" lon="103.433498"><ele>460.62335</ele><time>2026-05-08T22:19:12.000Z</time></trkpt>
        <trkpt lat="29.80614" lon="103.43355"><ele>463.07382</ele><time>2026-05-08T22:19:24.000Z</time></trkpt>
        <trkpt lat="29.806135" lon="103.433605"><ele>462.7075</ele><time>2026-05-08T22:19:36.000Z</time></trkpt>
        <trkpt lat="29.806114" lon="103.433655"><ele>463.8884</ele><time>2026-05-08T22:19:49.000Z</time></trkpt>
        <trkpt lat="29.806094" lon="103.433701"><ele>465.74814</ele><time>2026-05-08T22:20:07.000Z</time></trkpt>
        <trkpt lat="29.806083" lon="103.433755"><ele>467.31393</ele><time>2026-05-08T22:20:21.000Z</time></trkpt>
        <trkpt lat="29.806054" lon="103.433797"><ele>470.65634</ele><time>2026-05-08T22:20:41.000Z</time></trkpt>
        <trkpt lat="29.806017" lon="103.433834"><ele>475.6271</ele><time>2026-05-08T22:20:56.000Z</time></trkpt>
        <trkpt lat="29.805977" lon="103.433868"><ele>478.17932</ele><time>2026-05-08T22:21:21.000Z</time></trkpt>
        <trkpt lat="29.805961" lon="103.433919"><ele>477.82495</ele><time>2026-05-08T22:21:35.000Z</time></trkpt>
        <trkpt lat="29.805919" lon="103.433953"><ele>485.6982</ele><time>2026-05-08T22:21:59.000Z</time></trkpt>
        <trkpt lat="29.805948" lon="103.433912"><ele>501.9393</ele><time>2026-05-08T22:22:05.000Z</time></trkpt>
        <trkpt lat="29.805993" lon="103.433937"><ele>512.0116</ele><time>2026-05-08T22:22:12.000Z</time></trkpt>
        <trkpt lat="29.806038" lon="103.43394"><ele>511.4333</ele><time>2026-05-08T22:22:28.000Z</time></trkpt>
        <trkpt lat="29.806026" lon="103.433993"><ele>512.0523</ele><time>2026-05-08T22:22:37.000Z</time></trkpt>
        <trkpt lat="29.805994" lon="103.434042"><ele>512.4299</ele><time>2026-05-08T22:22:53.000Z</time></trkpt>
        <trkpt lat="29.805958" lon="103.434084"><ele>513.5006</ele><time>2026-05-08T22:23:03.000Z</time></trkpt>
        <trkpt lat="29.805934" lon="103.434144"><ele>515.92523</ele><time>2026-05-08T22:23:08.000Z</time></trkpt>
        <trkpt lat="29.805983" lon="103.434158"><ele>515.15326</ele><time>2026-05-08T22:23:16.000Z</time></trkpt>
        <trkpt lat="29.80601" lon="103.43411"><ele>514.11505</ele><time>2026-05-08T22:23:23.000Z</time></trkpt>
        <trkpt lat="29.805964" lon="103.434118"><ele>513.8046</ele><time>2026-05-08T22:23:46.000Z</time></trkpt>
        <trkpt lat="29.805909" lon="103.43413"><ele>514.6063</ele><time>2026-05-08T22:24:02.000Z</time></trkpt>
        <trkpt lat="29.805859" lon="103.434163"><ele>518.8413</ele><time>2026-05-08T22:24:14.000Z</time></trkpt>
        <trkpt lat="29.805763" lon="103.434231"><ele>523.9623</ele><time>2026-05-08T22:24:45.000Z</time></trkpt>
        <trkpt lat="29.805814" lon="103.434232"><ele>522.59686</ele><time>2026-05-08T22:24:54.000Z</time></trkpt>
        <trkpt lat="29.805855" lon="103.434193"><ele>520.47455</ele><time>2026-05-08T22:25:00.000Z</time></trkpt>
        <trkpt lat="29.805904" lon="103.434173"><ele>519.186</ele><time>2026-05-08T22:25:09.000Z</time></trkpt>
        <trkpt lat="29.805957" lon="103.43415"><ele>516.8997</ele><time>2026-05-08T22:25:14.000Z</time></trkpt>
        <trkpt lat="29.805945" lon="103.434097"><ele>516.3654</ele><time>2026-05-08T22:25:23.000Z</time></trkpt>
        <trkpt lat="29.805903" lon="103.434141"><ele>517.2207</ele><time>2026-05-08T22:25:35.000Z</time></trkpt>
        <trkpt lat="29.805924" lon="103.434203"><ele>517.42004</ele><time>2026-05-08T22:25:39.000Z</time></trkpt>
        <trkpt lat="29.805944" lon="103.434263"><ele>518.4222</ele><time>2026-05-08T22:25:44.000Z</time></trkpt>
        <trkpt lat="29.805954" lon="103.434318"><ele>518.26807</ele><time>2026-05-08T22:25:53.000Z</time></trkpt>
        <trkpt lat="29.805916" lon="103.434353"><ele>519.6975</ele><time>2026-05-08T22:26:04.000Z</time></trkpt>
        <trkpt lat="29.805874" lon="103.434329"><ele>520.4537</ele><time>2026-05-08T22:26:10.000Z</time></trkpt>
        <trkpt lat="29.805861" lon="103.434262"><ele>521.07654</ele><time>2026-05-08T22:26:15.000Z</time></trkpt>
        <trkpt lat="29.805847" lon="103.434314"><ele>519.0564</ele><time>2026-05-08T22:26:28.000Z</time></trkpt>
        <trkpt lat="29.805819" lon="103.434259"><ele>520.6216</ele><time>2026-05-08T22:26:58.000Z</time></trkpt>
        <trkpt lat="29.805775" lon="103.434244"><ele>522.4037</ele><time>2026-05-08T22:27:03.000Z</time></trkpt>
        <trkpt lat="29.805732" lon="103.434271"><ele>524.1656</ele><time>2026-05-08T22:27:08.000Z</time></trkpt>
        <trkpt lat="29.805676" lon="103.434295"><ele>525.34344</ele><time>2026-05-08T22:27:16.000Z</time></trkpt>
        <trkpt lat="29.805637" lon="103.434262"><ele>526.6854</ele><time>2026-05-08T22:27:21.000Z</time></trkpt>
        <trkpt lat="29.805643" lon="103.434205"><ele>527.83563</ele><time>2026-05-08T22:27:25.000Z</time></trkpt>
        <trkpt lat="29.805632" lon="103.434261"><ele>527.3887</ele><time>2026-05-08T22:27:32.000Z</time></trkpt>
        <trkpt lat="29.805664" lon="103.434225"><ele>528.21735</ele><time>2026-05-08T22:27:53.000Z</time></trkpt>
        <trkpt lat="29.805652" lon="103.434281"><ele>526.88214</ele><time>2026-05-08T22:28:02.000Z</time></trkpt>
        <trkpt lat="29.80567" lon="103.43423"><ele>528.5484</ele><time>2026-05-08T22:28:19.000Z</time></trkpt>
        <trkpt lat="29.805632" lon="103.434185"><ele>528.10693</ele><time>2026-05-08T22:28:33.000Z</time></trkpt>
        <trkpt lat="29.805586" lon="103.434216"><ele>528.46704</ele><time>2026-05-08T22:28:42.000Z</time></trkpt>
        <trkpt lat="29.805625" lon="103.434258"><ele>529.198</ele><time>2026-05-08T22:29:06.000Z</time></trkpt>
        <trkpt lat="29.805605" lon="103.43433"><ele>529.2336</ele><time>2026-05-08T22:29:15.000Z</time></trkpt>
        <trkpt lat="29.805618" lon="103.434232"><ele>553.16376</ele><time>2026-05-08T22:29:55.000Z</time></trkpt>
        <trkpt lat="29.805618" lon="103.434232"><ele>553.16376</ele><time>2026-05-08T22:29:55.000Z</time></trkpt>
        <trkpt lat="29.805765" lon="103.433672"><ele>518.7455</ele><time>2026-05-08T22:32:51.000Z</time></trkpt>
        <trkpt lat="29.805683" lon="103.433668"><ele>518.83673</ele><time>2026-05-08T22:33:02.000Z</time></trkpt>
        <trkpt lat="29.805756" lon="103.433687"><ele>519.17584</ele><time>2026-05-08T22:33:03.000Z</time></trkpt>
        <trkpt lat="29.805722" lon="103.433645"><ele>518.42975</ele><time>2026-05-08T22:33:13.000Z</time></trkpt>
        <trkpt lat="29.805713" lon="103.433568"><ele>518.77515</ele><time>2026-05-08T22:33:23.000Z</time></trkpt>
        <trkpt lat="29.805718" lon="103.433632"><ele>517.9349</ele><time>2026-05-08T22:33:45.000Z</time></trkpt>
        <trkpt lat="29.805731" lon="103.433684"><ele>518.9662</ele><time>2026-05-08T22:33:54.000Z</time></trkpt>
        <trkpt lat="29.805772" lon="103.433737"><ele>518.64954</ele><time>2026-05-08T22:34:06.000Z</time></trkpt>
        <trkpt lat="29.805755" lon="103.433686"><ele>518.09454</ele><time>2026-05-08T22:34:21.000Z</time></trkpt>
        <trkpt lat="29.80574" lon="103.433636"><ele>517.9181</ele><time>2026-05-08T22:34:29.000Z</time></trkpt>
        <trkpt lat="29.805694" lon="103.433654"><ele>518.762</ele><time>2026-05-08T22:35:24.000Z</time></trkpt>
        <trkpt lat="29.80576" lon="103.433655"><ele>520.54956</ele><time>2026-05-08T22:35:35.000Z</time></trkpt>
        <trkpt lat="29.805755" lon="103.433603"><ele>517.46814</ele><time>2026-05-08T22:36:23.000Z</time></trkpt>
        <trkpt lat="29.805758" lon="103.433571"><ele>517.591</ele><time>2026-05-08T22:36:36.000Z</time></trkpt>
        <trkpt lat="29.805752" lon="103.433508"><ele>516.43646</ele><time>2026-05-08T22:36:42.000Z</time></trkpt>
        <trkpt lat="29.805799" lon="103.433489"><ele>514.0424</ele><time>2026-05-08T22:37:03.000Z</time></trkpt>
        <trkpt lat="29.80579" lon="103.433471"><ele>547.9337</ele><time>2026-05-08T22:40:28.000Z</time></trkpt>
        <trkpt lat="29.805826" lon="103.433436"><ele>553.66376</ele><time>2026-05-08T22:43:31.000Z</time></trkpt>
        <trkpt lat="29.805629" lon="103.434347"><ele>528.515</ele><time>2026-05-08T22:43:45.000Z</time></trkpt>
        <trkpt lat="29.805675" lon="103.434308"><ele>529.00586</ele><time>2026-05-08T22:43:59.000Z</time></trkpt>
        <trkpt lat="29.80563" lon="103.434283"><ele>529.11127</ele><time>2026-05-08T22:44:15.000Z</time></trkpt>
        <trkpt lat="29.805682" lon="103.434301"><ele>529.21533</ele><time>2026-05-08T22:44:23.000Z</time></trkpt>
        <trkpt lat="29.805738" lon="103.434322"><ele>526.7944</ele><time>2026-05-08T22:44:35.000Z</time></trkpt>
        <trkpt lat="29.80579" lon="103.434317"><ele>525.62866</ele><time>2026-05-08T22:44:38.000Z</time></trkpt>
        <trkpt lat="29.805841" lon="103.434316"><ele>524.3913</ele><time>2026-05-08T22:44:42.000Z</time></trkpt>
        <trkpt lat="29.805886" lon="103.434331"><ele>522.2951</ele><time>2026-05-08T22:44:46.000Z</time></trkpt>
        <trkpt lat="29.805932" lon="103.434339"><ele>520.38586</ele><time>2026-05-08T22:44:50.000Z</time></trkpt>
        <trkpt lat="29.80593" lon="103.434287"><ele>517.9551</ele><time>2026-05-08T22:45:02.000Z</time></trkpt>
        <trkpt lat="29.80593" lon="103.434212"><ele>517.7563</ele><time>2026-05-08T22:45:10.000Z</time></trkpt>
        <trkpt lat="29.805954" lon="103.43416"><ele>517.3883</ele><time>2026-05-08T22:45:14.000Z</time></trkpt>
        <trkpt lat="29.805907" lon="103.434135"><ele>517.26807</ele><time>2026-05-08T22:45:19.000Z</time></trkpt>
        <trkpt lat="29.805888" lon="103.434085"><ele>517.6682</ele><time>2026-05-08T22:46:08.000Z</time></trkpt>
        <trkpt lat="29.805884" lon="103.434138"><ele>517.11127</ele><time>2026-05-08T22:46:33.000Z</time></trkpt>
        <trkpt lat="29.805848" lon="103.43419"><ele>519.3959</ele><time>2026-05-08T22:49:26.000Z</time></trkpt>
        <trkpt lat="29.80587" lon="103.43414"><ele>518.2015</ele><time>2026-05-08T22:49:58.000Z</time></trkpt>
        <trkpt lat="29.805917" lon="103.434152"><ele>518.0105</ele><time>2026-05-08T22:50:14.000Z</time></trkpt>
        <trkpt lat="29.805914" lon="103.434096"><ele>516.27136</ele><time>2026-05-08T22:51:36.000Z</time></trkpt>
        <trkpt lat="29.805893" lon="103.434047"><ele>516.47534</ele><time>2026-05-08T22:51:44.000Z</time></trkpt>
        <trkpt lat="29.805842" lon="103.434058"><ele>517.611</ele><time>2026-05-08T22:52:10.000Z</time></trkpt>
        <trkpt lat="29.805874" lon="103.434115"><ele>517.3485</ele><time>2026-05-08T22:52:53.000Z</time></trkpt>
        <trkpt lat="29.805916" lon="103.434089"><ele>517.0937</ele><time>2026-05-08T22:53:10.000Z</time></trkpt>
        <trkpt lat="29.805902" lon="103.43403"><ele>516.7603</ele><time>2026-05-08T22:53:26.000Z</time></trkpt>
        <trkpt lat="29.805951" lon="103.434081"><ele>515.03735</ele><time>2026-05-08T22:53:35.000Z</time></trkpt>
        <trkpt lat="29.805967" lon="103.434025"><ele>513.02405</ele><time>2026-05-08T22:53:44.000Z</time></trkpt>
        <trkpt lat="29.805946" lon="103.433976"><ele>512.30493</ele><time>2026-05-08T22:53:48.000Z</time></trkpt>
        <trkpt lat="29.805975" lon="103.433931"><ele>511.88138</ele><time>2026-05-08T22:53:55.000Z</time></trkpt>
        <trkpt lat="29.806009" lon="103.433891"><ele>510.06717</ele><time>2026-05-08T22:54:09.000Z</time></trkpt>
        <trkpt lat="29.806034" lon="103.433839"><ele>507.7754</ele><time>2026-05-08T22:54:34.000Z</time></trkpt>
        <trkpt lat="29.806082" lon="103.433803"><ele>505.64435</ele><time>2026-05-08T22:54:41.000Z</time></trkpt>
        <trkpt lat="29.806115" lon="103.433761"><ele>503.63425</ele><time>2026-05-08T22:54:49.000Z</time></trkpt>
        <trkpt lat="29.806142" lon="103.43372"><ele>501.54056</ele><time>2026-05-08T22:54:56.000Z</time></trkpt>
        <trkpt lat="29.80617" lon="103.433674"><ele>499.87097</ele><time>2026-05-08T22:55:15.000Z</time></trkpt>
        <trkpt lat="29.806183" lon="103.433624"><ele>499.1998</ele><time>2026-05-08T22:55:24.000Z</time></trkpt>
        <trkpt lat="29.806213" lon="103.43358"><ele>498.23203</ele><time>2026-05-08T22:55:35.000Z</time></trkpt>
        <trkpt lat="29.806218" lon="103.433528"><ele>497.3182</ele><time>2026-05-08T22:55:42.000Z</time></trkpt>
        <trkpt lat="29.806222" lon="103.433467"><ele>496.18497</ele><time>2026-05-08T22:55:50.000Z</time></trkpt>
        <trkpt lat="29.806172" lon="103.43343"><ele>496.75064</ele><time>2026-05-08T22:55:56.000Z</time></trkpt>
        <trkpt lat="29.806132" lon="103.433403"><ele>497.70233</ele><time>2026-05-08T22:56:00.000Z</time></trkpt>
        <trkpt lat="29.806098" lon="103.433367"><ele>497.37616</ele><time>2026-05-08T22:56:04.000Z</time></trkpt>
        <trkpt lat="29.806071" lon="103.433313"><ele>497.309</ele><time>2026-05-08T22:56:10.000Z</time></trkpt>
        <trkpt lat="29.806036" lon="103.433269"><ele>496.57822</ele><time>2026-05-08T22:56:15.000Z</time></trkpt>
        <trkpt lat="29.806001" lon="103.433222"><ele>495.5803</ele><time>2026-05-08T22:56:22.000Z</time></trkpt>
        <trkpt lat="29.805993" lon="103.433168"><ele>495.5216</ele><time>2026-05-08T22:56:28.000Z</time></trkpt>
        <trkpt lat="29.80601" lon="103.433106"><ele>494.51736</ele><time>2026-05-08T22:56:36.000Z</time></trkpt>
        <trkpt lat="29.805977" lon="103.433048"><ele>492.60068</ele><time>2026-05-08T22:56:43.000Z</time></trkpt>
        <trkpt lat="29.805925" lon="103.433014"><ele>492.3892</ele><time>2026-05-08T22:56:48.000Z</time></trkpt>
        <trkpt lat="29.805893" lon="103.432969"><ele>492.32077</ele><time>2026-05-08T22:56:52.000Z</time></trkpt>
        <trkpt lat="29.805867" lon="103.432921"><ele>492.7251</ele><time>2026-05-08T22:56:58.000Z</time></trkpt>
        <trkpt lat="29.805906" lon="103.432889"><ele>492.6111</ele><time>2026-05-08T22:57:11.000Z</time></trkpt>
        <trkpt lat="29.805914" lon="103.432826"><ele>490.64447</ele><time>2026-05-08T22:57:19.000Z</time></trkpt>
        <trkpt lat="29.805872" lon="103.432793"><ele>489.83704</ele><time>2026-05-08T22:57:25.000Z</time></trkpt>
        <trkpt lat="29.80587" lon="103.432742"><ele>488.36844</ele><time>2026-05-08T22:57:31.000Z</time></trkpt>
        <trkpt lat="29.805843" lon="103.432689"><ele>487.57422</ele><time>2026-05-08T22:57:38.000Z</time></trkpt>
        <trkpt lat="29.805876" lon="103.432643"><ele>482.2285</ele><time>2026-05-08T22:57:46.000Z</time></trkpt>
        <trkpt lat="29.805918" lon="103.432619"><ele>475.77533</ele><time>2026-05-08T22:57:53.000Z</time></trkpt>
        <trkpt lat="29.805908" lon="103.432567"><ele>474.57797</ele><time>2026-05-08T22:57:57.000Z</time></trkpt>
        <trkpt lat="29.805917" lon="103.432516"><ele>472.42062</ele><time>2026-05-08T22:58:03.000Z</time></trkpt>
        <trkpt lat="29.805907" lon="103.432461"><ele>468.89822</ele><time>2026-05-08T22:58:16.000Z</time></trkpt>
        <trkpt lat="29.80596" lon="103.432468"><ele>465.9327</ele><time>2026-05-08T22:58:28.000Z</time></trkpt>
        <trkpt lat="29.805993" lon="103.432512"><ele>465.77826</ele><time>2026-05-08T22:58:33.000Z</time></trkpt>
        <trkpt lat="29.806041" lon="103.432542"><ele>465.38315</ele><time>2026-05-08T22:58:39.000Z</time></trkpt>
        <trkpt lat="29.806081" lon="103.432587"><ele>466.45563</ele><time>2026-05-08T22:58:43.000Z</time></trkpt>
        <trkpt lat="29.806108" lon="103.432638"><ele>467.43457</ele><time>2026-05-08T22:58:47.000Z</time></trkpt>
        <trkpt lat="29.806147" lon="103.432672"><ele>467.05737</ele><time>2026-05-08T22:58:53.000Z</time></trkpt>
        <trkpt lat="29.806154" lon="103.432724"><ele>466.14706</ele><time>2026-05-08T22:59:00.000Z</time></trkpt>
        <trkpt lat="29.806185" lon="103.432767"><ele>466.57693</ele><time>2026-05-08T22:59:07.000Z</time></trkpt>
        <trkpt lat="29.806206" lon="103.432828"><ele>477.7035</ele><time>2026-05-08T22:59:12.000Z</time></trkpt>
        <trkpt lat="29.806227" lon="103.432875"><ele>475.62622</ele><time>2026-05-08T22:59:15.000Z</time></trkpt>
        <trkpt lat="29.806256" lon="103.432919"><ele>474.1989</ele><time>2026-05-08T22:59:19.000Z</time></trkpt>
        <trkpt lat="29.806277" lon="103.432981"><ele>472.11642</ele><time>2026-05-08T22:59:24.000Z</time></trkpt>
        <trkpt lat="29.806306" lon="103.433024"><ele>470.511</ele><time>2026-05-08T22:59:28.000Z</time></trkpt>
        <trkpt lat="29.806336" lon="103.433077"><ele>468.8323</ele><time>2026-05-08T22:59:32.000Z</time></trkpt>
        <trkpt lat="29.806375" lon="103.433122"><ele>468.0066</ele><time>2026-05-08T22:59:36.000Z</time></trkpt>
        <trkpt lat="29.806408" lon="103.433172"><ele>467.86392</ele><time>2026-05-08T22:59:40.000Z</time></trkpt>
        <trkpt lat="29.806426" lon="103.433231"><ele>467.16806</ele><time>2026-05-08T22:59:44.000Z</time></trkpt>
        <trkpt lat="29.806445" lon="103.43328"><ele>466.89795</ele><time>2026-05-08T22:59:49.000Z</time></trkpt>
        <trkpt lat="29.806489" lon="103.433305"><ele>464.75876</ele><time>2026-05-08T22:59:57.000Z</time></trkpt>
        <trkpt lat="29.806526" lon="103.433344"><ele>463.3743</ele><time>2026-05-08T23:00:09.000Z</time></trkpt>
        <trkpt lat="29.806573" lon="103.433351"><ele>462.54486</ele><time>2026-05-08T23:00:12.000Z</time></trkpt>
        <trkpt lat="29.80663" lon="103.433349"><ele>460.666</ele><time>2026-05-08T23:00:17.000Z</time></trkpt>
        <trkpt lat="29.806684" lon="103.43335"><ele>460.14908</ele><time>2026-05-08T23:00:21.000Z</time></trkpt>
        <trkpt lat="29.806734" lon="103.43337"><ele>458.5682</ele><time>2026-05-08T23:00:42.000Z</time></trkpt>
        <trkpt lat="29.806786" lon="103.433367"><ele>458.97012</ele><time>2026-05-08T23:00:46.000Z</time></trkpt>
        <trkpt lat="29.806833" lon="103.433363"><ele>458.8099</ele><time>2026-05-08T23:00:51.000Z</time></trkpt>
        <trkpt lat="29.806885" lon="103.433346"><ele>459.2108</ele><time>2026-05-08T23:00:55.000Z</time></trkpt>
        <trkpt lat="29.806928" lon="103.43332"><ele>458.6584</ele><time>2026-05-08T23:00:59.000Z</time></trkpt>
        <trkpt lat="29.80697" lon="103.433287"><ele>457.57874</ele><time>2026-05-08T23:01:04.000Z</time></trkpt>
        <trkpt lat="29.806994" lon="103.433233"><ele>457.4387</ele><time>2026-05-08T23:01:08.000Z</time></trkpt>
        <trkpt lat="29.807026" lon="103.433178"><ele>456.85556</ele><time>2026-05-08T23:01:13.000Z</time></trkpt>
        <trkpt lat="29.80706" lon="103.433131"><ele>456.9363</ele><time>2026-05-08T23:01:16.000Z</time></trkpt>
        <trkpt lat="29.8071" lon="103.433094"><ele>456.4579</ele><time>2026-05-08T23:01:20.000Z</time></trkpt>
        <trkpt lat="29.807126" lon="103.433044"><ele>456.43927</ele><time>2026-05-08T23:01:24.000Z</time></trkpt>
        <trkpt lat="29.807159" lon="103.432998"><ele>455.83032</ele><time>2026-05-08T23:01:28.000Z</time></trkpt>
        <trkpt lat="29.807192" lon="103.432956"><ele>454.58798</ele><time>2026-05-08T23:01:32.000Z</time></trkpt>
        <trkpt lat="29.807221" lon="103.432904"><ele>454.46774</ele><time>2026-05-08T23:01:36.000Z</time></trkpt>
        <trkpt lat="29.80725" lon="103.432859"><ele>453.8881</ele><time>2026-05-08T23:01:44.000Z</time></trkpt>
        <trkpt lat="29.807259" lon="103.432808"><ele>453.44962</ele><time>2026-05-08T23:01:48.000Z</time></trkpt>
        <trkpt lat="29.807269" lon="103.432743"><ele>454.4534</ele><time>2026-05-08T23:01:53.000Z</time></trkpt>
        <trkpt lat="29.807281" lon="103.432691"><ele>453.52295</ele><time>2026-05-08T23:01:57.000Z</time></trkpt>
        <trkpt lat="29.807297" lon="103.432633"><ele>453.78653</ele><time>2026-05-08T23:02:01.000Z</time></trkpt>
        <trkpt lat="29.807314" lon="103.432578"><ele>454.66162</ele><time>2026-05-08T23:02:06.000Z</time></trkpt>
        <trkpt lat="29.807363" lon="103.432552"><ele>453.72266</ele><time>2026-05-08T23:02:11.000Z</time></trkpt>
        <trkpt lat="29.807416" lon="103.432527"><ele>453.502</ele><time>2026-05-08T23:02:15.000Z</time></trkpt>
        <trkpt lat="29.807461" lon="103.43249"><ele>453.5468</ele><time>2026-05-08T23:02:19.000Z</time></trkpt>
        <trkpt lat="29.807498" lon="103.432446"><ele>455.4223</ele><time>2026-05-08T23:02:23.000Z</time></trkpt>
        <trkpt lat="29.807533" lon="103.432406"><ele>455.6513</ele><time>2026-05-08T23:02:27.000Z</time></trkpt>
        <trkpt lat="29.807566" lon="103.432358"><ele>455.98184</ele><time>2026-05-08T23:02:31.000Z</time></trkpt>
        <trkpt lat="29.807604" lon="103.432312"><ele>456.61984</ele><time>2026-05-08T23:02:35.000Z</time></trkpt>
        <trkpt lat="29.807633" lon="103.432272"><ele>457.29303</ele><time>2026-05-08T23:02:39.000Z</time></trkpt>
        <trkpt lat="29.807671" lon="103.432232"><ele>457.449</ele><time>2026-05-08T23:02:43.000Z</time></trkpt>
        <trkpt lat="29.807711" lon="103.432185"><ele>458.14444</ele><time>2026-05-08T23:02:47.000Z</time></trkpt>
        <trkpt lat="29.807756" lon="103.432141"><ele>458.35583</ele><time>2026-05-08T23:02:51.000Z</time></trkpt>
        <trkpt lat="29.807795" lon="103.432094"><ele>459.04233</ele><time>2026-05-08T23:02:55.000Z</time></trkpt>
        <trkpt lat="29.807838" lon="103.43206"><ele>459.61844</ele><time>2026-05-08T23:02:59.000Z</time></trkpt>
        <trkpt lat="29.80789" lon="103.432033"><ele>459.07428</ele><time>2026-05-08T23:03:03.000Z</time></trkpt>
        <trkpt lat="29.807938" lon="103.432"><ele>458.73993</ele><time>2026-05-08T23:03:07.000Z</time></trkpt>
        <trkpt lat="29.807988" lon="103.431968"><ele>458.5204</ele><time>2026-05-08T23:03:11.000Z</time></trkpt>
        <trkpt lat="29.808022" lon="103.431925"><ele>459.5964</ele><time>2026-05-08T23:03:15.000Z</time></trkpt>
        <trkpt lat="29.808054" lon="103.431887"><ele>460.4247</ele><time>2026-05-08T23:03:19.000Z</time></trkpt>
        <trkpt lat="29.808093" lon="103.431856"><ele>460.5016</ele><time>2026-05-08T23:03:23.000Z</time></trkpt>
        <trkpt lat="29.808132" lon="103.431829"><ele>461.2033</ele><time>2026-05-08T23:03:26.000Z</time></trkpt>
        <trkpt lat="29.808181" lon="103.431799"><ele>460.93967</ele><time>2026-05-08T23:03:31.000Z</time></trkpt>
        <trkpt lat="29.808227" lon="103.431771"><ele>460.6647</ele><time>2026-05-08T23:03:36.000Z</time></trkpt>
        <trkpt lat="29.808273" lon="103.431745"><ele>459.4415</ele><time>2026-05-08T23:03:40.000Z</time></trkpt>
        <trkpt lat="29.808315" lon="103.431724"><ele>459.2459</ele><time>2026-05-08T23:03:44.000Z</time></trkpt>
        <trkpt lat="29.808355" lon="103.431687"><ele>459.24423</ele><time>2026-05-08T23:03:48.000Z</time></trkpt>
        <trkpt lat="29.808399" lon="103.431652"><ele>459.13544</ele><time>2026-05-08T23:03:52.000Z</time></trkpt>
        <trkpt lat="29.808442" lon="103.43163"><ele>459.15036</ele><time>2026-05-08T23:03:56.000Z</time></trkpt>
        <trkpt lat="29.80849" lon="103.431614"><ele>459.25104</ele><time>2026-05-08T23:04:00.000Z</time></trkpt>
        <trkpt lat="29.808535" lon="103.431606"><ele>459.0005</ele><time>2026-05-08T23:04:04.000Z</time></trkpt>
        <trkpt lat="29.808583" lon="103.431591"><ele>458.7177</ele><time>2026-05-08T23:04:08.000Z</time></trkpt>
        <trkpt lat="29.808632" lon="103.431575"><ele>458.84808</ele><time>2026-05-08T23:04:12.000Z</time></trkpt>
        <trkpt lat="29.808675" lon="103.431558"><ele>460.20712</ele><time>2026-05-08T23:04:18.000Z</time></trkpt>
        <trkpt lat="29.80872" lon="103.431539"><ele>459.94516</ele><time>2026-05-08T23:04:23.000Z</time></trkpt>
        <trkpt lat="29.80877" lon="103.431524"><ele>460.31824</ele><time>2026-05-08T23:04:27.000Z</time></trkpt>
        <trkpt lat="29.808819" lon="103.431505"><ele>461.16296</ele><time>2026-05-08T23:04:31.000Z</time></trkpt>
        <trkpt lat="29.808874" lon="103.431493"><ele>462.49683</ele><time>2026-05-08T23:04:35.000Z</time></trkpt>
        <trkpt lat="29.808928" lon="103.43148"><ele>463.24988</ele><time>2026-05-08T23:04:39.000Z</time></trkpt>
        <trkpt lat="29.808967" lon="103.431434"><ele>463.91504</ele><time>2026-05-08T23:04:45.000Z</time></trkpt>
        <trkpt lat="29.809024" lon="103.431425"><ele>464.4687</ele><time>2026-05-08T23:04:50.000Z</time></trkpt>
        <trkpt lat="29.809069" lon="103.431417"><ele>464.48938</ele><time>2026-05-08T23:04:54.000Z</time></trkpt>
        <trkpt lat="29.809112" lon="103.431399"><ele>464.3461</ele><time>2026-05-08T23:04:58.000Z</time></trkpt>
        <trkpt lat="29.809163" lon="103.43138"><ele>465.00204</ele><time>2026-05-08T23:05:03.000Z</time></trkpt>
        <trkpt lat="29.809215" lon="103.43137"><ele>465.0692</ele><time>2026-05-08T23:05:08.000Z</time></trkpt>
        <trkpt lat="29.809265" lon="103.43137"><ele>463.97733</ele><time>2026-05-08T23:05:12.000Z</time></trkpt>
        <trkpt lat="29.809313" lon="103.431348"><ele>462.28656</ele><time>2026-05-08T23:05:17.000Z</time></trkpt>
        <trkpt lat="29.809358" lon="103.431338"><ele>462.05756</ele><time>2026-05-08T23:05:21.000Z</time></trkpt>
        <trkpt lat="29.809413" lon="103.431327"><ele>460.5152</ele><time>2026-05-08T23:05:27.000Z</time></trkpt>
        <trkpt lat="29.809465" lon="103.431332"><ele>461.36432</ele><time>2026-05-08T23:05:33.000Z</time></trkpt>
        <trkpt lat="29.809508" lon="103.431313"><ele>459.39307</ele><time>2026-05-08T23:05:35.000Z</time></trkpt>
        <trkpt lat="29.809554" lon="103.431298"><ele>460.27066</ele><time>2026-05-08T23:05:40.000Z</time></trkpt>
        <trkpt lat="29.809598" lon="103.431286"><ele>461.34955</ele><time>2026-05-08T23:05:44.000Z</time></trkpt>
        <trkpt lat="29.809649" lon="103.4313"><ele>461.46494</ele><time>2026-05-08T23:05:48.000Z</time></trkpt>
        <trkpt lat="29.809703" lon="103.431278"><ele>460.58484</ele><time>2026-05-08T23:05:53.000Z</time></trkpt>
        <trkpt lat="29.80975" lon="103.431291"><ele>460.78625</ele><time>2026-05-08T23:05:57.000Z</time></trkpt>
        <trkpt lat="29.8098" lon="103.431298"><ele>459.10727</ele><time>2026-05-08T23:06:02.000Z</time></trkpt>
        <trkpt lat="29.809847" lon="103.43129"><ele>457.2959</ele><time>2026-05-08T23:06:05.000Z</time></trkpt>
        <trkpt lat="29.809898" lon="103.431276"><ele>455.54013</ele><time>2026-05-08T23:06:10.000Z</time></trkpt>
        <trkpt lat="29.809944" lon="103.431262"><ele>454.00098</ele><time>2026-05-08T23:06:14.000Z</time></trkpt>
        <trkpt lat="29.809999" lon="103.431256"><ele>453.12277</ele><time>2026-05-08T23:06:18.000Z</time></trkpt>
        <trkpt lat="29.810054" lon="103.431261"><ele>453.4246</ele><time>2026-05-08T23:06:23.000Z</time></trkpt>
        <trkpt lat="29.810099" lon="103.431273"><ele>453.62582</ele><time>2026-05-08T23:06:27.000Z</time></trkpt>
        <trkpt lat="29.810108" lon="103.431214"><ele>454.87567</ele><time>2026-05-08T23:06:36.000Z</time></trkpt>
        <trkpt lat="29.810108" lon="103.43116"><ele>456.09378</ele><time>2026-05-08T23:06:46.000Z</time></trkpt>
        <trkpt lat="29.810145" lon="103.431198"><ele>455.46243</ele><time>2026-05-08T23:06:52.000Z</time></trkpt>
        <trkpt lat="29.810191" lon="103.431227"><ele>454.42822</ele><time>2026-05-08T23:06:58.000Z</time></trkpt>
        <trkpt lat="29.810236" lon="103.431257"><ele>454.84952</ele><time>2026-05-08T23:07:03.000Z</time></trkpt>
        <trkpt lat="29.810278" lon="103.43129"><ele>453.54962</ele><time>2026-05-08T23:07:08.000Z</time></trkpt>
        <trkpt lat="29.810324" lon="103.431324"><ele>452.53473</ele><time>2026-05-08T23:07:12.000Z</time></trkpt>
        <trkpt lat="29.810374" lon="103.431359"><ele>451.88892</ele><time>2026-05-08T23:07:16.000Z</time></trkpt>
        <trkpt lat="29.810414" lon="103.431398"><ele>452.95163</ele><time>2026-05-08T23:07:20.000Z</time></trkpt>
        <trkpt lat="29.810447" lon="103.431434"><ele>453.59262</ele><time>2026-05-08T23:07:23.000Z</time></trkpt>
        <trkpt lat="29.810483" lon="103.431479"><ele>454.25378</ele><time>2026-05-08T23:07:27.000Z</time></trkpt>
        <trkpt lat="29.810511" lon="103.431533"><ele>454.55084</ele><time>2026-05-08T23:07:31.000Z</time></trkpt>
        <trkpt lat="29.810532" lon="103.43158"><ele>454.62637</ele><time>2026-05-08T23:07:34.000Z</time></trkpt>
        <trkpt lat="29.810552" lon="103.431636"><ele>453.64044</ele><time>2026-05-08T23:07:39.000Z</time></trkpt>
        <trkpt lat="29.810557" lon="103.431695"><ele>452.70078</ele><time>2026-05-08T23:07:43.000Z</time></trkpt>
        <trkpt lat="29.810559" lon="103.431755"><ele>451.99792</ele><time>2026-05-08T23:07:48.000Z</time></trkpt>
        <trkpt lat="29.810582" lon="103.431809"><ele>451.57852</ele><time>2026-05-08T23:07:52.000Z</time></trkpt>
        <trkpt lat="29.810607" lon="103.431884"><ele>451.15372</ele><time>2026-05-08T23:07:56.000Z</time></trkpt>
        <trkpt lat="29.810631" lon="103.431941"><ele>450.65613</ele><time>2026-05-08T23:08:03.000Z</time></trkpt>
        <trkpt lat="29.810661" lon="103.431987"><ele>452.59952</ele><time>2026-05-08T23:08:18.000Z</time></trkpt>
        <trkpt lat="29.810663" lon="103.43204"><ele>451.85632</ele><time>2026-05-08T23:08:22.000Z</time></trkpt>
        <trkpt lat="29.810682" lon="103.432098"><ele>452.17737</ele><time>2026-05-08T23:08:26.000Z</time></trkpt>
        <trkpt lat="29.810684" lon="103.432155"><ele>452.2431</ele><time>2026-05-08T23:08:30.000Z</time></trkpt>
        <trkpt lat="29.810691" lon="103.432207"><ele>452.28302</ele><time>2026-05-08T23:08:33.000Z</time></trkpt>
        <trkpt lat="29.810709" lon="103.432262"><ele>452.07187</ele><time>2026-05-08T23:08:37.000Z</time></trkpt>
        <trkpt lat="29.810703" lon="103.432326"><ele>452.60538</ele><time>2026-05-08T23:08:46.000Z</time></trkpt>
        <trkpt lat="29.810713" lon="103.432386"><ele>452.44574</ele><time>2026-05-08T23:08:50.000Z</time></trkpt>
        <trkpt lat="29.810724" lon="103.432443"><ele>452.5754</ele><time>2026-05-08T23:08:54.000Z</time></trkpt>
        <trkpt lat="29.810723" lon="103.432509"><ele>452.41293</ele><time>2026-05-08T23:08:59.000Z</time></trkpt>
        <trkpt lat="29.81071" lon="103.432565"><ele>452.68723</ele><time>2026-05-08T23:09:03.000Z</time></trkpt>
        <trkpt lat="29.810702" lon="103.432627"><ele>452.41736</ele><time>2026-05-08T23:09:07.000Z</time></trkpt>
        <trkpt lat="29.810701" lon="103.432679"><ele>452.42014</ele><time>2026-05-08T23:09:11.000Z</time></trkpt>
        <trkpt lat="29.810696" lon="103.432743"><ele>452.15366</ele><time>2026-05-08T23:09:15.000Z</time></trkpt>
        <trkpt lat="29.810703" lon="103.432798"><ele>451.85013</ele><time>2026-05-08T23:09:18.000Z</time></trkpt>
        <trkpt lat="29.81069" lon="103.432849"><ele>451.5016</ele><time>2026-05-08T23:09:22.000Z</time></trkpt>
        <trkpt lat="29.810685" lon="103.4329"><ele>450.7913</ele><time>2026-05-08T23:09:26.000Z</time></trkpt>
        <trkpt lat="29.81068" lon="103.432955"><ele>451.92935</ele><time>2026-05-08T23:09:29.000Z</time></trkpt>
        <trkpt lat="29.810666" lon="103.433011"><ele>451.43924</ele><time>2026-05-08T23:09:33.000Z</time></trkpt>
        <trkpt lat="29.810655" lon="103.433067"><ele>457.04105</ele><time>2026-05-08T23:09:36.000Z</time></trkpt>
        <trkpt lat="29.810631" lon="103.433123"><ele>457.75818</ele><time>2026-05-08T23:09:40.000Z</time></trkpt>
        <trkpt lat="29.810603" lon="103.433176"><ele>456.85135</ele><time>2026-05-08T23:09:45.000Z</time></trkpt>
        <trkpt lat="29.810584" lon="103.433234"><ele>455.91437</ele><time>2026-05-08T23:09:49.000Z</time></trkpt>
        <trkpt lat="29.810568" lon="103.433289"><ele>454.87527</ele><time>2026-05-08T23:09:53.000Z</time></trkpt>
        <trkpt lat="29.810603" lon="103.433336"><ele>454.27554</ele><time>2026-05-08T23:09:58.000Z</time></trkpt>
        <trkpt lat="29.810651" lon="103.433369"><ele>455.30707</ele><time>2026-05-08T23:10:02.000Z</time></trkpt>
      </trkseg>
  </trk>
</gpx>